[[{"header":{"parameterUnit":"m.s-1","parameterCategory":1,"la1":30.6,"la2":28.766,"lo1":-90.7593,"lo2":-88.6598,"dy":0.0162,"dx":0.0183,"nx":116,"ny":114,"refTime":"2023-09-24T12:00:00:Z","depth":0,"parameterNumber":2,"parameterNumberName":"U-component_of_WINDS"},"data":[0.0,0.0,0.0,0.0,0.0,0.0,0.0,0.0,0.0,0.0,0.0,0.0,0.0,0.0,0.0,0.0,0.0,0.0,0.0,0.0,0.0,0.0,0.0,0.0,0.0,0.0,0.0,0.0,0.0,0.0,0.0,0.0,0.0,0.0,0.0,0.0,0.0,0.0,0.0,0.0,0.0,0.0,0.0,0.0,0.0,0.0,0.0,0.0,0.0,0.0,0.0,0.0,0.0,0.0,0.0,0.0,0.0,0.0,0.0,0.0,0.0,0.0,0.0,0.0,0.0,0.0,0.0,0.0,0.0,0.0,0.0,0.0,0.0,0.0,0.0,0.0,0.0,0.0,0.0,0.0,0.0,0.0,0.0,0.0,0.0,0.0,0.0,0.0,0.0,0.0,0.0,0.0,0.0,0.0,0.0,0.0,0.0,0.0,0.0,0.0,0.0,0.0,0.0,0.0,0.0,0.0,0.0,0.0,0.0,0.0,0.0,0.0,0.0,0.0,0.0,0.0,0.0,0.0,0.0,0.0,0.0,0.0,0.0,0.0,0.0,0.0,0.0,0.0,0.0,0.0,0.0,0.0,0.0,0.0,0.0,0.0,0.0,0.0,0.0,0.0,0.0,0.0,0.0,0.0,0.0,0.0,0.0,0.0,0.0,0.0,0.0,0.0,0.0,0.0,0.0,0.0,0.0,0.0,0.0,0.0,0.0,0.0,0.0,0.0,0.0,0.0,0.0,0.0,0.0,0.0,0.0,0.0,0.0,0.0,0.0,0.0,0.0,0.0,0.0,0.0,0.0,0.0,0.0,0.0,0.0,0.0,0.0,0.0,0.0,0.0,0.0,0.0,0.0,0.0,0.0,0.0,0.0,0.0,0.0,0.0,0.0,0.0,0.0,0.0,0.0,0.0,0.0,0.0,0.0,0.0,0.0,0.0,0.0,0.0,0.0,0.0,0.0,0.0,0.0,0.0,0.0,0.0,0.0,0.0,0.0,0.0,0.0,0.0,0.0,0.0,0.0,0.0,0.0,0.0,0.0,0.0,0.0,0.0,0.0,0.0,0.0,0.0,0.0,0.0,0.0,0.0,0.0,0.0,0.0,0.0,0.0,0.0,0.0,0.0,0.0,0.0,0.0,0.0,0.0,0.0,0.0,0.0,0.0,0.0,0.0,0.0,0.0,0.0,0.0,0.0,0.0,0.0,0.0,0.0,0.0,0.0,0.0,0.0,0.0,0.0,0.0,0.0,0.0,0.0,0.0,0.0,0.0,0.0,0.0,0.0,0.0,0.0,0.0,0.0,0.0,0.0,0.0,0.0,0.0,0.0,0.0,0.0,0.0,0.0,0.0,0.0,0.0,0.0,0.0,0.0,0.0,0.0,0.0,0.0,0.0,0.0,0.0,0.0,0.0,0.0,0.0,0.0,0.0,0.0,0.0,0.0,0.0,0.0,0.0,0.0,0.0,0.0,0.0,0.0,0.0,0.0,0.0,0.0,0.0,0.0,0.0,0.0,0.0,0.0,0.0,0.0,0.0,0.0,0.0,0.0,0.0,0.0,0.0,0.0,0.0,0.0,0.0,0.0,0.0,0.0,0.0,0.0,0.0,0.0,0.0,0.0,0.0,0.0,0.0,0.0,0.0,0.0,0.0,0.0,0.0,0.0,0.0,0.0,0.0,0.0,0.0,0.0,0.0,0.0,0.0,0.0,0.0,0.0,0.0,0.0,0.0,0.0,0.0,0.0,0.0,0.0,0.0,0.0,0.0,0.0,0.0,0.0,0.0,0.0,0.0,0.0,0.0,0.0,0.0,0.0,0.0,0.0,0.0,0.0,0.0,0.0,0.0,0.0,0.0,0.0,0.0,0.0,0.0,0.0,0.0,0.0,0.0,0.0,0.0,0.0,0.0,0.0,0.0,0.0,0.0,0.0,0.0,0.0,0.0,0.0,0.0,0.0,0.0,0.0,0.0,0.0,0.0,0.0,0.0,0.0,0.0,0.0,0.0,0.0,0.0,0.0,0.0,0.0,0.0,0.0,0.0,0.0,0.0,0.0,0.0,0.0,0.0,0.0,0.0,0.0,0.0,0.0,0.0,0.0,0.0,0.0,0.0,0.0,0.0,0.0,0.0,0.0,0.0,0.0,0.0,0.0,0.0,0.0,0.0,0.0,0.0,0.0,0.0,0.0,0.0,0.0,0.0,0.0,0.0,0.0,0.0,0.0,0.0,0.0,0.0,0.0,0.0,0.0,0.0,0.0,0.0,0.0,0.0,0.0,0.0,0.0,0.0,0.0,0.0,0.0,0.0,0.0,0.0,0.0,0.0,0.0,0.0,0.0,0.0,0.0,0.0,0.0,0.0,0.0,0.0,0.0,0.0,0.0,0.0,0.0,0.0,0.0,0.0,0.0,0.0,0.0,0.0,0.0,0.0,0.0,0.0,0.0,0.0,0.0,0.0,0.0,0.0,0.0,0.0,0.0,0.0,0.0,0.0,0.0,0.0,0.0,0.0,0.0,0.0,0.0,0.0,0.0,0.0,0.0,0.0,0.0,0.0,0.0,0.0,0.0,0.0,0.0,0.0,0.0,0.0,0.0,0.0,0.0,0.0,0.0,0.0,0.0,0.0,0.0,0.0,0.0,0.0,0.0,0.0,0.0,0.0,0.0,0.0,0.0,0.0,0.0,0.0,0.0,0.0,0.0,0.0,0.0,0.0,0.0,0.0,0.0,0.0,0.0,0.0,0.0,0.0,0.0,0.0,0.0,0.0,0.0,0.0,0.0,0.0,0.0,0.0,0.0,0.0,0.0,0.0,0.0,0.0,0.0,0.0,0.0,0.0,0.0,0.0,0.0,0.0,0.0,0.0,0.0,0.0,0.0,0.0,0.0,0.0,0.0,0.0,0.0,0.0,0.0,0.0,0.0,0.0,0.0,0.0,0.0,0.0,0.0,0.0,0.0,0.0,0.0,0.0,0.0,0.0,0.0,0.0,0.0,0.0,0.0,0.0,0.0,0.0,0.0,0.0,0.0,0.0,0.0,0.0,0.0,0.0,0.0,0.0,0.0,0.0,0.0,0.0,0.0,0.0,0.0,0.0,0.0,0.0,0.0,0.0,0.0,0.0,0.0,0.0,0.0,0.0,0.0,0.0,0.0,0.0,0.0,0.0,0.0,0.0,0.0,0.0,0.0,0.0,0.0,0.0,0.0,0.0,0.0,0.0,0.0,0.0,0.0,0.0,0.0,0.0,0.0,0.0,0.0,0.0,0.0,0.0,0.0,0.0,0.0,0.0,0.0,0.0,0.0,0.0,0.0,0.0,0.0,0.0,0.0,0.0,0.0,0.0,0.0,0.0,0.0,0.0,0.0,0.0,0.0,0.0,0.0,0.0,0.0,0.0,0.0,0.0,0.0,0.0,0.0,0.0,0.0,0.0,0.0,0.0,0.0,0.0,0.0,0.0,0.0,0.0,0.0,0.0,0.0,0.0,0.0,0.0,0.0,0.0,0.0,0.0,0.0,0.0,0.0,0.0,0.0,0.0,0.0,0.0,0.0,0.0,0.0,0.0,0.0,0.0,0.0,0.0,0.0,0.0,0.0,0.0,0.0,0.0,0.0,0.0,0.0,0.0,0.0,0.0,0.0,0.0,0.0,0.0,0.0,0.0,0.0,0.0,0.0,0.0,0.0,0.0,0.0,0.0,0.0,0.0,0.0,0.0,0.0,0.0,0.0,0.0,0.0,0.0,0.0,0.0,0.0,0.0,0.0,0.0,0.0,0.0,0.0,0.0,0.0,0.0,0.0,0.0,0.0,0.0,0.0,0.0,0.0,0.0,0.0,0.0,0.0,0.0,0.0,0.0,0.0,0.0,0.0,0.0,0.0,0.0,0.0,0.0,0.0,0.0,0.0,0.0,0.0,0.0,0.0,0.0,0.0,0.0,0.0,0.0,0.0,0.0,0.0,0.0,0.0,0.0,0.0,0.0,0.0,0.0,0.0,0.0,0.0,0.0,0.0,0.0,0.0,0.0,0.0,0.0,0.0,0.0,0.0,0.0,0.0,0.0,0.0,0.0,0.0,0.0,0.0,0.0,0.0,0.0,0.0,0.0,0.0,0.0,0.0,0.0,0.0,0.0,0.0,0.0,0.0,0.0,0.0,0.0,0.0,0.0,0.0,0.0,0.0,0.0,0.0,0.0,0.0,0.0,0.0,0.0,0.0,0.0,0.0,0.0,0.0,0.0,0.0,0.0,0.0,0.0,0.0,0.0,0.0,0.0,0.0,0.0,0.0,0.0,0.0,0.0,0.0,0.0,0.0,0.0,0.0,0.0,0.0,0.0,0.0,0.0,0.0,0.0,0.0,0.0,0.0,0.0,0.0,0.0,0.0,0.0,0.0,0.0,0.0,0.0,0.0,0.0,0.0,0.0,0.0,0.0,0.0,0.0,0.0,0.0,0.0,0.0,0.0,0.0,0.0,0.0,0.0,0.0,0.0,0.0,0.0,0.0,0.0,0.0,0.0,0.0,0.0,0.0,0.0,0.0,0.0,0.0,0.0,0.0,0.0,0.0,0.0,0.0,0.0,0.0,0.0,0.0,0.0,0.0,0.0,0.0,0.0,0.0,0.0,0.0,0.0,0.0,0.0,0.0,0.0,0.0,0.0,0.0,0.0,0.0,0.0,0.0,0.0,0.0,0.0,0.0,0.0,0.0,0.0,0.0,0.0,0.0,0.0,0.0,0.0,0.0,0.0,0.0,0.0,0.0,0.0,0.0,0.0,0.0,0.0,0.0,0.0,0.0,0.0,0.0,0.0,0.0,0.0,0.0,0.0,0.0,0.0,0.0,0.0,0.0,0.0,0.0,0.0,0.0,0.0,0.0,0.0,0.0,0.0,0.0,0.0,0.0,0.0,0.0,0.0,0.0,0.0,0.0,0.0,0.0,0.0,0.0,0.0,0.0,0.0,0.0,0.0,0.0,0.0,0.0,0.0,0.0,0.0,0.0,0.0,0.0,0.0,0.0,0.0,0.0,0.0,0.0,0.0,0.0,0.0,0.0,0.0,0.0,0.0,0.0,0.0,0.0,0.0,0.0,0.0,0.0,0.0,0.0,0.0,0.0,0.0,0.0,0.0,0.0,0.0,0.0,0.0,0.0,0.0,0.0,0.0,0.0,0.0,0.0,0.0,0.0,0.0,0.0,0.0,0.0,0.0,0.0,0.0,0.0,0.0,0.0,0.0,0.0,0.0,0.0,0.0,0.0,0.0,0.0,0.0,0.0,0.0,0.0,0.0,0.0,0.0,0.0,0.0,0.0,0.0,0.0,0.0,0.0,0.0,0.0,0.0,0.0,0.0,0.0,0.0,0.0,0.0,0.0,0.0,0.0,0.0,0.0,0.0,0.0,0.0,0.0,0.0,0.0,0.0,0.0,0.0,0.0,0.0,0.0,0.0,0.0,0.0,0.0,0.0,0.0,0.0,0.0,0.0,0.0,0.0,0.0,0.0,0.0,0.0,0.0,0.0,0.0,0.0,0.0,0.0,0.0,0.0,0.0,0.0,0.0,0.0,0.0,0.0,0.0,0.0,0.0,0.0,0.0,0.0,0.0,0.0,0.0,0.0,0.0,0.0,0.0,0.0,0.0,0.0,0.0,0.0,0.0,0.0,0.0,0.0,0.0,0.0,0.0,0.0,0.0,0.0,0.0,0.0,0.0,0.0,0.0,0.0,0.0,0.0,0.0,0.0,0.0,0.0,0.0,0.0,0.0,0.0,0.0,0.0,0.0,0.0,0.0,0.0,0.0,0.0,0.0,0.0,0.0,0.0,0.0,0.0,0.0,0.0,0.0,0.0,0.0,0.0,0.0,0.0,0.0,0.0,0.0,0.0,0.0,0.0,0.0,0.0,0.0,0.0,0.0,0.0,0.0,0.0,0.0,0.0,0.0,0.0,0.0,0.0,0.0,0.0,0.0,0.0,0.0,0.0,0.0,0.0,0.0,0.0,0.0,0.0,0.0,0.0,0.0,0.0,0.0,0.0,0.0,0.0,0.0,0.0,0.0,0.0,0.0,0.0,0.0,0.0,0.0,0.0,0.0,0.0,0.0,0.0,0.0,0.0,1.7762,1.5536,0.0,0.0,0.0,0.0,0.0,0.0,0.0,0.0,0.0,0.0,0.0,0.0,0.0,0.0,0.0,0.0,0.0,0.0,0.0,0.0,0.0,0.0,0.0,0.0,0.0,0.0,0.0,0.0,0.0,0.0,0.0,0.0,0.0,0.0,0.0,0.0,0.0,0.6908,0.8284,0.9506,1.0563,1.1305,1.055,0.8595,0.0,0.0,0.0,0.0,0.0,0.0,0.0,0.0,0.0,0.0,0.0,0.0,0.0,0.0,0.0,0.0,0.0,0.0,0.0,0.0,0.0,0.0,0.0,0.0,0.0,0.0,0.0,0.0,0.0,0.0,0.0,0.0,0.0,0.0,0.0,0.0,0.0,0.0,0.0,0.0,0.0,0.0,0.0,0.0,0.0,0.0,0.0,0.0,0.0,0.0,0.0,0.0,0.0,0.0,0.0,0.0,0.0,0.0,0.0,0.0,0.0,0.0,0.0,0.0,0.0,0.0,0.0,0.0,0.0,0.0,1.8989,1.7979,0.0,0.0,0.0,0.0,0.0,0.0,0.0,0.0,0.0,0.0,0.0,0.0,0.0,0.0,0.0,0.0,0.0,0.0,0.0,0.0,0.0,0.0,0.0,0.7052,0.7313,0.739,0.7552,0.7662,0.0,0.0,0.0,0.0,0.0,0.0,0.6616,0.6991,0.7238,0.7341,1.0041,1.2486,1.4599,1.484,1.2632,0.8554,0.9014,0.0,0.0,0.0,0.0,0.0,0.0,0.0,0.0,0.0,0.0,0.0,0.0,0.0,0.0,0.0,0.0,0.0,0.0,0.0,0.0,0.0,0.0,0.0,0.0,0.0,0.0,0.0,0.0,0.0,0.0,0.0,0.0,0.0,0.0,0.0,0.0,0.0,0.0,0.0,0.0,0.0,0.0,0.0,0.0,0.0,0.0,0.0,0.0,0.0,0.0,0.0,0.0,0.0,0.0,0.0,0.0,0.0,0.0,0.0,0.0,0.0,0.0,0.0,1.8446,1.8737,1.8986,1.8986,1.8661,1.8212,2.0726,2.0967,1.9516,1.808,0.0,0.0,0.0,0.0,0.0,0.0,0.0,0.0,0.0,0.0,0.0,0.0,0.0,0.0,0.0,0.0,0.0,0.0,0.0,0.0,0.0,0.7213,0.7349,0.7696,0.709,0.6833,0.7165,0.0,0.0,0.0,0.0,0.0,0.7437,0.7495,0.8184,0.9487,1.1505,1.3215,1.4578,1.3826,1.3158,1.2691,1.4235,1.3698,1.1663,0.0,0.0,0.0,0.0,0.0,0.0,0.0,0.0,0.0,0.0,0.0,0.0,0.0,0.0,0.0,0.0,0.0,0.0,0.0,0.0,0.0,0.0,0.0,0.0,0.0,0.0,0.0,0.0,0.0,0.0,0.0,0.0,0.0,0.0,0.0,0.0,0.0,0.0,0.0,0.0,0.0,1.4985,1.6401,0.0,0.0,0.0,0.0,0.0,0.0,0.0,0.0,0.0,0.0,0.0,0.0,0.0,1.7644,1.7977,1.9573,2.0554,2.0908,2.2244,2.2895,2.2954,2.2954,2.2886,2.2757,2.154,0.0,1.9303,1.9675,0.0,0.0,0.0,0.0,0.0,0.0,0.0,0.0,0.0,0.0,0.0,0.0,0.0,0.0,0.0,0.0,0.0,0.0,0.0,0.0,0.0,0.8033,0.8894,0.9031,0.9884,1.0056,0.913,0.8549,0.0,0.0,0.669,0.6594,0.6868,0.7353,0.9268,1.2649,1.4983,1.6851,1.8262,1.86,1.8788,1.8897,1.9649,1.7587,1.3557,1.3529,0.0,0.0,0.0,0.0,0.0,0.0,0.0,0.0,0.0,0.0,0.0,0.0,0.0,0.0,0.0,0.0,0.0,0.0,0.0,0.0,0.0,0.0,0.0,0.0,0.0,0.0,0.0,0.0,0.0,0.0,0.0,0.0,0.0,0.0,0.0,0.0,0.0,0.0,0.0,1.473,1.599,1.7103,1.7292,1.6649,0.0,0.0,0.0,0.0,0.0,0.0,0.0,0.0,0.0,1.7928,1.9058,1.9777,2.0059,2.1852,2.292,2.3314,2.4008,2.4333,2.4316,2.4316,2.4316,2.4264,2.3443,2.2809,2.2261,2.112,2.0737,2.0805,0.0,0.0,0.0,0.0,1.7325,1.8151,0.0,0.0,0.0,0.0,0.0,0.0,0.0,0.0,0.0,0.0,0.0,0.0,0.7462,0.9545,1.0928,1.0847,1.2563,1.2761,1.0672,1.008,0.8986,0.7205,0.6521,0.63,0.6546,0.818,1.1157,1.5517,1.7803,1.9659,2.1096,2.1857,2.2279,2.2378,2.2378,2.0075,1.6181,1.6119,1.5313,1.4036,0.0,0.0,0.0,0.0,0.0,0.0,0.0,0.0,0.0,0.0,0.0,0.0,0.0,0.0,0.0,0.0,0.0,0.0,0.0,0.0,0.0,0.0,0.0,0.0,0.0,0.0,0.0,0.0,0.0,0.0,0.0,0.0,0.0,0.0,0.0,0.0,0.0,1.5776,1.6877,1.8075,1.8432,1.8077,0.0,0.0,0.0,0.0,0.0,0.0,1.8346,1.8792,1.9262,1.9782,2.1252,2.2189,2.2527,2.401,2.4971,2.5395,2.5395,2.5395,2.5395,2.5395,2.5395,2.5395,2.5395,2.5395,2.5206,2.286,2.2038,2.2244,2.1953,2.1165,2.0143,1.9619,1.9905,2.0474,0.0,0.0,0.0,0.0,0.0,0.0,0.0,0.0,0.0,0.0,0.0,0.9886,0.9925,1.1974,1.3275,1.316,1.365,1.2958,1.0578,1.0311,0.9436,0.7566,0.6952,0.6842,0.7241,1.0965,1.4402,1.7472,1.8607,1.9809,2.0973,2.0223,2.0076,2.0427,2.0427,2.0455,2.0502,2.0625,1.9281,1.688,1.4657,0.0,0.0,0.0,0.0,0.0,0.0,0.0,0.0,0.0,0.0,0.0,0.0,0.0,0.0,0.0,0.0,0.0,0.0,0.0,0.0,0.0,0.0,0.0,0.0,0.0,0.0,0.0,0.0,0.0,0.0,0.0,0.0,0.0,0.0,0.0,0.0,0.0,0.0,1.9885,2.1443,0.0,0.0,0.0,0.0,1.8331,1.8775,1.9752,2.1226,2.1786,2.2937,2.4889,2.5011,2.5412,2.6144,2.6249,2.6539,2.6983,2.6983,2.6983,2.6983,2.6983,2.6983,2.6983,2.6983,2.6983,2.6863,2.5275,2.4597,2.4511,2.346,2.2954,2.2664,2.0768,2.1268,2.2818,0.0,0.0,0.0,0.0,0.0,0.0,0.0,0.0,0.6546,0.6748,0.8206,0.9418,0.9922,1.263,1.4665,1.5296,1.6412,1.6377,1.4763,1.2732,1.0848,0.9173,0.7646,0.7821,0.9962,1.3169,1.5703,1.7531,1.9719,2.0851,2.0965,2.1468,2.1762,2.1905,2.1905,2.2307,2.2904,2.1578,1.9793,1.7815,1.697,1.5096,0.0,0.0,0.0,0.0,0.0,0.0,0.0,0.0,0.0,0.0,0.0,0.0,0.0,0.0,0.0,0.0,0.0,0.0,0.0,0.0,0.0,0.0,0.0,0.0,0.0,0.0,0.0,0.0,0.0,0.0,0.0,0.0,0.0,0.0,0.0,0.0,0.0,2.0808,2.1334,0.0,2.1739,2.1608,2.145,2.1356,2.2476,2.3556,2.4589,2.5044,2.574,2.6743,2.7,2.7364,2.7877,2.7894,2.7978,2.8116,2.835,2.835,2.8147,2.835,2.8319,2.8116,2.8116,2.8009,2.7789,2.721,2.6845,2.6568,2.6151,2.5995,2.588,2.4954,2.5058,2.5634,0.0,0.0,0.0,0.0,0.0,0.0,0.0,0.0,0.6576,0.6979,0.8957,1.0523,1.1067,1.432,1.6633,1.6986,1.8375,1.8225,1.5842,1.3935,1.1727,0.9076,0.8322,0.967,1.3278,1.5274,1.707,1.8634,2.0629,2.1484,2.1292,2.2143,2.2607,2.2733,2.2733,2.2996,2.3359,2.1925,2.0829,1.9973,1.9139,1.6878,1.3927,0.0,0.0,0.0,0.0,0.0,0.0,0.0,0.0,0.0,0.0,0.0,0.0,0.0,0.0,0.0,0.0,0.0,0.0,0.0,0.0,0.0,0.0,0.0,0.0,0.0,0.0,0.0,0.0,0.0,0.0,0.0,0.0,0.0,0.0,1.7364,1.9234,2.1479,2.1968,2.2494,2.3478,2.3614,2.389,2.4484,2.5601,2.6531,2.7135,2.7393,2.7754,2.8301,2.8501,2.8819,2.9243,2.9261,2.9253,2.9263,2.9503,2.9485,2.9263,2.9503,2.8902,2.7761,2.8797,2.8538,2.7452,2.8642,2.8871,2.8505,2.7996,2.78,2.7769,2.7542,2.748,2.748,0.0,0.0,0.0,0.0,0.0,0.0,0.5759,0.6164,0.6868,0.7909,1.1075,1.3298,1.3414,1.7083,1.9118,1.8082,1.9247,1.8089,1.3491,1.3732,1.1948,0.7246,0.9077,1.2352,1.698,1.7422,1.8724,2.0955,2.1292,2.1627,2.2046,2.2046,2.2259,2.2628,2.2628,2.2397,2.2021,2.2021,2.2637,2.3428,2.1013,1.8933,1.7007,0.0,0.0,0.0,0.0,0.0,0.0,0.0,0.0,0.0,0.0,0.0,0.0,0.0,0.0,0.0,0.0,0.0,0.0,0.0,0.0,0.0,0.0,0.0,0.0,0.0,0.0,0.0,0.0,0.0,0.0,0.0,0.0,0.0,1.5999,1.8736,2.1026,2.2038,2.371,2.5101,2.5915,2.6593,2.7138,2.754,2.7932,2.8341,2.8714,2.8666,2.8931,2.9573,2.9604,2.9802,3.0167,3.0284,3.0359,3.0429,3.0461,3.0461,3.0446,3.0479,2.8815,2.606,2.9148,2.8717,2.6154,2.9517,3.0721,3.0293,2.8847,2.8252,2.8252,2.822,2.822,2.822,0.0,0.0,0.0,0.0,0.0,0.0,0.6264,0.6319,0.6458,0.675,0.9742,1.1907,1.2035,1.5663,1.8,1.7789,1.8319,1.7696,1.5433,1.377,1.2058,1.0242,1.1656,1.4413,1.8506,1.9506,2.0721,2.2276,2.217,2.2414,2.3022,2.3022,2.2975,2.2887,2.2887,2.271,2.2448,2.2448,2.2452,2.238,2.1421,2.0053,1.8536,0.0,0.0,0.0,0.0,0.0,0.0,0.0,0.0,0.0,0.0,0.0,0.0,0.0,0.0,0.0,0.0,0.0,0.0,0.0,0.0,0.0,0.0,0.0,0.0,0.0,0.0,0.0,0.0,0.0,0.0,0.0,1.8267,2.0577,2.0812,2.1371,2.2685,2.5268,2.5979,2.6796,2.8069,2.8223,2.8437,2.9044,2.92,2.9452,2.9847,2.7913,2.6919,2.7143,2.7387,2.7591,2.7695,2.9946,3.1124,3.1196,3.1443,3.1606,3.1645,3.1878,3.1394,3.0392,3.1249,3.0997,3.0066,3.1001,3.1363,3.1174,3.0198,2.9623,2.9347,2.9088,2.9008,2.8673,0.0,0.0,0.0,0.0,0.0,0.0,0.6305,0.6291,0.645,0.6842,0.9487,1.1486,1.1872,1.523,1.7365,1.713,1.7681,1.6953,1.4341,1.2458,1.228,1.4205,1.5172,1.7299,2.0766,2.1473,2.223,2.3043,2.2895,2.3001,2.3406,2.3566,2.3579,2.3427,2.3585,2.3415,2.3021,2.3148,2.2821,2.2234,2.2117,2.0922,1.9166,1.8943,1.7914,1.6633,1.6846,1.7151,1.7297,1.6495,0.0,0.0,0.0,0.0,0.0,0.0,0.0,0.0,0.0,0.0,0.0,0.0,0.0,0.0,0.0,0.0,0.0,0.0,0.0,0.0,0.0,0.0,0.0,0.0,2.0265,2.3557,2.516,2.4676,2.5037,2.7375,2.7742,2.823,2.9256,2.9491,2.9751,3.0124,3.0338,3.0506,3.0742,2.9213,2.7721,2.6443,2.8037,2.8296,2.6949,3.0255,3.1902,3.1975,3.2158,3.2286,3.2338,3.2488,3.1773,3.0407,3.173,3.144,3.0147,3.1448,3.1953,3.1713,0.0,0.0,0.0,0.0,2.9495,2.9243,0.0,0.0,0.0,0.0,0.0,0.0,0.6098,0.6183,0.6643,0.7577,0.9817,1.1658,1.2474,1.5419,1.7078,1.6428,1.7146,1.5924,1.1879,1.0694,1.2572,1.8042,1.8602,2.0164,2.3063,2.3147,2.3247,2.3506,2.3516,2.3527,2.3577,2.3962,2.4158,2.4132,2.4489,2.4279,2.3729,2.3978,2.3561,2.2799,2.2991,2.1674,1.9577,1.9526,1.8665,1.7601,1.8497,1.8601,1.8452,1.9546,0.0,0.0,0.0,0.0,0.0,0.0,0.0,0.0,0.0,0.0,0.0,0.0,0.0,0.0,0.0,0.0,0.0,0.0,0.0,0.0,0.0,0.0,0.0,0.0,2.1902,2.5277,2.8799,2.817,2.7724,2.8776,2.9115,2.9444,2.9873,3.0487,3.0846,3.0846,3.1263,3.1483,3.1483,3.1176,0.0,0.0,0.0,3.0138,2.7154,3.0585,3.2372,3.2426,3.224,3.2158,3.2212,3.238,3.0956,2.8467,3.1448,3.1052,2.8516,3.1318,3.216,3.165,3.1192,3.0966,3.0796,2.9757,2.9589,2.9778,0.0,0.0,0.0,0.0,0.0,0.0,0.6291,0.6268,0.6659,0.7658,0.9611,1.1445,1.2838,1.5401,1.6943,1.6786,1.5943,1.4528,1.244,1.1081,1.2674,1.7923,1.8555,2.0258,2.3347,2.3368,2.3565,2.4053,2.413,2.4336,2.4539,2.494,2.5019,2.4811,2.4883,2.4726,2.442,2.4472,2.421,2.3791,2.3573,2.2872,2.1916,2.1583,2.1268,2.1,2.0882,2.1278,2.1569,1.99,1.9981,2.0731,2.0531,1.9207,0.0,0.0,0.0,0.0,0.0,0.0,0.0,0.0,0.0,0.0,0.0,0.0,0.0,0.0,0.0,0.0,0.0,0.0,0.0,2.3134,2.597,2.8577,3.0231,3.0226,3.0015,3.0,3.0288,3.0623,3.1039,3.118,3.13,3.13,3.1653,3.1891,3.1891,2.9786,2.7744,2.5961,2.7699,2.7845,2.6025,2.9175,3.0907,3.1202,2.9958,0.0,2.9897,3.1145,3.1375,3.0892,3.276,3.2517,3.084,3.1444,3.0766,2.9369,3.0548,3.08,3.0222,2.7679,2.824,2.9917,0.0,0.0,0.0,0.0,0.0,0.0,0.6345,0.6103,0.6091,0.6496,0.7749,0.9438,1.1659,1.2878,1.3983,1.5045,1.377,1.3073,1.3469,1.3623,1.5404,1.9222,2.0144,2.145,2.3363,2.3356,2.3612,2.4202,2.4473,2.4674,2.4819,2.5407,2.5648,2.5516,2.569,2.5539,2.5101,2.5066,2.4677,2.4097,2.3922,2.3453,2.2817,2.244,2.2303,2.2343,2.2635,2.2901,2.3036,2.2594,2.2711,2.3028,2.31,2.208,2.0349,0.0,0.0,0.0,0.0,0.0,0.0,0.0,0.0,0.0,0.0,0.0,0.0,0.0,0.0,1.8551,1.8333,0.0,2.2415,2.4723,2.6412,2.8293,3.0751,3.1267,3.1258,3.0897,3.0988,3.1281,3.1653,3.1689,3.1781,3.1997,3.2184,3.1963,3.1194,2.9853,2.8061,2.5768,2.7342,2.7538,2.6004,2.8513,2.9862,3.006,2.9267,2.9008,2.9254,3.0183,3.0587,3.0623,3.139,3.1319,3.0587,3.0425,2.9693,2.8735,2.9528,2.9443,2.8708,2.7067,2.7255,2.8111,0.0,0.0,0.0,0.0,0.0,0.0,0.0,0.5846,0.5533,0.5627,0.6105,0.7529,1.0366,1.0381,1.0756,1.2212,1.1455,1.1752,1.379,1.5663,1.7947,2.0729,2.166,2.2512,2.3445,2.3345,2.3587,2.4202,2.4672,2.4929,2.4948,2.5737,2.6104,2.6123,2.6472,2.6281,2.5783,2.5747,2.5201,2.4403,2.4246,2.3809,2.3169,2.2774,2.2603,2.2728,2.352,2.3551,2.345,2.4673,2.4802,2.4545,2.4965,2.4498,2.2997,1.884,1.8482,0.0,0.0,0.0,0.0,0.0,0.0,0.0,0.0,1.8501,1.9288,1.8497,1.953,2.0711,2.0979,2.1664,2.3168,2.6208,2.6795,2.7981,3.1084,3.1799,3.1909,3.1653,3.1616,3.1744,3.2093,3.1847,3.1809,3.2116,3.1938,3.128,3.0037,3.0035,2.8804,2.6035,2.7812,2.8066,2.6532,2.8115,2.894,2.8904,2.8614,2.8469,2.8485,2.9054,2.9325,2.9325,2.9325,2.9325,2.931,2.8738,2.8303,2.8064,2.8064,2.7587,2.6948,2.7095,2.6929,2.6613,0.0,0.0,0.0,0.0,0.0,0.0,0.0,0.0,0.5581,0.6755,0.6714,0.7608,1.033,1.0306,0.9674,0.8606,0.9761,1.0913,1.1783,1.4181,1.7314,2.1254,2.135,2.2191,2.4059,2.3562,2.3587,2.4202,2.4948,2.5333,2.5352,2.6159,2.6518,2.6518,2.6573,2.6554,2.6491,2.6491,2.61,2.5474,2.4792,2.4175,2.3554,2.286,2.2603,2.2628,2.2736,2.2744,2.271,2.2895,2.2902,2.2885,2.292,2.2862,2.2341,2.0142,1.9749,1.9034,1.4611,1.1547,1.0118,1.2247,1.4559,1.6492,0.0,2.1306,2.4485,2.2643,2.5042,2.7604,2.7926,2.8876,2.9723,3.0145,3.0541,3.1034,3.1803,3.1983,3.2129,3.2423,3.2459,3.2478,3.2533,3.1272,3.0496,3.0547,2.9601,2.8981,2.8806,2.9129,2.8529,2.6833,2.8604,2.8826,2.7283,2.774,2.7976,2.7938,2.656,2.5892,2.5968,2.7381,2.8035,2.8035,2.8035,2.8035,2.7907,2.6498,2.5892,2.5854,2.5854,2.5585,2.5426,2.7297,2.7941,2.7833,0.0,0.0,0.0,0.0,0.0,0.0,0.0,0.0,0.0,0.5543,0.5056,0.5707,0.8387,0.8862,0.8202,0.626,0.8008,0.9919,1.1572,1.4308,1.7536,2.1285,2.1447,2.2141,2.3637,2.3438,2.3587,2.4202,2.4764,2.5058,2.5058,2.5488,2.5764,2.5955,2.5793,2.5865,2.6063,2.5829,2.5495,2.5062,2.4527,2.3939,2.3306,2.3023,2.2766,2.2398,2.0808,2.0218,0.0,2.0218,2.0218,2.0472,2.2093,2.1513,2.0065,1.9415,1.8153,1.6572,1.4834,1.4788,1.5509,1.6683,1.9412,2.196,2.2516,2.5002,2.6999,2.6342,2.8011,2.9685,3.0047,2.909,2.887,3.0842,2.9865,2.956,3.1701,3.2423,3.2435,3.1713,3.069,2.9959,2.9712,2.9446,2.8865,2.7818,2.8494,2.8627,2.7943,2.8043,2.7916,2.7458,2.7329,2.7401,2.7626,2.6867,2.6444,2.6444,2.581,2.5518,2.5518,2.637,2.6745,2.6745,2.6745,2.6648,2.6406,2.5772,2.5518,2.5518,2.5518,2.539,2.5325,2.6002,2.5929,2.5517,0.0,0.0,0.0,0.0,0.0,0.0,0.0,0.0,0.0,0.0,0.3818,0.418,0.6419,0.6933,0.6479,0.4858,0.6762,0.9057,1.1395,1.4391,1.7583,2.0953,2.1318,2.1987,2.3136,2.3167,2.3513,2.4202,2.4599,2.4801,2.4794,2.4998,2.5239,2.5458,2.5272,2.5353,2.5586,2.5317,2.5005,2.4729,2.4246,2.3722,2.3178,2.3023,2.2324,2.1213,1.9196,1.8501,1.8376,1.7634,1.788,1.8713,1.9942,1.9507,1.8396,1.783,1.5794,1.3951,1.5019,1.661,1.8456,2.0473,2.3091,2.5505,2.667,2.7704,2.8552,2.8986,2.9802,3.0574,3.0892,2.9225,2.8601,3.1157,2.9415,2.8828,3.1895,3.2117,3.151,3.0308,2.8258,2.6343,2.4907,2.6243,2.6976,2.637,2.7417,2.7701,2.692,2.6897,2.696,2.715,2.6159,2.6162,2.7278,2.6282,2.5758,2.5758,2.5758,2.5758,2.5758,2.6024,2.6118,2.6118,2.6118,2.5959,2.5758,2.5758,2.5758,2.5758,2.5642,2.5642,2.572,2.5281,2.4752,2.4162,0.0,0.0,0.0,0.0,0.0,0.0,0.0,0.0,0.0,0.0,0.0,0.0,0.0,0.4683,0.4442,0.4507,0.6299,0.8419,1.0772,1.3999,1.7158,2.0206,2.0769,2.1569,2.2801,2.2877,2.3338,2.4202,2.4599,2.4801,2.4819,2.5205,2.5407,2.5381,2.5381,2.5399,2.5399,2.5399,2.5198,2.4831,2.4247,2.3805,2.3418,2.2833,2.0932,1.8604,1.8517,1.8501,1.8073,1.5408,1.6303,1.8057,1.5458,1.6422,1.8029,1.5559,1.3161,1.2005,1.5191,1.4618,1.4567,2.0627,2.2763,2.4179,2.734,2.8689,2.9471,3.0107,3.0573,3.0991,3.1327,3.1322,3.14,3.1909,3.0659,3.0454,3.2827,3.0631,2.8607,2.8313,2.5576,2.2131,1.7999,2.1337,2.4757,2.7159,2.6019,2.5297,2.5554,2.5568,2.5581,2.5581,2.5837,2.6023,2.6062,2.6265,2.636,2.636,2.636,2.636,2.636,2.6373,2.6373,2.6373,2.6373,2.6373,2.636,2.636,2.636,2.632,2.5925,2.6043,2.632,2.5925,2.5648,2.5403,0.0,0.0,0.0,0.0,0.0,0.0,0.0,0.0,0.0,0.0,0.0,0.0,0.0,0.0,0.0,0.0,0.5557,0.7185,0.9675,1.2151,1.5312,1.9268,2.0574,2.1731,2.284,2.3014,2.3309,2.3749,2.4177,2.4322,2.4147,2.4274,2.4347,2.4394,2.4213,2.4278,2.4517,2.4242,2.3981,2.3687,2.3431,2.3172,2.2705,2.0903,1.9543,1.8199,0.0,1.3355,1.2921,1.1992,1.2338,1.332,1.3998,1.3801,1.2859,1.0492,1.2087,1.4573,1.4253,1.6722,1.9959,2.232,2.5107,2.7569,2.863,2.9665,3.0424,3.0649,2.9208,2.7988,2.8232,2.6457,2.5483,2.7088,2.591,2.6045,2.9624,2.6971,2.5313,2.7111,2.3981,2.187,2.2425,2.2378,2.2171,2.1739,2.3963,2.5491,2.5824,2.585,2.5892,2.6092,2.6199,2.6279,2.6279,2.6333,2.6386,2.6386,2.6386,2.6386,2.6386,2.6386,2.6386,2.6386,2.6386,2.6386,2.6386,2.6386,2.6386,2.6386,2.6268,2.6268,2.6386,2.6268,2.599,2.5701,0.0,0.0,0.0,0.0,0.0,0.0,0.0,0.0,0.0,0.0,0.0,0.0,0.0,0.0,0.0,0.0,0.0,0.6113,0.8495,1.0329,1.2865,1.6304,1.7766,1.8793,1.9418,2.0509,2.1184,2.1367,2.2709,2.3345,2.3341,2.3415,2.358,2.3855,2.3576,2.3614,2.3825,2.3579,2.3372,2.3106,2.1999,2.1428,2.1002,1.8351,1.6707,0.0,1.2067,1.0023,0.8908,0.8908,0.9611,1.0603,1.1162,1.0476,0.9629,1.0332,1.2879,1.5605,1.6372,1.9973,2.3797,2.5123,2.7477,2.957,2.9828,3.0312,3.0782,3.1041,2.9126,2.7251,2.67,2.4421,2.3164,2.4844,2.3688,2.4008,2.8234,2.5654,2.3943,2.5653,2.3033,2.1558,2.2859,2.2389,2.1478,2.0212,2.2745,2.4483,2.4918,2.4838,2.5285,2.636,2.6386,2.6386,2.6386,2.6386,2.6386,2.6386,2.6386,2.6386,2.6386,2.6386,2.5908,2.5103,2.5987,2.5894,2.5116,2.6001,2.6386,2.6386,2.6228,2.6188,2.6149,2.599,2.5753,2.5554,0.0,0.0,0.0,0.0,0.0,0.0,0.0,0.0,0.0,0.0,0.0,0.0,0.0,0.0,0.0,0.0,0.0,0.0,0.7239,0.8612,1.008,1.1737,1.2802,1.3322,1.3189,1.5756,1.7149,1.7286,2.0107,2.1712,2.2062,2.2283,2.2737,2.3314,2.3061,2.2962,2.2962,2.2955,2.2938,2.267,1.9792,1.8633,1.8327,1.5328,1.2652,1.0485,1.0356,0.863,0.6395,0.6414,0.8259,1.0099,0.7656,0.7293,0.8882,1.4557,1.5255,1.5396,2.1024,2.3799,2.579,2.8647,2.9593,3.0018,3.075,3.062,3.0487,3.102,2.9866,2.8167,2.6219,2.4652,2.3924,2.4813,2.3592,2.4036,2.8201,2.62,2.4183,2.3889,2.262,2.1163,1.9681,2.1526,2.273,2.2521,2.2458,2.2635,2.3132,2.2947,2.3894,2.6333,2.6386,2.6386,2.6386,2.6386,2.6386,2.6386,2.6386,2.6386,2.6386,2.6386,2.509,2.2943,2.5353,2.5012,2.2982,2.5393,2.6386,2.6347,2.6004,2.5845,2.5818,2.5367,2.5208,2.5248,0.0,0.0,0.0,0.0,0.0,0.0,0.0,0.0,0.0,0.0,0.0,0.0,0.0,0.0,0.0,0.0,0.0,0.0,0.5586,0.7536,0.9207,1.0432,1.2118,1.3091,1.3204,1.402,1.4446,1.4375,1.5619,1.6216,1.6179,1.6684,1.6939,1.6936,1.6986,1.6994,1.6973,1.6786,1.6603,1.6398,1.5624,1.5322,1.5052,1.2525,1.1111,1.0269,0.852,0.7241,0.6438,0.6635,0.8523,1.1114,1.2977,1.3762,1.3999,1.3951,1.7121,2.0615,2.0554,2.4105,2.8194,2.9749,3.0192,3.0361,3.0815,3.0213,2.9156,2.7677,2.4272,2.0973,1.9019,1.6443,1.577,1.9296,1.8262,1.8513,2.2736,2.1206,2.0329,2.2071,2.2144,2.2653,2.4122,2.4984,2.4712,2.3015,2.4411,2.5405,2.5512,2.5446,2.5722,2.6373,2.6386,2.6386,2.6386,2.6386,2.6386,2.6386,2.6386,2.6386,2.6386,2.6386,2.6067,2.5484,2.612,2.6014,2.5498,2.6133,2.6386,2.6413,2.6507,2.6547,2.6573,2.6678,2.6513,2.6216,0.0,0.0,0.0,0.0,0.0,0.0,0.0,0.0,0.0,0.0,0.0,0.0,0.0,0.0,0.0,0.0,0.0,0.0,0.0,0.6188,0.711,0.7656,0.8721,0.9344,0.9475,1.0536,1.1064,1.1034,1.2548,1.3432,1.3737,1.4076,1.4433,1.477,1.4702,1.4675,1.4699,1.4559,1.4417,0.0,0.0,1.2499,1.2297,0.9758,0.8827,0.8711,0.7391,0.6852,0.7149,0.9452,1.0687,1.2033,1.6526,1.7501,1.7305,1.8805,2.1492,2.3978,2.397,2.6798,2.9869,3.0469,3.062,3.0288,2.9062,2.8087,2.673,2.393,2.0653,1.7647,1.558,1.3426,1.317,1.6916,1.6735,1.7359,2.0825,2.0246,2.0049,2.1716,2.2095,2.3242,2.5932,2.6293,2.5855,2.4609,2.4646,2.4789,2.4921,2.4803,2.5222,2.636,2.6386,2.6386,2.6386,2.6386,2.6386,2.6386,2.6386,2.6386,2.6386,2.6386,2.5776,2.4789,2.6054,2.5948,2.5052,2.6307,2.6774,2.6787,2.6947,2.6893,2.6744,2.6916,2.6723,2.6326,0.0,0.0,0.0,0.0,0.0,0.0,0.0,0.0,0.0,0.0,0.0,0.0,0.0,0.0,0.0,0.0,0.0,0.0,0.0,0.0,0.4854,0.4737,0.4733,0.4727,0.4699,0.6587,0.761,0.7654,0.9915,1.1459,1.2289,1.2352,1.2876,1.3755,1.3552,1.3481,1.3497,1.354,1.3526,1.3239,1.0752,0.986,0.9788,0.0,0.6663,0.6883,0.6825,0.6992,0.7976,1.2907,1.3568,1.3335,1.9143,2.0103,2.0047,2.5103,2.6184,2.6194,2.8237,2.98,3.0815,3.07,3.0635,2.9825,2.6837,2.5384,2.3756,2.0404,1.8139,1.62,1.431,1.3332,1.3716,1.6491,1.7288,1.8236,2.0151,2.0953,2.1478,2.1742,2.2056,2.3343,2.612,2.6146,2.6053,2.6373,2.4359,2.3226,2.3424,2.3252,2.4138,2.6333,2.6386,2.6386,2.6386,2.6386,2.6386,2.6386,2.6386,2.6386,2.6386,2.6426,2.5235,2.3278,2.5777,2.5633,2.387,2.6308,2.7309,2.7309,2.7349,2.7076,2.6665,2.6691,2.647,2.603,0.0,0.0,0.0,0.0,0.0,0.0,0.0,0.0,0.0,0.0,0.3958,0.3424,0.0,0.0,0.0,0.0,0.0,0.0,0.0,0.0,0.0,0.4859,0.4917,0.4869,0.4699,0.5127,0.5334,0.5289,0.5739,0.6135,0.6464,0.6907,0.7156,0.7255,0.7798,0.7937,0.7748,0.798,0.7885,0.753,0.7031,0.6984,0.716,0.6673,0.6832,0.0,0.6918,0.6835,0.7658,1.2727,1.4944,1.6565,2.2258,2.4461,2.4878,2.4182,2.6159,2.8237,2.6606,2.8275,3.0328,2.9739,2.9347,2.8704,2.7247,2.4409,2.1308,1.8726,1.5431,1.2988,1.2808,1.2805,1.3753,1.6671,1.7356,1.7141,1.6003,1.9228,2.1159,1.9657,2.1218,2.3486,2.6159,2.4701,2.4372,2.6266,2.5974,2.5762,2.5815,2.5762,2.5934,2.6373,2.6386,2.6386,2.6386,2.6386,2.6386,2.6386,2.6386,2.6386,2.64,2.664,2.6467,2.6095,2.6867,2.6987,2.6614,2.7094,2.7309,2.7336,2.7522,2.7339,2.6963,2.7239,2.7036,2.6643,0.0,0.0,0.0,0.0,0.0,0.0,0.0,0.549,0.4736,0.4753,0.4471,0.4104,0.3613,0.3466,0.3454,0.0,0.0,0.0,0.0,0.0,0.0,0.5007,0.4896,0.4816,0.4755,0.4684,0.4843,0.5269,0.0,0.5012,0.562,0.5529,0.562,0.5868,0.6192,0.6341,0.6355,0.6491,0.6431,0.6249,0.6183,0.6294,0.6524,0.6739,0.712,0.0,0.7064,0.6985,0.7679,1.1389,1.3285,1.5351,2.2542,2.5835,2.6567,2.4036,2.6422,2.9217,2.6291,2.8013,3.0458,2.9543,2.9134,2.7842,2.3466,2.0946,1.8278,1.3875,1.1307,0.9901,1.0032,1.026,1.1749,1.5818,1.6882,1.7363,1.7848,1.9991,2.1316,2.07,2.1647,2.299,2.469,2.3839,2.3667,2.4756,2.4836,2.531,2.6346,2.6386,2.6386,2.6386,2.6386,2.6386,2.6386,2.6386,2.6386,2.6386,2.6386,2.6466,2.6613,2.676,2.6907,2.7068,2.7362,2.684,2.583,2.6942,2.6688,2.5701,2.6796,2.7097,2.6913,2.7084,2.7008,2.6796,0.0,0.0,0.0,0.0,0.0,0.0,0.0,0.5945,0.5284,0.4956,0.4996,0.4813,0.4205,0.3798,0.3613,0.0,0.0,0.0,0.0,0.0,0.0,0.0,0.0,0.0,0.4839,0.0,0.0,0.5864,0.5313,0.0,0.0,0.0,0.0,0.0,0.6012,0.6162,0.6322,0.6423,0.6436,0.0,0.0,0.6406,0.6616,0.0,0.0,0.0,0.0,0.7123,0.7634,1.0059,1.1295,1.3092,2.0557,2.4084,2.5224,2.3879,2.6241,2.8895,2.7146,2.88,3.0732,2.9609,2.9068,2.7074,2.0411,1.8031,1.5734,1.0286,0.844,0.797,0.8529,0.8776,1.0437,1.5157,1.6019,1.7059,1.9791,2.0471,2.1056,2.2082,2.2233,2.2736,2.3931,2.3605,2.3526,2.3997,2.4024,2.4743,2.6319,2.6386,2.6386,2.6386,2.6386,2.6386,2.6386,2.6386,2.6386,2.6386,2.6453,2.66,2.6787,2.6907,2.7134,2.7416,2.7669,2.6507,2.4567,2.6643,2.6138,2.4189,2.6061,2.6753,2.6656,2.6656,2.6571,2.6456,0.0,0.0,0.0,0.0,0.0,0.0,0.0,0.6347,0.5539,0.5913,0.5507,0.5203,0.5251,0.458,0.3958,0.0,0.0,0.0,0.0,0.0,0.0,0.0,0.0,0.0,0.0,0.0,0.0,0.608,0.612,0.0,0.0,0.0,0.0,0.0,0.0,0.6182,0.6061,0.6494,0.0,0.0,0.0,0.0,0.0,0.0,0.0,0.0,0.0,0.6988,0.7225,0.9712,1.083,1.1824,1.5557,1.7619,1.939,2.2966,2.4811,2.6387,2.9529,3.086,3.1023,2.9641,2.8295,2.6195,2.2053,1.8196,1.4763,1.1985,0.9485,0.8529,1.0902,1.1213,1.2247,1.578,1.4765,1.4545,1.7415,1.8326,1.9543,2.1931,2.2371,2.342,2.5893,2.4242,2.3888,2.5973,2.6107,2.6213,2.6386,2.6386,2.6386,2.6386,2.6386,2.6386,2.6386,2.6386,2.6386,2.6386,2.6653,2.68,2.68,2.7375,2.7629,2.7669,2.8018,2.6813,2.4806,2.6721,2.6138,2.4189,2.6061,2.6528,2.6146,2.6146,2.589,2.5519,0.0,0.0,0.0,0.0,0.0,0.0,0.7598,0.6915,0.6328,0.6075,0.6008,0.584,0.5441,0.5262,0.494,0.4385,0.0,0.0,0.0,0.0,0.0,0.0,0.0,0.0,0.0,0.0,0.5533,0.6282,0.606,0.0,0.0,0.0,0.0,0.0,0.0,0.6411,0.6588,0.6455,0.0,0.0,0.0,0.0,0.0,0.0,0.0,0.0,0.0,0.0,0.7059,0.8005,0.8522,0.899,1.0345,1.124,1.2526,1.636,2.1022,2.4698,2.3589,2.6624,2.9591,2.7303,2.627,2.4419,1.8975,1.6457,1.4204,1.0377,0.8644,0.8211,0.9528,0.9604,1.0476,1.3544,1.3466,1.4485,1.8729,1.9678,2.1019,2.3855,2.4242,2.4372,2.4597,2.3773,2.3641,2.452,2.4465,2.494,2.6319,2.6386,2.6386,2.6386,2.6386,2.6386,2.6386,2.6149,2.6149,2.6386,2.644,2.6665,2.7108,2.7509,2.7789,2.7976,2.7844,2.5793,2.2804,2.5526,2.4623,2.1829,2.4804,2.586,2.569,2.569,2.5562,2.5391,0.0,0.0,0.0,0.0,0.0,0.8076,0.7698,0.7322,0.6875,0.6359,0.6406,0.6279,0.5782,0.5896,0.5836,0.5383,0.5337,0.0,0.0,0.0,0.0,0.0,0.0,0.0,0.0,0.0,0.5893,0.6961,0.6606,0.6804,0.0,0.0,0.661,0.6293,0.0,0.0,0.0,0.0,0.0,0.0,0.0,0.0,0.0,0.0,0.0,0.0,0.0,0.0,0.0,0.0,0.0,0.7112,0.7147,0.7298,0.82,1.2081,1.7901,2.2566,2.0213,2.4166,2.8404,2.6011,2.4586,2.24,1.7032,1.4939,1.3019,0.9019,0.7987,0.7946,0.8415,0.8328,0.9153,1.2034,1.2651,1.4363,1.8899,1.9771,2.1097,2.4166,2.4507,2.4454,2.4285,2.4272,2.4272,2.4272,2.4014,2.4528,2.6148,2.607,2.6109,2.6386,2.6268,2.6268,2.6386,2.599,2.599,2.6386,2.6493,2.6413,2.6307,2.7375,2.7615,2.7186,2.7381,2.5413,2.2239,2.4954,2.3985,2.1051,2.4202,2.5391,2.5391,2.5391,2.5391,2.5391,0.0,0.0,0.0,0.0,0.0,0.0,0.8014,0.7428,0.7002,0.6995,0.6649,0.6421,0.649,0.649,0.6467,0.6398,0.5472,0.0,0.0,0.0,0.0,0.0,0.0,0.0,0.0,0.0,0.7215,0.8285,0.8208,0.8317,0.8572,0.8095,0.7564,0.6983,0.0,0.0,0.0,0.0,0.0,0.0,0.0,0.0,0.0,0.0,0.0,0.0,0.0,0.0,0.0,0.0,0.0,0.0,0.0,0.6612,0.752,1.2142,1.6158,1.9604,2.2097,2.544,2.7899,2.6615,2.3626,2.0335,1.7592,1.4122,1.0814,0.8661,0.7987,0.7946,0.8415,0.8328,0.9153,1.2034,1.2509,1.3606,1.6782,1.7418,1.8709,2.188,2.2212,2.3321,2.6093,2.636,2.636,2.636,2.6004,2.5766,2.5792,2.5368,2.5527,2.6386,2.603,2.599,2.6386,2.599,2.599,2.64,2.6974,2.6081,2.3951,2.6867,2.6947,2.4832,2.6695,2.6164,2.4074,2.5516,2.4759,2.2852,2.4697,2.5391,2.5391,2.5391,2.5391,2.5391,0.0,0.0,0.0,0.0,0.0,0.0,0.0,0.7849,0.7622,0.7251,0.7174,0.7117,0.6987,0.6862,0.6756,0.6679,0.6209,0.0,0.0,0.0,0.0,0.0,0.0,0.0,0.0,0.0,0.7413,0.8296,0.8285,0.8589,0.9221,0.9066,0.8539,0.7767,0.7919,0.8152,0.0,0.0,0.0,0.0,0.0,0.0,0.7142,0.0,0.0,0.0,0.0,0.0,0.0,0.0,0.0,0.0,0.0,0.0,0.0,0.8149,1.1412,1.4638,1.467,1.7587,2.0291,1.8933,1.7717,1.6215,1.3508,1.1986,1.0531,0.8376,0.7849,0.7946,0.8415,0.8452,0.9302,1.2037,1.2497,1.4121,1.8792,1.9522,2.076,2.405,2.4812,2.5418,2.6319,2.5004,2.4615,2.5885,2.4399,2.4118,2.5714,2.5673,2.5713,2.599,2.5872,2.599,2.6386,2.599,2.6083,2.6694,2.6783,2.5885,2.4238,2.6947,2.6933,2.4806,2.6682,2.6177,2.4099,2.5516,2.4772,2.2877,2.4709,2.5391,2.5391,2.5391,2.5391,2.5391,0.0,0.0,0.0,0.0,0.0,0.0,0.0,0.807,0.7876,0.7559,0.7447,0.7318,0.7099,0.6942,0.6784,0.6618,0.6451,0.0,0.0,0.0,0.0,0.0,0.0,0.0,0.0,0.7699,0.7883,0.8936,0.8817,0.9191,1.0019,0.9853,0.9337,0.8588,0.8599,0.8807,0.0,0.0,0.0,0.0,0.0,0.0,0.7269,0.0,0.0,0.0,0.0,0.0,0.0,0.0,0.0,0.0,0.0,0.0,0.0,0.0,0.7861,1.0139,1.0531,1.3547,1.627,1.497,1.4078,1.3034,1.1241,1.0301,0.9411,0.8069,0.8477,0.8964,0.8576,0.9119,0.9985,1.1083,1.2518,1.4558,1.7632,1.8627,2.0017,2.2688,2.4093,2.5259,2.6306,2.5124,2.4785,2.5938,2.4516,2.4272,2.5727,2.5475,2.5356,2.5514,2.5713,2.5911,2.6149,2.5753,2.5896,2.6586,2.6592,2.578,2.4383,2.6986,2.6933,2.4806,2.6682,2.6687,0.0,2.6079,2.5397,2.4096,2.5226,2.5562,2.5391,2.5391,2.5391,2.5348,0.0,0.0,0.0,0.0,0.0,0.0,0.0,0.8119,0.7867,0.792,0.7549,0.7196,0.7012,0.6912,0.6724,0.6391,0.0,0.0,0.0,0.0,0.0,0.0,0.0,0.0,0.8704,0.8167,0.8567,0.9995,0.9685,1.0006,1.0913,1.0479,0.9974,0.9413,0.8943,0.9163,0.0,0.0,0.0,0.0,0.8037,0.7683,0.0,0.0,0.0,0.0,0.0,0.0,0.0,0.0,0.0,0.0,0.0,0.0,0.0,0.0,0.0,0.0,0.0,1.244,1.4825,1.3856,1.2139,1.0658,1.0414,0.902,0.0,0.8022,0.9728,1.0695,0.9045,1.037,1.1228,0.9677,1.2634,1.4918,1.4314,1.5832,1.7476,1.8763,2.1101,2.3533,2.596,2.6319,2.6386,2.6347,2.603,2.5792,2.5792,2.505,2.4771,2.517,2.5634,2.5792,2.5753,2.5368,2.5433,2.5961,2.6418,2.5727,2.4135,2.692,2.6933,2.4806,2.6723,2.7529,2.7487,2.705,2.6571,2.6146,2.6103,2.5848,2.5433,2.5391,2.5391,2.5348,0.0,0.0,0.0,0.0,0.0,0.0,0.0,0.0,0.0,0.0,0.8069,0.7947,0.7896,0.7652,0.7366,0.0,0.0,0.0,0.0,0.0,0.0,0.0,0.0,0.0,0.8704,0.8668,0.9096,0.9995,0.9922,1.0346,1.1192,1.1094,1.0558,0.9721,1.0058,1.0309,0.0,0.0,0.0,0.0,0.871,0.8188,0.0,0.0,0.0,0.0,0.7432,0.7593,0.0,0.0,0.0,0.0,0.0,0.0,0.0,0.0,0.551,0.5977,0.701,0.0,0.8804,0.8769,0.838,0.7995,0.0,0.7692,0.8082,1.0119,1.0912,1.1207,1.1244,1.2705,1.3403,1.1959,1.3933,1.5795,1.6304,1.8937,2.0381,1.9251,2.2854,2.5099,2.4192,2.5483,2.6268,2.5951,2.5872,2.5792,2.5792,2.5594,2.5673,2.607,2.6188,2.5951,2.5289,2.5514,2.4972,2.3606,2.6017,2.5212,2.1779,2.6188,2.6933,2.4806,2.7037,2.7812,2.7487,2.7389,2.705,2.6613,2.6231,2.6018,2.589,2.5519,2.5391,2.5391,0.0,0.0,0.0,0.0,0.0,0.0,0.0,0.0,0.0,0.0,0.0,0.0,0.0,0.0,0.0,0.0,0.0,0.0,0.0,0.0,0.0,0.0,0.0,0.8734,0.8612,0.869,0.9116,0.9904,0.9961,1.0383,1.1116,1.1116,1.0726,1.0054,1.0503,1.0551,0.0,0.0,0.0,0.0,0.8969,0.0,0.0,0.0,0.0,0.0,0.7587,0.7696,0.0,0.7122,0.7116,0.7205,0.0,0.0,0.0,0.0,0.5482,0.5892,0.6103,0.637,0.6902,0.8353,0.7891,0.7375,0.8455,0.8128,0.8303,1.0863,1.1372,1.1501,1.2011,1.2863,1.3205,1.2358,1.3495,1.499,1.653,1.8693,1.9794,1.8854,2.1347,2.2988,2.2669,2.4543,2.57,2.5502,2.5462,2.5673,2.607,2.5911,2.5911,2.6109,2.5911,2.5686,2.5395,2.5673,2.4777,2.2816,2.5623,2.5359,2.2532,2.6441,2.7494,2.6321,2.6494,2.7064,2.7733,2.6646,2.6557,2.7093,2.6838,2.6486,2.6061,2.5805,2.5562,2.5348,0.0,0.0,0.0,0.0,0.0,0.0,0.0,0.0,0.0,0.0,0.0,0.0,0.0,0.0,0.0,0.0,0.0,0.0,0.0,0.0,0.0,0.0,0.8317,0.8633,0.849,0.8436,0.8849,0.9718,0.9832,1.024,1.0872,1.0909,1.0752,1.0429,1.0609,1.0407,0.0,0.0,0.0,0.9517,0.899,0.0,0.0,0.0,0.0,0.0,0.0,0.0,0.0,0.7122,0.7086,0.7157,0.6248,0.0,0.0,0.0,0.0,0.0,0.5908,0.6163,0.7116,0.9906,0.8833,0.7726,1.0119,0.9177,0.8593,1.1338,1.198,1.2146,1.2511,1.3162,1.3274,1.2098,1.2672,1.3979,1.6013,1.7325,1.8064,1.7986,1.9293,2.0573,2.1589,2.3757,2.5025,2.4905,2.5025,2.5422,2.6149,2.599,2.5872,2.5872,2.5356,2.5356,2.5872,2.5832,2.4751,2.2752,2.544,2.5832,2.4317,2.7014,2.8179,2.8085,2.6096,2.6361,2.8045,2.6056,2.6175,2.7614,2.7529,2.7008,2.6316,2.6146,2.5848,2.5348,0.0,0.0,0.0,0.0,0.0,0.0,0.0,0.0,0.0,0.0,0.0,0.0,0.0,0.0,0.0,0.0,0.0,0.0,0.0,0.0,0.0,0.8092,0.8489,0.8612,0.8424,0.8199,0.8504,0.9382,0.9393,0.9866,1.075,1.0956,1.1049,1.0969,1.0657,1.0537,1.0551,0.0,1.0322,0.9778,0.9018,0.0,0.0,0.0,0.0,0.0,0.0,0.0,0.0,0.7089,0.7303,0.7567,0.6249,0.0,0.0,0.0,0.0,0.0,0.5832,0.6268,0.7288,0.9936,0.8833,0.7771,1.0355,0.9314,0.9019,1.3391,1.4425,1.4556,1.463,1.7766,1.8473,1.2813,1.3646,1.5292,1.6112,1.8056,1.8802,1.7131,2.1239,2.3493,2.1715,2.3705,2.4773,2.4056,2.4694,2.5144,2.5303,2.5951,2.6307,2.6307,2.5502,2.5502,2.6307,2.599,2.4647,2.2422,2.5674,2.6055,2.4063,2.692,2.8179,2.8165,2.7802,2.7856,2.8165,2.7802,2.7814,2.8065,2.7643,2.7402,2.7177,2.6401,2.6061,2.5805,0.0,0.0,0.0,0.0,0.0,0.0,0.0,0.0,0.0,0.0,0.0,0.0,0.0,0.0,0.0,0.0,0.0,0.0,0.0,0.0,0.8113,0.8357,0.852,0.8551,0.8449,0.8543,0.8913,0.9575,0.9575,1.0021,1.0917,1.1048,1.0952,1.0677,1.0631,1.0505,1.0335,1.0522,1.025,0.964,0.0,0.0,0.0,0.0,0.0,0.0,0.0,0.0,0.0,0.0,0.7127,0.7458,0.6199,0.0,0.0,0.0,0.0,0.0,0.5641,0.6109,0.7461,1.1308,0.9868,0.8763,1.3676,1.127,0.9671,1.5529,1.4076,1.2482,1.4882,1.5791,1.5635,1.3959,1.6419,1.824,1.7465,1.8427,1.8823,1.7752,2.0662,2.2112,2.0385,2.2354,2.36,2.3187,2.352,2.4028,2.4746,2.5144,2.5581,2.607,2.5224,2.5303,2.6386,2.574,2.4507,2.2709,2.5645,2.5909,2.3997,2.6693,2.8031,2.8125,2.684,2.7026,2.8098,2.6826,2.7053,2.8192,2.7981,2.7728,2.7389,2.6443,2.5763,2.5208,0.0,0.0,0.0,0.0,0.0,0.0,0.0,0.0,0.0,0.0,0.0,0.0,0.0,0.0,0.0,0.0,0.0,0.0,0.0,0.0,0.8372,0.8657,0.8561,0.849,0.848,0.8807,0.9175,0.9537,0.9636,1.0108,1.0906,1.0985,1.0772,1.0337,1.0498,1.0358,1.0046,1.0381,1.0087,0.9377,0.0,0.0,0.0,0.0,0.0,0.0,0.0,0.0,0.0,0.0,0.0,0.0,0.0,0.0,0.0,0.5206,0.5198,0.5577,0.5588,0.6027,0.7513,1.1883,1.0325,0.9536,1.6523,1.2958,1.0128,1.6954,1.41,1.1521,1.5295,1.3956,1.3125,1.5688,1.8461,1.9932,1.8901,1.8928,1.9054,1.8995,2.0322,2.0863,1.9859,2.1496,2.2527,2.2326,2.2487,2.3038,2.3988,2.4427,2.4866,2.5303,2.4666,2.4786,2.5779,2.5144,2.447,2.3809,2.5854,2.6041,2.4653,2.6733,2.7746,2.7656,2.6162,2.64,2.7764,2.6162,2.66,2.8179,2.8179,2.7897,2.7389,2.6443,2.5507,2.4621,0.0,0.0,0.0,0.0,0.0,0.0,0.0,0.0,0.0,0.0,0.0,0.0,0.0,0.0,0.0,0.0,0.0,0.0,0.0,0.0,0.9006,0.9148,0.8734,0.847,0.8414,0.8569,0.8688,0.877,0.9155,0.9675,1.0363,1.0609,1.0645,1.0474,1.025,1.0126,1.0092,1.0046,0.9659,0.9026,0.896,0.0,0.0,0.0,0.0,0.0,0.0,0.0,0.0,0.0,0.0,0.0,0.0,0.0,0.6164,0.5329,0.5413,0.579,0.5843,0.6263,0.7343,1.013,0.9119,0.9348,1.6689,1.3092,1.0101,1.6841,1.6323,1.5239,1.7101,1.6074,1.5779,1.8396,1.8107,1.8169,1.9838,1.9962,2.0139,2.0723,2.1788,2.2276,2.1734,2.2247,2.2245,2.1438,2.2124,2.2648,2.2728,2.4188,2.4694,2.3976,2.3896,2.3896,2.3976,2.3936,2.4671,2.6172,2.6573,2.672,2.6614,2.7375,2.7252,2.6485,2.7493,2.7541,2.6953,2.7654,2.8045,2.8179,2.8179,2.7897,2.7389,2.6443,2.5507,2.4578,0.0,0.0,0.0,0.0,0.0,0.0,0.0,0.0,0.0,0.0,0.0,0.0,0.0,0.0,0.0,0.0,0.0,0.0,0.0,0.9194,0.8887,0.8363,0.8511,0.8468,0.8157,0.902,0.9486,0.9519,0.9709,1.0006,1.0422,1.0624,1.0636,1.0511,1.0483,1.0319,1.0018,0.9962,0.9791,0.95,0.8847,0.8437,0.0,0.0,0.0,0.0,0.0,0.0,0.0,0.0,0.6527,0.6424,0.5829,0.575,0.5816,0.5542,0.5511,0.5606,0.5886,0.6344,0.7647,1.1374,1.0125,0.9881,1.701,1.4288,1.2199,1.9019,1.6648,1.348,1.3902,1.5265,1.663,1.7511,1.8142,1.8799,1.9715,1.9665,1.9815,2.048,2.1286,2.172,2.1559,2.168,2.164,2.1316,2.1599,2.1882,2.2164,2.2757,2.3187,2.344,2.2906,2.2987,2.3776,2.3015,2.3336,2.4786,2.5976,2.6653,2.6787,2.6513,2.6362,2.6292,2.6268,2.6449,2.6838,2.7165,2.7672,2.8179,2.8179,2.7714,2.7008,2.6358,2.5336,2.4235,0.0,0.0,0.0,0.0,0.0,0.0,0.0,0.0,0.0,0.0,0.0,0.0,0.0,0.0,0.0,0.0,0.0,0.0,0.9703,0.9393,0.8944,0.8307,0.8584,0.8598,0.8226,0.9301,0.977,0.9597,0.9911,1.0159,1.0354,1.0597,1.066,1.0542,1.0357,1.0157,0.9948,0.971,0.9549,0.9365,0.8673,0.8255,0.0,0.0,0.0,0.0,0.0,0.0,0.0,0.0,0.6278,0.6117,0.5743,0.5674,0.5736,0.5816,0.577,0.5772,0.6054,0.6446,0.7677,1.1465,1.0367,1.014,1.7033,1.4909,1.324,1.9406,1.7681,1.4726,1.3556,1.5515,1.7109,1.6591,1.7448,1.8453,1.9381,1.9394,1.9638,2.0506,2.1018,2.1316,2.1316,2.1316,2.1316,2.1316,2.1316,2.1438,2.172,2.1963,2.2285,2.2608,2.2285,2.2355,2.2786,2.2343,2.2504,2.3216,2.4826,2.5804,2.624,2.5809,2.5618,2.5612,2.545,2.5719,2.6318,2.6867,2.7509,2.8179,2.7883,2.7389,2.6698,2.5805,2.4866,2.4021,0.0,0.0,0.0,0.0,0.0,0.0,0.0,0.0,0.0,0.0,0.0,0.0,0.0,0.0,0.0,0.0,0.0,0.0,1.1125,1.0001,0.9307,0.93,0.9035,0.8832,0.8687,0.9296,0.9313,0.873,0.9569,0.9995,1.0012,1.0477,1.0696,1.0643,0.974,0.9553,0.9857,0.9266,0.8785,0.8399,0.8387,0.7749,0.6805,0.0,0.0,0.0,0.0,0.0,0.0,0.0,0.624,0.59,0.59,0.5946,0.602,0.6113,0.6261,0.6401,0.6429,0.6567,0.7315,0.987,0.936,0.9981,1.6639,1.4703,1.2802,1.726,1.9731,2.0145,1.7207,1.7337,1.7456,1.6132,1.5899,1.6713,1.8978,1.929,1.9779,2.1141,2.1316,2.1316,2.1316,2.1316,2.1316,2.1316,2.1316,2.1316,2.1316,2.2124,2.2205,2.1316,2.2124,2.1963,2.0627,2.1922,2.2355,2.1889,2.3175,2.4255,2.5104,2.5437,2.5079,2.4251,2.5448,2.5641,2.5233,2.6989,2.7869,2.8094,2.7165,2.6783,2.6571,2.4749,2.4106,2.3935,0.0,0.0,0.0,0.0,0.0,0.0,0.0,0.0,0.0,0.0,0.0,0.0,0.0,0.0,0.0,0.0,0.0,0.0,1.0783,1.0122,0.9487,0.8967,0.8868,0.87,0.843,0.9102,0.9668,1.0103,0.9848,1.0126,1.0918,1.0764,1.0455,1.0079,1.1859,1.1382,0.9279,1.0568,1.0059,0.8335,0.7576,0.7112,0.0,0.0,0.0,0.0,0.0,0.0,0.0,0.0,0.0,0.0,0.5928,0.6022,0.6445,0.8358,0.766,0.6706,0.8788,0.8227,0.7636,1.0094,1.0796,1.1374,1.3333,1.3704,1.4406,1.6982,1.7524,1.6947,1.5156,1.6188,1.701,1.606,1.6493,1.7487,1.9091,1.929,1.9779,2.1141,2.1316,2.1316,2.1316,2.1316,2.1316,2.1316,2.1316,2.1316,2.1316,2.1559,2.1559,2.1316,2.1559,2.1478,2.1114,2.1154,2.1276,2.1467,2.2142,2.3055,2.4175,2.3712,2.341,2.326,2.3001,2.3627,2.4882,2.6869,2.7493,2.7165,2.691,2.6018,2.4835,2.4321,2.3677,2.3074,0.0,0.0,0.0,0.0,0.0,0.0,0.0,0.0,0.0,0.0,0.0,0.0,0.0,0.0,0.0,0.0,0.0,0.0,0.0,0.983,0.9205,0.8631,0.8768,0.8781,0.8585,0.916,0.9735,1.0251,0.9866,1.0058,1.0774,1.0682,1.0294,0.9785,1.1517,1.0971,0.8754,0.9743,0.9207,0.7628,0.6984,0.671,0.6689,0.0,0.0,0.0,0.0,0.0,0.0,0.0,0.0,0.0,0.6155,0.6894,0.7843,0.8605,0.8384,0.8239,0.9877,0.935,0.9108,1.2212,1.2296,1.1778,1.2382,1.3514,1.5004,1.7066,1.7408,1.6954,1.559,1.6632,1.7429,1.6611,1.7009,1.7769,1.8807,1.9161,1.9708,2.0761,2.1141,2.1316,2.1316,2.1316,2.1316,2.1316,2.1316,2.1316,2.1316,2.1316,2.1316,2.1316,2.1316,2.1195,2.1033,2.0911,2.0911,2.1033,2.1467,2.2061,2.2786,2.2636,2.2688,2.2744,2.2356,2.2988,2.443,2.5833,2.6096,2.5665,2.5507,2.478,2.3806,2.3591,2.3204,2.2686,0.0,0.0,0.0,0.0,0.0,0.0,0.0,0.0,0.0,0.0,0.9582,0.0,0.0,0.0,0.0,0.0,0.0,0.0,0.0,0.0,0.8676,0.8423,0.8792,0.9011,0.9055,0.9397,0.9613,0.9647,0.9759,0.9909,1.0057,1.0383,1.0209,0.9699,0.9834,0.9296,0.83,0.7846,0.7254,0.6623,0.6564,0.6465,0.6369,0.639,0.0,0.0,0.0,0.0,0.0,0.0,0.0,0.0,0.6471,0.8014,0.9462,0.7709,0.8694,1.032,1.0243,1.0136,1.0958,1.482,1.3364,1.1488,1.3455,1.4072,1.4942,1.7394,1.8534,1.8747,1.7597,1.7987,1.8243,1.754,1.7388,1.7616,1.83,1.8925,1.9539,2.0201,2.0884,2.1316,2.1316,2.1316,2.1316,2.1316,2.1316,2.1316,2.1316,2.1316,2.1316,2.1316,2.1316,2.1114,2.0668,2.1073,2.1073,2.0668,2.1114,2.1316,2.1316,2.2124,2.2487,2.2498,2.2807,2.3253,2.3808,2.4209,2.4171,2.3858,2.3494,2.3333,2.3204,2.2816,2.2643,2.2686,0.0,0.0,0.0,0.0,0.0,0.0,0.0,0.0,0.0,0.0,0.0,0.0,0.0,0.0,0.0,0.0,0.0,0.0,0.0,0.0,0.8884,0.9228,0.9038,0.9096,0.9459,0.9453,0.9628,0.9984,1.0024,1.0199,1.054,1.0625,1.0282,0.9684,1.1311,1.046,0.7847,0.9072,0.8488,0.6724,0.6289,0.6104,0.6096,0.6258,0.6323,0.0,0.0,0.0,0.0,0.0,0.0,0.0,0.6435,0.6882,0.7709,0.9083,0.9652,1.0258,1.2136,1.114,0.9914,1.1445,1.1336,1.1916,1.6024,1.6154,1.5893,1.755,1.7354,1.6987,1.7359,1.754,1.7616,1.7426,1.7388,1.7616,1.83,1.8925,1.9539,2.0201,2.0884,2.1316,2.1316,2.1316,2.1316,2.1316,2.1316,2.1316,2.1316,2.1316,2.1316,2.1316,2.1316,2.1235,2.1154,2.1235,2.1235,2.1154,2.1235,2.1316,2.1316,2.1478,2.1599,2.1599,2.229,2.2724,2.3007,2.373,2.3599,2.2977,2.2891,2.2643,2.2298,2.2211,2.2384,2.2686,0.0,0.0,0.0,0.0,0.0,0.0,0.0,0.0,0.0,0.0,0.0,0.0,0.0,0.0,0.0,0.0,0.0,0.0,0.0,0.0,0.8894,0.925,0.9237,0.9242,0.9259,0.9545,0.9597,0.9428,0.9843,1.0165,1.0369,1.0276,0.9878,0.9295,1.015,0.9367,0.745,0.8101,0.7694,0.6564,0.6058,0.6003,0.6225,0.61,0.616,0.6325,0.6468,0.0,0.0,0.0,0.0,0.0,0.0,0.0,0.8425,0.872,0.9285,1.0035,1.1172,1.1102,1.1045,1.2524,1.3406,1.4313,1.5832,1.6288,1.6589,1.7233,1.7214,1.7132,1.736,1.7388,1.7388,1.7388,1.7388,1.7502,1.7885,1.8465,1.9112,1.9758,2.0394,2.0945,2.1265,2.1316,2.1316,2.1316,2.1316,2.1316,2.1316,2.1316,2.1316,2.1316,2.1316,2.1316,2.1316,2.1316,2.1316,2.1316,2.1316,2.1316,2.1316,2.1316,2.1316,2.1316,2.1761,2.1878,2.1845,2.2203,2.2011,2.1581,2.164,2.1562,2.1345,2.1562,2.1952,2.2341,0.0,0.0,0.0,0.0,0.0,0.0,0.0,0.0,0.0,0.0,0.0,0.0,0.0,0.0,0.0,0.0,0.0,0.0,0.0,0.0,0.0,0.91,0.9325,0.9334,0.9095,0.9513,0.947,0.8917,0.9537,1.0093,1.0592,1.0436,1.0049,0.9485,0.8997,0.8188,0.7182,0.6614,0.639,0.6369,0.5927,0.6012,0.638,0.0,0.0,0.6292,0.6203,0.6175,0.6238,0.647,0.0,0.0,0.0,0.0,0.9348,0.7677,0.8504,0.9841,0.9394,1.0646,1.2572,1.4684,1.5804,1.6082,1.4957,1.574,1.6722,1.6863,1.7479,1.7834,1.7455,1.7388,1.7388,1.7388,1.7388,1.7388,1.7388,1.799,1.8582,1.9102,1.9829,2.0516,2.1069,2.1214,2.1316,2.1316,2.1316,2.1316,2.1316,2.1316,2.1316,2.1316,2.1316,2.1316,2.1316,2.1316,2.1316,2.1316,2.1316,2.1316,2.1316,2.1316,2.1316,2.1316,2.1316,2.1161,2.0889,2.0702,2.0515,2.0337,2.048,2.0578,2.0651,2.1042,2.1475,2.1908,0.0,0.0,0.0,0.0,0.0,0.0,0.0,0.0,0.0,0.0,1.2004,0.0,0.0,0.0,0.0,0.0,0.0,0.0,0.9244,0.0,0.0,0.951,0.9071,0.9136,0.9843,0.9102,0.9075,0.9821,0.9358,1.0466,1.3036,1.3014,1.2617,1.1916,1.1316,0.9657,0.7229,0.6538,0.6332,0.6452,0.61,0.6005,0.0,0.0,0.0,0.6318,0.6414,0.6523,0.6632,0.6733,0.6709,0.0,0.0,0.0,0.7425,0.6923,0.8336,0.9888,0.9033,1.0337,1.2329,1.4016,1.3577,1.3336,1.5822,1.5624,1.5374,1.7,1.7548,1.766,1.7436,1.7388,1.7388,1.7388,1.7388,1.7388,1.7388,1.799,1.8416,1.8513,1.9578,2.0323,2.0434,2.0945,2.1316,2.1316,2.1316,2.1316,2.1316,2.1316,2.1316,2.1316,2.1316,2.1316,2.1316,2.1316,2.1316,2.1316,2.1316,2.1316,2.1316,2.1316,2.1316,2.1316,2.1316,2.1161,2.0879,2.0869,2.0626,2.0275,2.0314,2.0441,2.0607,2.0651,2.0998,2.1432,0.0,0.0,0.0,0.0,0.0,0.0,0.0,0.0,0.0,0.0,0.0,1.2082,0.0,0.0,0.0,1.0144,0.9712,0.9385,0.914,0.9168,0.918,0.9215,0.935,0.9348,0.9168,0.9207,0.9174,0.9053,0.9279,1.1169,1.4561,1.4845,1.4025,1.2432,1.3036,1.113,0.7524,0.8397,0.7979,0.6721,0.664,0.0,0.0,0.0,0.0,0.0,0.0,0.0,0.6945,0.7139,0.6907,0.6576,0.6874,0.0,0.0,0.0,0.7387,0.829,1.0007,0.9919,1.045,1.5141,1.3798,1.2265,1.589,1.527,1.4505,1.6635,1.7136,1.7299,1.7663,1.754,1.7388,1.7388,1.7388,1.7388,1.7388,1.7664,1.8,1.8348,1.8876,1.9518,2.0252,2.0567,2.0894,2.1265,2.1316,2.1316,2.1316,2.1316,2.1316,2.1316,2.1316,2.1316,2.1316,2.1316,2.1316,2.1316,2.1316,2.1316,2.1316,2.1316,2.1316,2.1316,2.1316,2.1208,2.1111,2.095,2.0743,2.0448,2.0354,2.024,2.0226,2.0226,2.0477,2.0955,0.0,0.0,0.0,0.0,0.0,0.0,0.0,0.0,0.0,0.0,0.0,0.0,0.0,0.0,0.0,0.0,0.9601,0.9304,0.9107,0.9292,0.9344,0.9186,0.9469,0.9377,0.8838,0.9211,0.9163,0.8656,0.9077,1.1138,1.4669,1.5501,1.4912,1.3184,1.4186,1.2773,0.968,1.049,0.9743,0.799,0.8167,0.0,0.0,0.0,0.0,0.0,0.0,0.0,0.0,0.0,0.701,0.6562,0.7046,0.7021,0.0,0.0,0.0,0.6737,1.021,0.9319,0.8823,1.472,1.3145,1.1045,1.4496,1.3947,1.3371,1.5709,1.6547,1.7084,1.7775,1.7654,1.7388,1.7388,1.7388,1.7388,1.7388,1.7388,1.7597,1.8106,1.829,1.8758,1.9708,1.9949,2.0323,2.1007,2.1069,2.113,2.1276,2.1316,2.1316,2.1316,2.1316,2.1316,2.1316,2.1316,2.1316,2.1316,2.1316,2.1316,2.1316,2.1316,2.1316,2.1316,2.1316,2.1316,2.1286,2.1091,2.089,2.0648,2.0448,2.0205,1.9975,1.9945,2.0139,2.0443,0.0,0.0,0.0,0.0,0.0,0.0,0.0,0.0,0.0,0.0,0.0,0.0,1.0287,1.0374,1.0189,0.9411,0.9486,0.9515,0.9393,0.9384,0.9563,0.9928,0.9064,0.0,0.9723,0.8849,0.8788,0.964,0.8659,0.9687,1.2602,1.4467,1.5269,1.5122,1.4699,1.4754,1.5,1.2182,1.0945,1.0916,1.1239,0.0,0.0,0.0,0.0,0.0,0.0,0.0,0.0,0.0,0.0,0.6775,0.7317,0.7291,0.7087,0.0,0.0,0.0,0.8454,0.8429,0.8316,1.0909,0.9931,0.8863,1.0914,1.1108,1.1541,1.4029,1.5892,1.7207,1.7647,1.7558,1.7388,1.7388,1.7388,1.7388,1.7388,1.7388,1.7388,1.7445,1.8,1.8416,1.8475,1.9043,1.9638,2.0312,2.0333,2.0628,2.1265,2.1316,2.1316,2.1316,2.1316,2.1316,2.1316,2.1316,2.1316,2.1316,2.1316,2.1316,2.1316,2.1316,2.1316,2.1316,2.1316,2.1316,2.1316,2.1286,2.11,2.0879,2.0648,2.0448,2.0238,1.9975,1.9921,2.0008,0.0,0.0,0.0,0.0,0.0,0.0,0.0,0.0,0.0,0.0,0.0,0.0,0.0,1.0745,1.0446,0.9813,0.954,0.9414,0.9395,0.9358,0.9249,0.9037,0.9223,0.9344,0.9354,0.9252,0.9199,0.918,0.85,0.9357,1.1642,1.2087,1.3181,1.494,1.8446,1.7462,1.3329,1.5842,1.373,0.9098,1.3254,0.0,0.0,0.0,0.0,0.0,0.0,0.0,0.0,0.0,0.0,0.0,0.0,0.7179,0.7098,0.7098,0.6182,0.574,0.8295,0.7129,0.6183,1.0292,0.8486,0.666,1.0323,1.0821,1.0841,1.2028,1.4637,1.6464,1.5725,1.6578,1.7388,1.7388,1.7388,1.7388,1.7388,1.7388,1.7388,1.7388,1.7607,1.7942,1.8348,1.8582,1.8994,1.9599,1.9229,1.9258,1.9968,1.9561,1.9702,2.0647,2.0638,2.0873,2.1316,2.1316,2.1316,2.1316,2.1316,2.1316,2.1316,2.1316,2.1316,2.1316,2.1316,2.1316,2.1316,2.1316,2.113,2.0889,2.0807,2.0593,2.0285,2.0191,2.0231,2.0347,0.0,0.0,0.0,0.0,0.0,0.0,0.0,0.0,0.0,0.0,0.0,0.0,0.0,0.0,1.0284,0.98,0.9627,0.9486,0.9374,0.9437,0.93,0.8946,0.9492,0.9729,0.9574,0.9392,0.9175,0.8933,0.8206,0.8541,0.9862,1.0459,1.1724,1.3747,1.8517,1.8327,1.4673,1.8545,1.6906,1.199,1.5413,0.0,1.071,0.0,0.0,0.0,0.0,0.0,0.0,0.0,0.0,0.0,0.0,0.711,0.6521,0.6693,0.5864,0.5277,0.7042,0.575,0.473,0.8172,0.6717,0.5249,0.8403,0.9786,1.0502,1.093,1.3929,1.6202,1.5267,1.6291,1.7303,1.7378,1.7388,1.7388,1.7388,1.7388,1.7388,1.7388,1.7388,1.7559,1.801,1.8058,1.83,1.8935,1.8547,1.8577,1.9279,1.8826,1.9078,2.0166,2.039,2.0705,2.1147,2.1273,2.1316,2.1316,2.1316,2.1316,2.1316,2.1316,2.1316,2.1316,2.1316,2.1316,2.1316,2.1316,2.121,2.1021,2.093,2.0733,2.0502,2.0482,2.0587,2.0726,0.0,0.0,0.0,0.0,0.0,0.0,0.0,0.0,0.0,1.1319,0.0,0.0,0.0,0.0,0.0,0.9409,0.9782,0.9843,0.9376,0.9658,0.9806,0.9778,0.9795,0.999,1.0441,0.9156,0.8642,0.8966,0.7764,0.7194,0.7242,0.9729,1.109,1.1592,1.4431,1.7074,1.9437,1.9986,2.0069,1.9655,1.7733,1.6792,1.6151,0.0,0.0,0.0,1.2883,1.1692,0.0,1.196,0.0,0.0,0.0,0.7097,0.5393,0.5854,0.5291,0.4518,0.0,0.0,0.0,0.4273,0.4492,0.4741,0.495,0.776,1.0394,1.0655,1.3773,1.6415,1.6415,1.6783,1.7152,1.7331,1.7378,1.7388,1.7378,1.7388,1.7388,1.7388,1.7388,1.7388,1.7388,1.7388,1.7664,1.8338,1.8357,1.8591,1.9221,1.928,1.9486,1.9978,2.0583,2.0888,2.0888,2.1147,2.1305,2.1305,2.1316,2.1316,2.1316,2.1316,2.1316,2.1316,2.1316,2.1316,2.1316,2.1316,2.1316,2.1257,2.1032,2.092,2.089,2.0923,2.0916,2.0966,0.0,0.0,0.0,0.0,0.0,0.0,1.0277,1.0536,1.0699,0.0,0.0,0.0,1.0143,1.0238,1.0515,1.1057,1.0926,1.0741,1.0616,1.0376,0.9924,0.9248,0.9553,0.9469,0.8919,0.8503,0.8223,0.8134,0.7211,0.6845,0.7007,0.775,0.8194,0.8493,1.1743,1.3588,1.4524,1.8807,1.6942,1.1785,1.9786,1.7954,0.0,0.0,0.0,0.0,0.0,1.309,1.3321,0.0,1.0757,0.8789,0.0,0.0,0.0,0.0,0.0,0.0,0.471,0.0,0.0,0.0,0.0,0.0,0.4971,0.6853,0.8567,0.8745,1.1811,1.4479,1.4544,1.5728,1.6727,1.6944,1.719,1.7331,1.7218,1.7331,1.7388,1.7388,1.7388,1.7388,1.7388,1.7388,1.7492,1.7664,1.7144,1.7155,1.7884,1.8667,1.9135,1.9262,2.0181,2.069,2.069,2.0888,2.1007,2.1007,2.119,2.1316,2.1316,2.1316,2.1316,2.1316,2.1316,2.1316,2.1316,2.1316,2.1316,2.1286,2.1229,2.1061,2.0889,2.09,2.1116,2.1405,0.0,0.0,0.0,0.0,0.0,1.0288,1.0011,1.0206,1.0359,0.0,0.0,0.0,1.0713,1.0884,1.1108,1.1472,1.1049,1.0701,1.058,1.0484,1.0099,0.9321,0.9638,0.9469,0.8697,0.8256,0.7931,0.7722,0.6992,0.675,0.6985,0.7075,0.7318,0.7719,0.9729,1.0521,1.0674,1.5335,1.5772,1.381,1.8965,0.0,0.0,1.7536,1.6969,0.0,0.0,0.0,1.5023,1.4426,1.2123,0.0,0.0,0.0,0.0,0.0,0.0,0.0,0.0,0.0,0.417,0.4509,0.0,0.0,0.5031,0.7261,0.9252,0.9361,1.247,1.4926,1.4038,1.481,1.5558,1.5425,1.5745,1.6244,1.6869,1.7237,1.7359,1.7265,1.7331,1.7388,1.7388,1.7388,1.7388,1.7388,1.6965,1.6906,1.7388,1.8153,1.8682,1.8835,1.9706,2.0259,2.0414,2.0651,2.0813,2.091,2.105,2.1179,2.1316,2.1316,2.1316,2.1316,2.1316,2.1316,2.1316,2.1316,2.1316,2.1316,2.1316,2.1199,2.1082,2.1177,2.1378,2.1642,0.0,0.0,0.9559,1.0092,0.9984,0.9902,1.0115,1.0022,1.0171,0.0,1.0701,1.0918,1.1685,1.164,0.0,0.0,1.064,1.0213,0.9833,1.0186,1.0165,0.9551,0.9706,0.9533,0.8955,0.8128,0.7647,0.7538,0.7011,0.6882,0.7173,0.7346,0.7788,0.8442,0.8404,0.8228,0.8074,1.0662,1.5056,1.9989,1.6734,1.8597,0.0,0.0,1.6983,1.7232,1.8654,1.7589,1.5667,1.6732,1.4108,0.0,0.0,0.0,0.0,0.0,0.5654,0.0,0.0,0.0,0.0,0.0,0.4701,0.0,0.5122,0.7967,1.0616,1.0897,1.3807,1.5829,1.4133,1.3944,1.3917,1.3438,1.3682,1.4535,1.6251,1.7001,1.7218,1.6832,1.7133,1.735,1.735,1.735,1.7359,1.7388,1.7388,1.7388,1.7388,1.7759,1.8177,1.8529,1.9208,1.9744,2.0101,2.0404,2.0669,2.0823,2.0877,2.1017,2.1284,2.1305,2.1316,2.1316,2.1316,2.1316,2.1316,2.1316,2.1316,2.1316,2.1316,2.1316,2.1308,2.1502,2.1599,2.1674,0.0,0.0,0.9973,1.004,0.999,1.0063,1.0378,1.0662,1.1023,1.1524,1.1471,1.1456,1.162,1.1364,0.0,0.0,1.087,1.0558,0.9845,0.989,0.9502,0.8528,0.8538,0.8175,0.7367,0.7171,0.7087,0.7109,0.706,0.722,0.7594,0.7998,0.8378,0.8711,0.8489,0.8486,0.8567,0.7979,0.9898,1.3657,1.7187,1.7543,1.6274,1.9125,1.7948,1.5217,1.8317,1.7964,1.5906,1.4861,1.3508,1.1756,0.0,0.0,0.0,0.0,0.0,0.0,0.0,0.0,0.0,0.0,0.0,0.0,0.5135,0.5848,0.689,0.8493,0.9566,1.0707,1.2344,1.2652,1.2662,1.2609,1.273,1.3206,1.4391,1.6059,1.6571,1.5014,1.6209,1.7161,1.7161,1.7161,1.7237,1.7378,1.7388,1.7388,1.7388,1.7759,1.8025,1.8101,1.8863,1.9312,1.9388,1.9964,2.0307,2.035,2.0727,2.0931,2.0985,2.119,2.1316,2.1316,2.1316,2.1316,2.1316,2.1316,2.1316,2.1316,2.1316,2.1316,2.1286,2.133,2.1459,2.159,0.0,1.0107,1.0103,1.0318,1.041,1.0609,1.1074,1.1272,1.1538,1.2032,1.1879,1.1592,1.133,1.0913,0.0,0.0,0.0,0.0,0.0,0.0,0.9118,0.8289,0.8122,0.7729,0.702,0.7064,0.7109,0.7143,0.7388,0.7691,0.8052,0.8254,0.8436,0.8606,0.8565,0.8407,0.8081,0.7177,0.8194,1.072,1.4404,1.5703,1.5766,1.8849,1.8563,1.6786,1.8536,1.8205,1.6664,1.4731,1.3836,0.0,0.0,0.9121,0.7518,0.0,0.5399,0.4748,0.0,0.0,0.0,0.4787,0.0,0.0,0.0,0.6778,0.7849,0.8972,1.0061,1.088,1.1203,1.1542,1.1739,1.1657,1.1289,1.1251,1.1919,1.4075,1.5552,1.5406,1.6335,1.6953,1.6953,1.6953,1.7038,1.7246,1.7322,1.7388,1.7388,1.7578,1.7797,1.7987,1.8405,1.8709,1.8909,1.944,1.9785,1.9902,2.033,2.0684,2.091,2.1028,2.1157,2.1316,2.1316,2.1316,2.1316,2.1316,2.1316,2.1316,2.1316,2.1316,2.1316,2.1316,2.1351,2.147,1.024,0.0,1.0442,1.0764,1.0956,1.1212,1.1643,1.1666,1.1782,1.2236,1.1896,1.1618,1.1651,0.0,0.0,0.0,0.0,0.0,0.0,0.0,0.0,0.8075,0.7878,0.7589,0.7189,0.7332,0.7467,0.7596,0.7863,0.8193,0.8553,0.8434,0.8428,0.8527,0.8396,0.8294,0.8192,0.7513,0.8166,0.9867,1.1917,1.4075,1.6244,1.8148,1.859,1.8226,1.8507,1.8237,1.7338,1.5012,1.4139,1.3884,1.3072,1.0718,0.0,0.0,0.0,0.0,0.0,0.0,0.0,0.0,0.0,0.6482,0.0,0.0,0.0,0.9812,1.1123,1.1787,1.0385,1.0578,1.0848,1.0578,0.9979,0.9665,1.0026,1.2045,1.3927,1.5048,1.5647,1.6015,1.6193,1.6415,1.6714,1.7133,1.7256,1.7341,1.7388,1.7388,1.754,1.7873,1.7949,1.8177,1.8491,1.8871,1.9219,1.9521,1.9842,2.028,2.0845,2.0809,2.0959,2.1316,2.1316,2.1316,2.1316,2.1316,2.1316,2.1316,2.1316,2.1316,2.1316,2.1316,2.1316,2.1308,1.0764,1.1161,0.0,1.128,1.1486,1.1626,1.14,1.1601,1.1795,1.1861,1.1304,1.1719,0.0,0.0,0.0,0.0,0.0,0.0,0.795,0.0,0.0,0.7174,0.7249,0.739,0.7457,0.7701,0.81,0.8631,0.843,0.8606,0.9109,0.8797,0.8777,0.8954,0.7623,0.8446,1.0734,0.8796,0.9036,1.0951,1.3609,1.3795,1.2957,1.726,1.7532,1.5846,1.7425,1.7836,1.7209,0.0,1.3572,1.3118,0.0,0.9494,0.7698,0.0,0.0,0.0,0.0,0.0,0.0,0.0,0.6693,0.0,0.0,0.0,0.8299,0.8634,0.0,0.9185,0.9732,0.0,0.0,0.9377,0.9508,0.9844,1.0295,1.0889,1.1072,1.0536,1.1952,1.3269,1.397,1.5002,1.6142,1.7275,1.7237,1.7227,1.7378,1.7388,1.7426,1.7464,1.7797,1.8025,1.8063,1.8491,1.8843,1.9243,1.9183,1.9642,2.0647,2.0456,2.0729,2.1316,2.1316,2.1316,2.1316,2.1316,2.1316,2.1316,2.1316,2.1316,2.1316,2.1316,2.1316,2.1276,1.1113,1.1302,0.0,1.1327,1.158,1.1742,1.1614,1.1704,1.1527,1.0741,1.039,1.1078,0.0,0.0,0.0,0.0,0.0,1.4261,0.0,0.0,0.0,0.0,0.0,0.0,0.8013,0.8135,0.8302,0.8514,0.8552,0.8685,0.8901,0.8717,0.8613,0.8534,0.7455,0.8277,1.0389,0.8948,0.9635,1.1796,1.2715,1.2651,1.2476,1.6762,1.7571,1.6331,1.5847,1.6412,1.6878,0.0,1.3894,0.0,0.0,0.0,0.0,0.0,0.0,0.0,0.0,0.0,0.0,0.0,0.0,0.0,0.994,0.0,0.8811,0.0,0.0,0.0,0.0,0.0,0.0,0.0,0.9882,0.9657,1.0045,0.9656,0.9997,1.1819,1.2601,1.3353,1.4134,1.4371,1.4824,1.5721,1.5925,1.6015,1.611,1.682,1.7294,1.7388,1.7578,1.7655,1.7655,1.8063,1.8453,1.8833,1.8772,1.9203,2.0012,2.0088,2.0329,2.075,2.113,2.1316,2.1316,2.1316,2.1316,2.1316,2.1316,2.1316,2.1316,2.1316,2.1316,2.1316,1.1188,0.0,0.0,1.131,1.1502,1.156,1.1341,1.1831,1.1884,1.0913,1.0828,0.0,1.3919,1.2728,0.0,0.0,1.6164,1.5899,0.0,0.0,1.2658,0.0,0.0,0.0,0.0,0.0,0.8358,0.8268,0.8481,0.8573,0.8534,0.8508,0.8346,0.8069,0.7394,0.8151,0.9881,0.9535,1.0722,1.291,1.3216,1.3422,1.3781,1.6022,1.7005,1.6897,1.5205,1.5697,1.6599,1.3006,1.4054,0.0,1.3277,0.0,0.0,0.0,0.0,0.0,1.0039,0.0,0.0,0.0,0.0,0.0,0.0,0.0,0.0,0.0,0.0,0.0,0.0,0.0,1.0637,1.0765,0.0,0.9724,0.9834,0.9311,0.9793,1.2217,1.2776,1.32,1.3848,1.3738,1.3798,1.4209,1.4794,1.5171,1.5258,1.6425,1.7283,1.7635,1.7588,1.7616,1.7731,1.8025,1.8377,1.8757,1.8643,1.9021,1.9787,1.9839,2.0119,2.0482,2.0972,2.1171,2.1114,2.1235,2.1235,2.1114,2.1235,2.1316,2.1316,2.1316,2.1316,2.1316,1.0855,1.129,0.0,1.1361,1.1264,1.0955,1.0192,1.1917,1.3323,1.329,0.0,0.0,0.0,0.0,0.0,0.0,0.0,1.5182,1.3689,0.0,1.4179,0.0,0.0,0.8904,0.0,0.0,0.0,0.8203,0.8285,0.8246,0.8121,0.8177,0.8073,0.7791,0.7317,0.8146,0.9968,1.1116,1.2664,1.453,1.6645,1.7376,1.6897,0.0,1.52,1.6654,1.6272,0.0,0.0,1.4097,1.3672,0.0,0.0,0.0,0.0,0.0,0.0,0.0,0.0,0.0,0.0,1.1139,0.0,0.0,0.0,0.0,1.0557,0.0,0.0,0.0,0.0,0.0,0.0,0.0,0.0,0.0,0.0,1.029,1.0398,0.9547,1.0865,1.1941,1.2157,1.2915,1.3382,1.3345,1.4304,1.5044,1.5385,1.6481,1.7441,1.8235,1.8069,1.8177,1.8567,1.8567,1.8795,1.9163,1.8795,1.9146,2.0171,1.9787,2.0068,2.087,2.091,2.0809,2.0668,2.1114,2.1033,2.0668,2.1114,2.1316,2.1316,2.1316,2.1316,2.1316,0.0,0.0,0.0,1.0326,1.0288,1.0085,0.955,1.0388,1.1554,1.2899,1.2627,0.0,0.0,1.6796,1.6177,0.0,0.0,1.9558,1.7662,1.7288,0.0,0.0,0.0,1.1866,0.0,0.0,0.0,0.0,0.8484,0.8444,0.8363,0.8246,0.8226,0.8222,0.7455,0.8111,0.9947,1.1535,1.315,1.468,1.5593,1.5478,1.4782,0.0,1.6042,1.6355,1.6249,1.6285,0.0,1.4078,1.4465,1.5587,1.4394,1.3605,1.3565,1.5713,1.4354,0.0,0.0,0.0,1.4991,1.475,0.0,0.0,0.0,0.0,0.0,0.0,0.0,0.0,0.0,0.0,0.0,0.0,0.0,0.0,0.0,1.0441,1.0425,0.9943,1.0631,1.133,1.1863,1.141,1.1226,1.162,1.1983,1.2304,1.2531,1.4787,1.6298,1.6906,1.7883,1.8453,1.8605,1.8605,1.8795,1.9201,1.8795,1.8912,1.9555,1.9587,1.9744,2.0057,2.0651,2.0873,2.0799,2.1171,2.1195,2.1073,2.1235,2.1316,2.1316,2.1316,2.1316,2.1316,1.003,0.9562,0.964,0.9782,0.9819,0.998,1.0408,1.1001,1.2319,1.488,1.4342,0.0,1.8968,0.0,1.7835,0.0,1.9581,1.9921,1.9704,1.7409,0.0,1.8869,1.5327,0.0,0.0,0.0,0.0,0.0,0.0,0.8746,0.9275,0.8619,0.8328,0.8372,0.7713,0.7911,0.8873,1.1178,1.2641,1.3535,1.4359,1.4658,1.4645,0.0,1.5826,1.6178,0.0,1.6178,1.6021,1.4809,1.5338,1.6308,1.5157,1.4889,1.529,1.6668,1.568,1.4495,1.6077,1.6544,0.0,1.6223,1.5352,0.0,1.4312,0.0,0.0,0.0,0.0,0.0,0.0,0.0,0.0,0.0,0.0,0.0,0.0,1.0481,1.0406,1.0406,1.0849,1.1107,1.1038,1.0673,1.0375,1.0147,1.0615,1.0954,1.1053,1.378,1.5659,1.6359,1.7888,1.8826,1.906,1.906,1.9212,1.9428,1.9174,1.9212,1.9439,1.9624,1.9741,1.9836,2.0405,2.0626,2.0564,2.101,2.1066,2.0956,2.1203,2.1195,2.1073,2.1235,2.1316,2.1316,0.9911,0.9279,0.9318,0.9666,0.9926,1.0712,1.2555,1.3632,1.545,1.8882,1.8321,1.7924,1.8755,1.7397,1.6749,1.7526,1.6159,1.6485,1.9458,1.4979,0.0,0.0,1.4983,1.379,1.6232,0.0,0.0,0.0,0.0,0.9203,1.0729,0.9208,0.8398,0.8242,0.8071,0.7566,0.7015,1.0195,1.145,1.1481,1.3169,1.4917,1.6326,1.4202,1.4563,1.6178,1.6178,1.6178,1.6178,1.6178,1.6178,1.6178,1.6178,1.6426,1.6699,1.6699,1.6946,1.7238,1.7273,1.7273,1.6936,1.5635,0.0,0.0,0.0,0.0,1.3339,0.0,0.0,0.0,0.0,0.0,0.0,0.0,0.0,0.0,0.0,1.0425,1.0349,1.0725,1.1333,1.1165,0.9763,1.0711,1.071,0.9034,1.0189,1.0991,1.1004,1.3512,1.5494,1.6657,1.8008,1.9075,1.986,1.9784,1.9795,1.9881,1.9881,1.9881,1.9881,1.9881,2.0011,2.0199,2.021,2.0107,1.9978,2.0633,2.066,2.0373,2.1047,2.1022,2.0668,2.1114,2.1276,2.1276,0.9462,0.9201,0.9284,0.8831,1.0931,1.2814,1.3315,1.4772,1.6418,1.8144,1.8041,1.8243,1.9353,1.9564,1.8646,1.6203,1.6763,0.0,0.0,0.0,0.0,2.0321,1.9345,1.8335,1.7494,1.6639,0.0,1.4205,0.0,1.1093,1.162,0.9503,0.8667,0.892,0.8284,0.7637,0.7248,1.0692,1.2607,1.3187,1.1971,1.2586,1.4202,0.0,1.4563,1.6178,1.6178,1.6178,1.6178,1.6178,1.6178,1.6178,1.6178,1.6249,1.632,1.632,1.6391,1.6532,1.6805,1.684,1.6832,1.6781,1.5957,1.5142,0.0,0.0,0.0,0.0,0.0,0.0,0.0,0.0,0.0,0.0,0.0,0.0,0.0,0.0,1.0237,1.0349,1.0472,1.0406,1.0077,1.0038,0.976,0.9163,0.9339,0.9982,1.1155,1.2268,1.4061,1.6624,1.5985,1.6893,1.9564,1.8358,1.8479,1.9881,1.9881,1.9881,1.9881,1.9881,1.9914,1.9989,2.0134,2.0176,2.0163,2.0515,2.0709,2.075,2.0934,2.1034,2.1073,2.0871,2.079,2.083,0.9655,0.9499,0.962,0.922,1.2636,1.5192,1.4474,1.5846,1.7558,1.9236,1.8842,0.0,1.9846,2.0562,2.008,1.7916,1.7183,0.0,1.735,0.0,0.0,2.0497,2.0185,1.9197,1.7604,1.8024,0.0,1.5574,0.0,1.2319,1.3113,1.0178,0.9012,0.9325,0.827,0.759,0.7464,1.0378,1.2458,1.3703,1.235,1.2961,0.0,1.372,1.4563,1.6178,1.6178,1.6178,1.6178,1.6178,1.6178,1.6178,1.6178,1.6178,1.6178,1.6178,1.6178,1.6249,1.6426,1.6487,1.6532,1.6744,1.6231,1.5655,1.5772,1.518,1.4663,0.0,0.0,0.0,0.0,0.0,0.0,0.0,0.0,0.0,0.0,0.0,0.0,1.0258,1.0662,1.0733,1.0141,0.9713,0.9409,0.9223,0.9105,0.9396,1.0218,1.1887,1.3287,1.4309,1.5142,1.6088,1.7173,1.6441,1.6926,1.8641,1.8641,1.9072,1.9881,1.9881,1.9881,1.9892,2.0032,2.0048,2.007,2.0307,2.049,2.058,2.0625,2.078,2.0952,2.0709,2.0709,2.0952,1.0094,0.9872,1.0182,1.0544,1.4334,1.7017,1.6058,1.7284,1.9015,2.0886,2.009,1.9517,2.0005,2.0742,2.0995,2.0444,0.0,1.6973,2.0137,1.5955,1.5483,2.0214,1.9529,1.8583,1.7691,1.8669,0.0,0.0,0.0,1.3355,1.48,1.1016,0.9335,0.9424,0.81,0.7657,0.8,0.9563,1.1533,1.3573,1.3437,1.437,1.57,1.4283,1.4767,1.6178,1.6178,1.6178,1.6178,1.6178,1.6178,1.6178,1.6178,1.6178,1.6178,1.6178,1.6178,1.6178,1.6178,1.6178,1.6178,1.6178,1.6178,1.6178,1.6178,1.6178,1.6178,1.6178,1.6426,1.6323,0.0,0.0,0.0,0.0,0.0,0.0,0.0,0.0,0.0,0.0,1.1324,0.0,1.0076,0.9728,0.9499,0.9277,0.9249,0.9238,0.9213,1.1779,1.2756,1.1659,1.4658,1.5752,1.4568,1.4719,1.5666,1.7378,1.712,1.8003,1.9881,1.9881,1.9881,1.9881,1.9881,1.9881,1.9903,2.0081,2.0199,2.0268,2.0343,2.0499,2.0668,2.0668,2.0952,2.1316,0.9791,0.9594,1.0627,1.2852,1.4217,1.5933,1.8739,2.0543,2.1269,2.0405,2.0419,2.0084,1.8954,2.0244,2.0573,1.9008,1.8038,0.0,0.0,0.0,0.0,2.0943,2.1166,2.1031,2.0669,2.1102,2.1169,0.0,0.0,0.0,1.5666,1.1478,0.9288,0.8817,0.7914,0.8455,0.9983,0.8795,1.0274,1.3442,1.3407,1.3617,1.4014,1.5239,1.592,1.6178,1.6178,1.6178,1.6178,1.6178,1.6178,1.6178,1.6178,1.6178,1.6178,1.6178,1.6178,1.6178,1.6178,1.6178,1.6178,1.6178,1.6178,1.6178,1.6178,1.6178,1.6178,1.6178,1.6249,1.6218,1.5999,0.0,0.0,0.0,0.0,0.0,0.0,0.0,0.0,0.0,0.0,1.153,1.0264,1.0091,0.9922,0.9562,0.9536,0.9927,1.0823,1.0541,1.1262,1.3294,1.2874,1.3879,1.6484,1.5052,1.6041,1.9364,1.7755,1.8003,1.9881,1.9881,1.9881,1.9881,1.9881,1.9881,1.9892,1.9935,2.0183,2.0572,2.0723,2.094,2.1195,2.1195,2.1235,2.1316,1.2686,1.1084,1.0381,1.1923,1.3805,1.5761,1.7831,2.0198,2.1445,2.0521,2.0626,2.0468,1.9723,2.0737,2.1108,2.0249,1.948,1.9274,1.9886,1.9174,1.9401,2.0882,2.1289,0.0,1.9623,2.1235,2.1317,1.976,0.0,0.0,1.5634,1.1051,0.8848,0.8694,0.8399,0.8628,0.9327,1.029,1.1783,1.3602,1.4612,1.4938,1.4953,1.596,1.6273,1.6178,1.6178,1.6178,1.6178,1.6178,1.6178,1.6178,1.6178,1.6178,1.6178,1.6178,1.6178,1.6178,1.6178,1.6178,1.6178,1.6178,1.6178,1.6178,1.6178,1.6178,1.6178,1.6178,1.6178,1.6085,1.574,1.4947,0.0,0.0,0.0,0.0,0.0,0.0,0.0,0.0,0.0,0.0,0.0,1.127,1.0857,0.9684,0.9601,0.9741,1.0046,1.0455,1.1187,1.2318,1.2853,1.3868,1.5332,1.4815,1.5838,1.8393,1.7443,1.8003,1.9881,1.9881,1.9881,1.9881,1.9881,1.9881,1.9881,1.9881,2.0097,2.0404,2.064,2.0877,2.1103,2.1273,2.1316,2.1316,1.5892,1.3327,1.1454,1.2602,1.4361,1.6116,1.7639,1.9455,2.0708,2.078,2.0783,2.082,2.0889,2.1437,2.1637,2.122,2.0793,2.0529,2.0481,2.0018,1.9883,2.0185,2.0914,2.0462,1.866,2.0971,2.106,0.0,0.0,0.0,0.0,1.0898,0.8891,0.8787,0.9163,0.927,0.9346,0.0,1.3754,1.434,1.5873,1.6422,1.6299,1.6377,1.6356,1.6178,1.6178,1.6178,1.6178,1.6178,1.6178,1.6178,1.6178,1.6178,1.6178,1.6178,1.6178,1.6178,1.6178,1.6178,1.6178,1.6178,1.6178,1.6178,1.6178,1.6178,1.6178,1.6178,1.6178,1.6059,1.5609,1.5351,0.0,0.0,0.0,0.0,0.0,0.0,0.0,0.0,0.0,0.0,1.2202,1.1947,1.1246,0.9716,0.9601,0.9558,0.9511,1.0572,1.1176,1.123,1.2985,1.3971,1.41,0.0,1.5728,1.7604,1.7195,1.8003,1.9881,1.9881,1.9881,1.9881,1.9881,1.9881,1.9881,1.9881,2.0032,2.0231,2.0414,2.0662,2.0931,2.1125,2.1233,2.1316,1.7285,1.5955,1.6034,1.9361,1.7405,1.7,2.1896,2.0548,1.9468,2.0946,2.1116,2.1204,2.1592,2.1898,2.1393,1.9666,2.1249,2.0688,1.6792,2.0125,2.1137,1.8641,2.0515,2.1416,2.0879,2.1533,2.1521,0.0,0.0,1.717,0.0,0.0,1.0335,0.9012,1.0003,0.0,0.0,1.3464,1.4651,1.6249,1.6434,1.6507,1.6434,1.6273,1.6233,1.6178,1.6178,1.6178,1.6178,1.6178,1.6178,1.6178,1.6178,1.6178,1.6178,1.6178,1.6178,1.6178,1.6178,1.6178,1.6178,1.6178,1.6178,1.6178,1.6178,1.6178,1.6178,1.6178,1.6178,1.6282,1.6508,1.5797,1.4852,0.0,0.0,0.0,0.0,0.0,0.0,0.0,0.0,0.0,1.2105,1.0916,0.9989,0.9622,0.9601,1.014,1.137,1.0164,1.0227,1.1943,1.1985,1.295,1.5038,1.4519,1.6084,1.9601,1.783,1.8003,1.9881,1.9881,1.9881,1.9881,1.9881,1.9881,1.9881,1.9881,2.0032,2.0221,2.0242,2.0511,2.091,2.0931,2.1082,2.1316,1.9626,1.7217,1.5683,1.7459,1.7301,1.7733,2.0151,2.0463,2.0631,2.1312,2.1352,2.1484,2.19,2.2184,2.2121,2.1565,2.2696,2.2601,2.0693,2.2221,2.2505,2.0956,2.1552,2.1705,2.1152,2.107,2.0845,0.0,0.0,0.0,0.0,0.0,0.0,0.0,0.0,1.2877,1.366,1.5007,1.5929,1.649,1.6623,1.6528,1.6311,1.6349,1.6328,1.6178,1.6178,1.6178,1.6178,1.6178,1.6178,1.6178,1.6178,1.6178,1.6178,1.6178,1.6178,1.6178,1.6178,1.6178,1.6178,1.6178,1.6178,1.6178,1.6178,1.6178,1.6178,1.6178,1.6355,1.6523,1.6699,1.6383,1.5836,0.0,0.0,0.0,0.0,0.0,0.0,0.0,0.0,0.0,0.0,1.2567,1.1176,1.1111,1.0291,0.9906,1.0186,1.0519,1.1445,1.306,1.3168,1.4611,1.7494,1.6603,1.74,1.9881,1.9116,1.9148,1.9881,1.9881,1.9881,1.9881,1.9881,1.9881,1.9881,1.9881,1.9946,2.0043,2.0156,2.0328,2.0511,2.0651,2.0798,2.0906,2.144,1.8608,1.6206,1.659,1.7634,1.8343,1.8262,1.9864,2.1054,2.0978,2.1174,2.1558,2.2162,2.2483,2.2482,2.2174,2.3263,2.3378,2.185,2.3099,2.3307,2.1979,2.221,0.0,2.1398,2.0852,2.0368,1.9889,1.7309,0.0,0.0,0.0,0.0,0.0,1.361,1.4563,1.4715,1.6179,1.6717,1.6585,1.667,1.6538,1.6318,1.6394,1.6301,1.6178,1.6178,1.6178,1.6178,1.6178,1.6178,1.6178,1.6178,1.6178,1.6178,1.6178,1.6178,1.6178,1.6178,1.6178,1.6178,1.6178,1.6178,1.6178,1.6178,1.6178,1.6178,1.6178,1.6391,1.6593,1.6699,1.6699,1.6476,1.5803,0.0,0.0,0.0,0.0,0.0,0.0,1.4428,1.4153,1.5548,1.3506,1.2094,1.2094,1.1133,1.0401,1.0076,0.0,0.0,0.0,0.0,0.0,1.7829,1.6926,1.7616,1.9881,1.9881,1.9881,1.9881,1.9881,1.9881,1.9881,1.9881,1.9881,1.9881,1.9881,1.9881,1.9903,2.0076,2.0145,2.0231,2.0404,2.0539,2.0626,2.2335,2.0489,1.8973,1.8973,1.9149,1.8827,1.7449,1.8816,1.9944,1.9754,2.0474,2.1382,2.2411,2.2732,2.2163,2.0307,2.2485,2.2131,1.7762,2.1936,2.3323,0.0,0.0,2.271,2.2097,2.1222,2.0337,1.9409,0.0,0.0,1.3793,0.0,1.3336,1.374,1.5617,1.6575,1.6747,1.6793,1.6802,1.6783,1.6575,1.6517,1.6453,1.6299,1.6188,1.6178,1.6178,1.6178,1.6178,1.6178,1.6178,1.6178,1.6178,1.6178,1.6178,1.6178,1.6178,1.6178,1.6178,1.6178,1.6178,1.6178,1.6178,1.6178,1.6178,1.6178,1.6178,1.6178,1.6178,1.632,1.6628,1.6699,1.6476,1.5803,0.0,0.0,0.0,0.0,0.0,0.0,1.2977,1.2689,1.4083,1.2923,1.2094,1.2094,1.2073,1.2062,0.0,0.0,0.0,1.2051,1.0062,0.0,1.4919,1.4477,1.6138,1.9881,1.9881,1.9881,1.9881,1.9881,1.9881,1.9881,1.9881,1.9881,1.9881,1.9881,1.9881,1.9881,1.9892,2.0043,2.021,2.0221,2.0361,2.0604,1.8581,1.8517,1.8564,1.8406,1.8813,1.9169,1.9122,1.9522,1.9824,1.979,2.0029,2.0301,2.0635,2.1751,2.235,0.0,2.16,2.1496,0.0,2.2186,2.2471,2.2805,2.1925,2.0888,1.9727,1.8631,1.7707,1.6946,0.0,0.0,0.0,1.4629,1.5025,1.5849,1.6588,1.6868,1.6812,1.6953,1.6849,1.6575,1.6545,1.6432,1.6309,1.6207,1.6178,1.6178,1.6178,1.6178,1.6178,1.6178,1.6178,1.6178,1.6178,1.6178,1.6178,1.6178,1.6178,1.6178,1.6178,1.6178,1.6178,1.6178,1.6178,1.6178,1.6178,1.6178,1.6178,1.6178,1.6178,1.6214,1.6355,1.6355,1.6038,1.5108,1.601,0.0,0.0,0.0,0.0,0.0,1.4155,1.3767,1.5475,1.4123,1.3245,1.3513,1.2645,1.2094,0.0,0.0,0.0,0.0,1.4477,0.0,1.7732,1.684,1.7562,1.9881,1.9881,1.9881,1.9881,1.9881,1.9881,1.9881,1.9881,1.9881,1.9881,1.9881,1.9881,1.9881,1.9881,1.9935,2.0,2.0,2.0054,2.014,1.7289,1.7462,1.7725,1.7827,1.8262,1.8514,1.8353,1.8796,1.9051,1.8821,1.9101,1.9455,1.9768,2.0748,0.0,2.2135,2.1114,2.1256,2.319,2.2268,2.2155,2.3289,2.1877,2.0537,1.9404,1.8285,0.0,1.662,1.6074,1.5801,1.5801,1.5801,1.6161,1.6812,1.6934,1.6925,1.6802,1.6849,1.6717,1.6471,1.6432,1.6292,1.6178,1.6178,1.6178,1.6178,1.6178,1.6178,1.6178,1.6178,1.6178,1.6178,1.6178,1.6178,1.6178,1.6178,1.6178,1.6178,1.6178,1.6178,1.6178,1.6178,1.6178,1.6178,1.6178,1.6178,1.6178,1.6178,1.6178,1.6207,1.6318,1.6235,1.6056,1.5609,1.6539,1.7119,1.6593,0.0,0.0,0.0,0.0,0.0,0.0,1.4973,1.4492,1.4731,1.3611,1.3107,0.0,0.0,1.3911,1.5332,1.5515,1.6441,1.8162,1.7561,1.8155,1.9881,1.9881,1.9881,1.9881,1.9881,1.9881,1.9881,1.9881,1.9881,1.9881,1.9881,1.9881,1.9881,1.9881,1.9881,1.9881,1.9881,1.9881,1.9903,1.7834,1.7148,1.6673,1.7226,1.7527,1.7238,1.5958,1.7017,1.7743,1.7186,1.7927,1.8812,1.9542,1.9617,1.9946,2.0763,0.0,0.0,2.206,2.2039,2.2027,2.2135,2.1666,2.1119,2.0509,1.9489,1.8634,1.7919,1.7169,1.6802,1.6802,1.6802,1.6802,1.6802,1.6802,1.6793,1.6774,1.6566,1.6471,1.6443,1.629,1.6178,1.6178,1.6178,1.6178,1.6178,1.6178,1.6178,1.6178,1.6178,1.6178,1.6178,1.6178,1.6178,1.6178,1.6178,1.6178,1.6178,1.6178,1.6178,1.6178,1.6178,1.6178,1.6178,1.6178,1.6178,1.6178,1.6178,1.6178,1.628,1.6424,1.6356,1.6406,1.6946,1.7211,1.7394,1.7666,0.0,0.0,0.0,0.0,0.0,1.5123,1.5575,1.5773,0.0,1.4847,1.4906,0.0,0.0,1.2684,1.4089,1.4153,1.5052,1.6872,1.7087,1.8123,1.9881,1.9881,1.9881,1.9881,1.9881,1.9881,1.9881,1.9881,1.9881,1.9881,1.9881,1.9881,1.9881,1.9881,1.9881,1.9881,1.9881,1.9881,1.9881,1.5352,1.5938,1.6563,1.6679,1.7017,1.7281,1.7406,1.75,1.7502,1.7354,1.7538,1.7769,1.7959,1.7949,1.8291,1.9115,1.8735,1.9284,2.1144,2.0284,2.0297,2.1676,2.0332,1.9186,1.8418,1.743,1.6982,1.7096,1.6876,1.6802,1.6802,1.6802,1.6802,1.6802,1.6802,1.6708,1.6556,1.65,1.6396,1.629,1.6207,1.6178,1.6178,1.6178,1.6178,1.6178,1.6178,1.6178,1.6178,1.6178,1.6178,1.6178,1.6178,1.6178,1.6178,1.6178,1.6178,1.6178,1.6178,1.6178,1.6178,1.6178,1.6178,1.6178,1.6178,1.6178,1.6178,1.6178,1.6178,1.6197,1.6245,1.6375,1.6413,1.6415,1.7053,1.7137,1.5986,1.6118,0.0,0.0,1.4524,1.4972,1.5393,1.6254,1.657,0.0,0.0,1.5843,1.6281,1.5623,1.5957,1.7561,1.7753,1.8162,1.8821,1.9094,1.9439,1.9881,1.9881,1.9881,1.9881,1.9881,1.9881,1.9881,1.9881,1.9881,1.9881,1.9881,1.9881,1.9881,1.9881,1.9881,1.9881,1.9881,1.9881,1.9881,1.5774,1.6314,1.6871,1.7126,1.72,1.7369,1.7673,1.754,1.7388,1.7388,1.7388,1.7388,1.7388,1.7388,1.7578,1.8025,1.8085,1.8761,2.0343,1.9765,1.9687,2.0451,1.9573,1.8638,1.7728,1.7183,1.6865,1.6802,1.6802,1.6802,1.6802,1.6802,1.6755,1.666,1.666,1.6538,1.6349,1.6349,1.6282,1.6178,1.6178,1.6178,1.6178,1.6178,1.6178,1.6178,1.6178,1.6178,1.6178,1.6178,1.6178,1.6178,1.6178,1.6178,1.6178,1.6178,1.6178,1.6178,1.6178,1.6178,1.6178,1.6178,1.6178,1.6178,1.6178,1.6178,1.6178,1.6178,1.6178,1.6242,1.6301,1.6365,1.6403,1.6453,1.6505,1.6241,1.5443,1.5247,1.5009,1.4533,1.4889,1.545,1.6031,1.6846,1.7198,1.6814,1.6421,0.0,1.7227,1.6636,1.7077,1.877,1.8989,1.9226,1.9499,1.9774,1.9881,1.9881,1.9881,1.9881,1.9881,1.9881,1.9881,1.9881,1.9881,1.9881,1.9881,1.9881,1.9881,1.9881,1.9881,1.9881,1.9881,1.9881,1.9881,1.9881,1.7233,1.7205,1.7283,1.7797,1.7607,1.7388,1.7388,1.7388,1.7388,1.7388,1.7388,1.7388,1.7388,1.7388,1.7388,1.7388,1.8149,1.8909,1.9579,1.9806,1.9693,1.9201,1.9201,1.8741,1.7761,1.7628,1.7297,1.6755,1.6727,1.6708,1.6708,1.6708,1.6613,1.6434,1.6434,1.6375,1.6178,1.6178,1.6178,1.6178,1.6178,1.6178,1.6178,1.6178,1.6178,1.6178,1.6178,1.6178,1.6178,1.6178,1.6178,1.6178,1.6178,1.6178,1.6178,1.6178,1.6178,1.6178,1.6178,1.6178,1.6178,1.6178,1.6178,1.6178,1.6178,1.6178,1.6178,1.6178,1.6178,1.6235,1.6405,1.6356,1.6273,1.6441,1.5762,1.5222,1.5141,0.0,1.4472,1.5259,1.5446,1.5851,1.676,1.7309,1.7632,1.7704,1.7009,1.714,1.8334,1.7259,1.7313,1.8789,1.9,1.9236,1.9553,1.9784,1.9881,1.9881,1.9881,1.9881,1.9881,1.9881,1.9881,1.9881,1.9881,1.9881,1.9881,1.9881,1.9881,1.9881,1.9881,1.9881,1.9881,1.9881,1.9881,1.9881,1.7056,1.7123,1.7171,1.7464,1.7426,1.7388,1.7388,1.7388,1.7388,1.7388,1.7388,1.7388,1.7388,1.7388,1.7388,1.7388,1.8149,1.8643,1.8795,1.9477,1.9693,1.9201,1.9201,1.8812,1.7976,1.729,1.6819,1.6564,1.6394,1.6282,1.6282,1.6282,1.6264,1.6261,1.6261,1.6216,1.6178,1.6178,1.6178,1.6178,1.6178,1.6178,1.6178,1.6178,1.6178,1.6178,1.6178,1.6178,1.6178,1.6178,1.6178,1.6178,1.6178,1.6178,1.6178,1.6178,1.6178,1.6178,1.6178,1.6178,1.6178,1.6178,1.6178,1.6178,1.6178,1.6178,1.6178,1.6178,1.6178,1.6188,1.6226,1.6375,1.6126,1.5112,1.5236,1.4991,1.3663,0.0,1.5248,1.4796,1.6055,1.6977,1.705,1.7365,1.774,1.8073,1.7986,1.8061,1.8363,1.8194,1.8377,1.9032,1.9097,1.9359,1.9827,1.9871,1.9881,1.9881,1.9881,1.9881,1.9881,1.9881,1.9881,1.9881,1.9881,1.9881,1.9881,1.9881,1.9881,1.9881,1.9881,1.9881,1.9881,1.9881,1.9881,1.9881,1.7048,1.7199,1.7275,1.7369,1.7388,1.7388,1.7388,1.7388,1.7388,1.7388,1.7388,1.7464,1.7683,1.7721,1.7807,1.8035,1.8377,1.8605,1.8605,1.9174,1.9325,1.8909,1.8671,1.8232,1.751,1.7028,1.6698,1.6517,1.6318,1.6178,1.6178,1.6178,1.6178,1.6178,1.6178,1.6178,1.6178,1.6178,1.6178,1.6178,1.6178,1.6178,1.6178,1.6178,1.6178,1.6178,1.6178,1.6178,1.6178,1.6178,1.6178,1.6178,1.6178,1.6178,1.6178,1.6178,1.6178,1.6178,1.6178,1.6178,1.6178,1.6178,1.6178,1.6178,1.6178,1.6178,1.6178,1.6178,1.6178,1.6178,1.6178,1.629,1.6167,1.57,1.5294,0.0,1.4152,1.4766,1.5236,1.511,1.6431,1.7414,1.7524,1.7785,1.8001,1.818,1.8279,1.834,1.8409,1.8398,1.8624,1.9097,1.9391,1.9666,1.9881,1.9881,1.9881,1.9881,1.9881,1.9881,1.9881,1.9881,1.9881,1.9881,1.9881,1.9881,1.9881,1.9881,1.9881,1.9881,1.9881,1.9881,1.9881,1.9881,1.9881,1.9881,1.7067,1.7275,1.7388,1.7388,1.7388,1.7388,1.7388,1.7388,1.7388,1.7388,1.7388,1.754,1.7949,1.7987,1.8101,1.8415,1.8529,1.8567,1.8453,1.8757,1.8795,1.8453,1.8063,1.7644,1.718,1.6934,1.6727,1.6556,1.6301,1.6178,1.6178,1.6178,1.6178,1.6178,1.6178,1.6178,1.6178,1.6178,1.6178,1.6178,1.6178,1.6178,1.6178,1.6178,1.6178,1.6178,1.6178,1.6178,1.6178,1.6178,1.6178,1.6178,1.6178,1.6178,1.6178,1.6178,1.6178,1.6178,1.6178,1.6178,1.6178,1.6178,1.6178,1.6178,1.6178,1.6178,1.6178,1.6178,1.6178,1.6178,1.6178,1.6178,1.6176,1.6069,0.0,1.4647,1.4811,1.4903,1.5169,1.5691,1.6808,1.7633,1.7886,1.8022,1.8168,1.825,1.8259,1.8328,1.8398,1.8398,1.8624,1.9097,1.9607,1.9881,1.9881,1.9881,1.9881,1.9881,1.9881,1.9881,1.9881,1.9881,1.9881,1.9881,1.9881,1.9881,1.9881,1.9881,1.9881,1.9881,1.9881,1.9881,1.9881,1.9881,1.9881,1.9881,1.7067,1.7275,1.7388,1.7388,1.7388,1.7388,1.7388,1.7388,1.7388,1.7388,1.7388,1.754,1.7949,1.7987,1.8025,1.8025,1.8377,1.8453,1.8063,1.8063,1.8063,1.8063,1.7655,1.7416,1.7369,1.701,1.6793,1.6783,1.6377,1.6178,1.6178,1.6178,1.6178,1.6178,1.6178,1.6178,1.6178,1.6178,1.6178,1.6178,1.6178,1.6178,1.6178,1.6178,1.6178,1.6178,1.6178,1.6178,1.6178,1.6178,1.6178,1.6178,1.6178,1.6178,1.6178,1.6178,1.6178,1.6178,1.6178,1.6178,1.6178,1.6178,1.6178,1.6178,1.6178,1.6178,1.6178,1.6178,1.6178,1.6178,1.6178,1.6178,1.587,1.4913,0.0,0.0,1.4608,1.4931,1.5545,1.6505,1.7348,1.7878,1.7913,1.7903,1.8068,1.836,1.8128,1.8082,1.8363,1.8398,1.8624,1.9097,1.9607,1.9881,1.9881,1.9881,1.9881,1.9881,1.9881,1.9881,1.9881,1.9881,1.9881,1.9881,1.9881,1.9881,1.9881,1.9881,1.9881,1.9881,1.9881,1.9881,1.9881,1.9881,1.9881,1.9881,1.7067,1.7275,1.7388,1.7388,1.7388,1.7388,1.7388,1.7388,1.7388,1.7388,1.7388,1.7655,1.8301,1.8139,1.8215,1.8709,1.8443,1.8177,1.8025,1.7759,1.7607,1.7607,1.7464,1.7388,1.7388,1.702,1.6802,1.6802,1.6386,1.6178,1.6178,1.6178,1.6178,1.6178,1.6178,1.6178,1.6178,1.6178,1.6178,1.6178,1.6178,1.6178,1.6178,1.6178,1.6178,1.6178,1.6178,1.6178,1.6178,1.6178,1.6178,1.6178,1.6178,1.6178,1.6178,1.6178,1.6178,1.6178,1.6178,1.6178,1.6178,1.6178,1.6178,1.6178,1.6178,1.6178,1.6178,1.6178,1.6178,1.6178,1.6178,1.6178,1.6062,1.5647,0.0,1.5605,1.5605,1.5707,1.6128,1.6967,1.7344,1.7696,1.8188,1.8223,1.8258,1.8398,1.8293,1.8258,1.8398,1.8573,1.8735,1.8918,1.9381,1.9741,1.9881,1.9881,1.9881,1.9881,1.9881,1.9881,1.9881,1.9881,1.9881,1.9881,1.9881,1.9881,1.9881,1.9881,1.9881,1.9881,1.9881,1.9881,1.9881,1.9881,1.9881,1.9881,1.7253,1.7549,1.7731,1.7616,1.7578,1.754,1.7426,1.7388,1.7464,1.7578,1.7578,1.7883,1.8719,1.8415,1.8405,1.8936,1.8405,1.7949,1.7835,1.754,1.7388,1.7388,1.7388,1.7388,1.7388,1.702,1.6802,1.6802,1.6386,1.6178,1.6178,1.6178,1.6178,1.6178,1.6178,1.6178,1.6178,1.6178,1.6178,1.6178,1.6178,1.6178,1.6178,1.6178,1.6178,1.6178,1.6178,1.6178,1.6178,1.6178,1.6178,1.6178,1.6178,1.6178,1.6178,1.6178,1.6178,1.6178,1.6178,1.6178,1.6178,1.6178,1.6178,1.6178,1.6178,1.6178,1.6178,1.6178,1.6178,1.6178,1.6178,1.6178,1.6178,1.6178,1.6178,1.6178,1.6178,1.6391,1.6744,1.7238,1.7485,1.7836,1.8363,1.8293,1.8293,1.8398,1.8293,1.8293,1.8398,1.8584,1.8702,1.8813,1.9101,1.9424,1.9774,1.9849,1.9881,1.9881,1.9881,1.9881,1.9881,1.9881,1.9881,1.9881,1.9881,1.9881,1.9881,1.9881,1.9881,1.9881,1.9881,1.9881,1.9881,1.9881,1.9881,1.9881,1.7663,1.819,1.8491,1.8063,1.7987,1.7873,1.7464,1.7426,1.754,1.7949,1.7987,1.8329,1.9125,1.8833,1.8605,1.8605,1.8215,1.7835,1.7426,1.7388,1.7388,1.7388,1.7388,1.7388,1.7388,1.702,1.6802,1.6802,1.6386,1.6178,1.6178,1.6178,1.6178,1.6178,1.6178,1.6178,1.6178,1.6178,1.6178,1.6178,1.6178,1.6178,1.6178,1.6178,1.6178,1.6178,1.6178,1.6178,1.6178,1.6178,1.6178,1.6178,1.6178,1.6178,1.6178,1.6178,1.6178,1.6178,1.6178,1.6178,1.6178,1.6178,1.6178,1.6178,1.6178,1.6178,1.6178,1.6178,1.6178,1.6178,1.6178,1.6178,1.6178,1.6178,1.6178,1.6178,1.6178,1.6815,1.7273,1.7273,1.7942,1.8398,1.8398,1.8072,1.8037,1.8363,1.8072,1.8037,1.8363,1.8398,1.8506,1.8778,1.8789,1.9015,1.9488,1.9763,1.9881,1.9881,1.9881,1.9881,1.9881,1.9881,1.9881,1.9881,1.9881,1.9881,1.9881,1.9881,1.9881,1.9881,1.9881,1.9881,1.9881,1.9881,1.9881,1.9881,1.7402,1.7738,1.8047,1.8385,1.8415,1.8377,1.8263,1.8225,1.8301,1.8415,1.8415,1.8529,1.8757,1.8415,1.8177,1.8177,1.7797,1.754,1.7426,1.7388,1.7388,1.7388,1.7683,1.7616,1.7199,1.7194,1.7019,1.6575,1.6346,1.6178,1.6178,1.6178,1.6178,1.6178,1.6178,1.6178,1.6178,1.6178,1.6178,1.6178,1.6178,1.6178,1.6178,1.6178,1.6178,1.6178,1.6178,1.6178,1.6178,1.6178,1.6178,1.6178,1.6178,1.6178,1.6178,1.6178,1.6178,1.6178,1.6178,1.6178,1.6178,1.6178,1.6178,1.6178,1.6178,1.6178,1.6178,1.6178,1.6178,1.6178,1.6178,1.6178,1.6178,1.6178,1.6178,1.6178,1.6178,1.6391,1.6603,1.684,1.7087,1.7334,1.759,1.7555,1.7661,1.8002,1.8188,1.8293,1.8398,1.8398,1.843,1.8541,1.8702,1.8853,1.8993,1.9402,1.972,1.9881,1.9881,1.9881,1.9881,1.9881,1.9881,1.9881,1.9881,1.9881,1.9881,1.9881,1.9881,1.9881,1.9881,1.9881,1.9881,1.9881,1.9881,1.9881,1.7197,1.7755,1.8238,1.8444,1.8696,1.8795,1.8605,1.8605,1.8643,1.8833,1.8681,1.8643,1.8833,1.8329,1.7987,1.7987,1.7607,1.7464,1.7607,1.7655,1.7731,1.7883,1.8023,1.7792,1.7105,1.7079,1.6867,1.6517,1.6318,1.6178,1.6178,1.6178,1.6178,1.6178,1.6178,1.6178,1.6178,1.6178,1.6178,1.6178,1.6178,1.6178,1.6178,1.6178,1.6178,1.6178,1.6178,1.6235,1.6337,1.6337,1.6358,1.6424,1.6424,1.6424,1.6424,1.6424,1.6424,1.6424,1.6424,1.6424,1.6405,1.6356,1.6245,1.6178,1.6178,1.6178,1.6178,1.6178,1.6178,1.6178,1.6178,1.6178,1.6178,1.6178,1.6178,1.6249,1.6391,1.6391,1.6593,1.7122,1.7017,1.7087,1.752,1.7379,1.7485,1.7861,1.8072,1.8258,1.8398,1.8398,1.8398,1.8398,1.8573,1.8692,1.8789,1.9068,1.9381,1.9752,1.9752,1.9795,1.9881,1.9881,1.9881,1.9881,1.9881,1.9881,1.9881,1.9881,1.9881,1.9881,1.9881,1.9881,1.9871,1.9784,1.9752,1.973,1.7103,1.7966,1.8657,1.8401,1.8809,1.9067,1.8757,1.8719,1.8833,1.9163,1.8871,1.8757,1.905,1.8443,1.7987,1.7949,1.7655,1.7616,1.7987,1.8025,1.8205,1.8499,1.8325,1.785,1.7048,1.6716,1.6543,1.6453,1.6273,1.6178,1.6178,1.6178,1.6178,1.6178,1.6178,1.6178,1.6178,1.6178,1.6178,1.6178,1.6178,1.6178,1.6188,1.6207,1.6242,1.6216,1.6235,1.6358,1.6545,1.6545,1.6642,1.6802,1.6802,1.6802,1.6802,1.6802,1.6802,1.6802,1.6802,1.6802,1.6755,1.6556,1.6377,1.6226,1.6223,1.6178,1.6178,1.6178,1.6178,1.6178,1.6178,1.6178,1.6178,1.6178,1.6178,1.632,1.6593,1.6664,1.6946,1.765,1.7414,1.7344,1.7721,1.7439,1.7414,1.7756,1.7861,1.8037,1.8328,1.8363,1.8398,1.8398,1.8398,1.8541,1.8756,1.8756,1.8993,1.9467,1.9467,1.9575,1.9827,1.9849,1.9849,1.986,1.9881,1.9881,1.9881,1.986,1.9849,1.9849,1.9827,1.9827,1.9795,1.9542,1.9467,1.9435,1.7002,1.7326,1.7749,1.861,1.8899,1.9105,1.9558,1.9628,1.9504,1.9239,1.9136,1.886,1.8329,1.8101,1.7873,1.7578,1.7721,1.7911,1.7987,1.8291,1.8298,1.7903,1.7714,1.7297,1.6659,1.6863,1.6738,1.628,1.6207,1.6178,1.6178,1.6178,1.6178,1.6178,1.6178,1.6178,1.6178,1.6178,1.6178,1.6178,1.6178,1.6178,1.6233,1.6358,1.6415,1.6479,1.6604,1.6698,1.6736,1.6736,1.6764,1.6802,1.6802,1.6802,1.6802,1.6802,1.6802,1.6802,1.6802,1.6802,1.6793,1.6745,1.6698,1.6585,1.6254,1.6178,1.6178,1.6178,1.6178,1.6178,1.6178,1.6178,1.6178,1.6178,1.6178,1.6214,1.6285,1.632,1.6355,1.6532,1.6497,1.6461,1.6567,1.6734,1.6875,1.6946,1.7545,1.7931,1.8002,1.8258,1.8398,1.8398,1.8398,1.842,1.8473,1.8473,1.871,1.9193,1.9193,1.9215,1.9269,1.9488,1.9575,1.9585,1.9806,1.9881,1.9871,1.9687,1.9575,1.9553,1.937,1.9269,1.9258,1.9204,1.9193,1.9183,1.6606,1.6891,1.728,1.7945,1.8298,1.8626,1.9078,1.9147,1.9076,1.8926,1.8747,1.8481,1.8063,1.7987,1.7987,1.7959,1.8149,1.8377,1.8557,1.8494,1.8393,1.8272,1.7719,1.7258,1.6923,1.6969,1.6707,1.6178,1.6178,1.6178,1.6178,1.6178,1.6178,1.6178,1.6178,1.6178,1.6178,1.6178,1.6271,1.632,1.632,1.6386,1.649,1.6594,1.6632,1.6651,1.6764,1.6868,1.6963,1.7067,1.7105,1.7105,1.7105,1.7105,1.7105,1.7105,1.7105,1.7105,1.7105,1.7105,1.7076,1.6972,1.6944,1.684,1.6415,1.632,1.6337,1.6207,1.6178,1.6178,1.6178,1.6178,1.6178,1.6178,1.6178,1.6249,1.6426,1.6285,1.632,1.6673,1.6391,1.6249,1.6426,1.6593,1.6875,1.7228,1.7474,1.7756,1.8117,1.8293,1.8398,1.8398,1.8398,1.8398,1.8398,1.8398,1.8527,1.8774,1.8892,1.9,1.9118,1.9236,1.9301,1.9301,1.9456,1.9521,1.951,1.9381,1.9301,1.929,1.9161,1.9118,1.9097,1.8978,1.8871,1.8774,1.6178,1.6606,1.6992,1.7067,1.7514,1.7923,1.8208,1.8249,1.833,1.8524,1.828,1.8062,1.8101,1.8101,1.8253,1.8567,1.8643,1.8833,1.9163,1.8724,1.8564,1.8773,1.7933,1.7399,1.7258,1.6929,1.6485,1.5997,1.6211,1.6157,1.5915,1.6166,1.6273,1.6235,1.6235,1.6235,1.6235,1.6197,1.6318,1.647,1.647,1.6538,1.6698,1.6736,1.6745,1.6755,1.6793,1.6916,1.7076,1.7218,1.7284,1.7284,1.7284,1.7284,1.7284,1.7284,1.7284,1.7284,1.7322,1.7331,1.7341,1.7199,1.7189,1.7169,1.6789,1.661,1.6434,1.6299,1.6207,1.6178,1.6178,1.6249,1.6285,1.6214,1.6249,1.6355,1.6593,1.6391,1.6426,1.7026,1.6603,1.6426,1.677,1.6805,1.7087,1.7756,1.7555,1.7661,1.8293,1.8363,1.8398,1.8398,1.8398,1.8398,1.8398,1.8398,1.8398,1.8398,1.8638,1.8832,1.8989,1.9032,1.9054,1.9054,1.9097,1.9118,1.9107,1.9064,1.9054,1.9043,1.9011,1.8989,1.8968,1.8799,1.8605,1.8398,1.6178,1.6278,1.6496,1.7002,1.7168,1.7402,1.7949,1.8026,1.8097,1.8319,1.8312,1.8346,1.8509,1.8529,1.8529,1.8605,1.8909,1.9125,1.9201,1.9143,1.8878,1.8384,1.7907,1.734,1.6637,1.6564,1.6076,1.516,1.6196,1.6077,1.4847,1.6122,1.6623,1.6479,1.6479,1.6479,1.647,1.6254,1.6233,1.6226,1.6226,1.628,1.6282,1.6462,1.6528,1.6547,1.6736,1.6821,1.6849,1.6878,1.6887,1.6887,1.6887,1.6887,1.6887,1.6887,1.6887,1.6925,1.7105,1.7152,1.719,1.7303,1.7607,1.7804,1.7608,1.7002,1.6471,1.6479,1.6301,1.6178,1.6178,1.6426,1.6523,1.6249,1.6452,1.6558,1.6285,1.6214,1.6249,1.632,1.6523,1.6805,1.7168,1.7238,1.7273,1.7379,1.765,1.7861,1.7966,1.8258,1.8398,1.8398,1.8398,1.8398,1.8398,1.8398,1.8398,1.8398,1.843,1.8463,1.8506,1.8745,1.8832,1.8842,1.9021,1.9118,1.9097,1.8918,1.8832,1.881,1.8581,1.8495,1.8495,1.8463,1.843,1.8398,1.6178,1.6178,1.6278,1.6551,1.6606,1.6709,1.7102,1.7168,1.7246,1.7423,1.7453,1.7615,1.8055,1.861,1.906,1.9287,1.9504,1.9466,1.9212,1.8898,1.8475,1.7974,1.7484,1.7034,1.667,1.666,1.6113,1.5007,1.5976,1.6118,1.5525,1.6163,1.6405,1.6311,1.6311,1.6311,1.6346,1.6252,1.6245,1.6384,1.6384,1.6424,1.6538,1.6632,1.666,1.6679,1.6774,1.6802,1.6802,1.6802,1.6802,1.6802,1.6802,1.6802,1.6802,1.6802,1.6802,1.6821,1.6916,1.6934,1.6982,1.7199,1.736,1.7548,1.7803,1.7495,1.7094,1.6863,1.6499,1.6249,1.6452,1.6593,1.6664,1.6487,1.6593,1.6593,1.6249,1.6355,1.6558,1.6779,1.7122,1.7439,1.7615,1.7661,1.7731,1.7907,1.7896,1.7966,1.8188,1.8328,1.8398,1.8398,1.8398,1.8398,1.8398,1.8398,1.8398,1.8398,1.8398,1.8398,1.8398,1.8506,1.8584,1.8595,1.8667,1.871,1.871,1.8602,1.8584,1.8573,1.8441,1.8398,1.8398,1.8398,1.8398,1.8398]},{"header":{"parameterUnit":"m.s-1","parameterCategory":1,"la1":30.6,"la2":28.766,"lo1":-90.7593,"lo2":-88.6598,"dy":0.0162,"dx":0.0183,"nx":116,"ny":114,"refTime":"2023-09-24T12:00:00:Z","depth":0,"parameterNumber":3,"parameterNumberName":"V-component_of_WINDS"},"data":[0.0,0.0,0.0,0.0,0.0,0.0,0.0,0.0,0.0,0.0,0.0,0.0,0.0,0.0,0.0,0.0,0.0,0.0,0.0,0.0,0.0,0.0,0.0,0.0,0.0,0.0,0.0,0.0,0.0,0.0,0.0,0.0,0.0,0.0,0.0,0.0,0.0,0.0,0.0,0.0,0.0,0.0,0.0,0.0,0.0,0.0,0.0,0.0,0.0,0.0,0.0,0.0,0.0,0.0,0.0,0.0,0.0,0.0,0.0,0.0,0.0,0.0,0.0,0.0,0.0,0.0,0.0,0.0,0.0,0.0,0.0,0.0,0.0,0.0,0.0,0.0,0.0,0.0,0.0,0.0,0.0,0.0,0.0,0.0,0.0,0.0,0.0,0.0,0.0,0.0,0.0,0.0,0.0,0.0,0.0,0.0,0.0,0.0,0.0,0.0,0.0,0.0,0.0,0.0,0.0,0.0,0.0,0.0,0.0,0.0,0.0,0.0,0.0,0.0,0.0,0.0,0.0,0.0,0.0,0.0,0.0,0.0,0.0,0.0,0.0,0.0,0.0,0.0,0.0,0.0,0.0,0.0,0.0,0.0,0.0,0.0,0.0,0.0,0.0,0.0,0.0,0.0,0.0,0.0,0.0,0.0,0.0,0.0,0.0,0.0,0.0,0.0,0.0,0.0,0.0,0.0,0.0,0.0,0.0,0.0,0.0,0.0,0.0,0.0,0.0,0.0,0.0,0.0,0.0,0.0,0.0,0.0,0.0,0.0,0.0,0.0,0.0,0.0,0.0,0.0,0.0,0.0,0.0,0.0,0.0,0.0,0.0,0.0,0.0,0.0,0.0,0.0,0.0,0.0,0.0,0.0,0.0,0.0,0.0,0.0,0.0,0.0,0.0,0.0,0.0,0.0,0.0,0.0,0.0,0.0,0.0,0.0,0.0,0.0,0.0,0.0,0.0,0.0,0.0,0.0,0.0,0.0,0.0,0.0,0.0,0.0,0.0,0.0,0.0,0.0,0.0,0.0,0.0,0.0,0.0,0.0,0.0,0.0,0.0,0.0,0.0,0.0,0.0,0.0,0.0,0.0,0.0,0.0,0.0,0.0,0.0,0.0,0.0,0.0,0.0,0.0,0.0,0.0,0.0,0.0,0.0,0.0,0.0,0.0,0.0,0.0,0.0,0.0,0.0,0.0,0.0,0.0,0.0,0.0,0.0,0.0,0.0,0.0,0.0,0.0,0.0,0.0,0.0,0.0,0.0,0.0,0.0,0.0,0.0,0.0,0.0,0.0,0.0,0.0,0.0,0.0,0.0,0.0,0.0,0.0,0.0,0.0,0.0,0.0,0.0,0.0,0.0,0.0,0.0,0.0,0.0,0.0,0.0,0.0,0.0,0.0,0.0,0.0,0.0,0.0,0.0,0.0,0.0,0.0,0.0,0.0,0.0,0.0,0.0,0.0,0.0,0.0,0.0,0.0,0.0,0.0,0.0,0.0,0.0,0.0,0.0,0.0,0.0,0.0,0.0,0.0,0.0,0.0,0.0,0.0,0.0,0.0,0.0,0.0,0.0,0.0,0.0,0.0,0.0,0.0,0.0,0.0,0.0,0.0,0.0,0.0,0.0,0.0,0.0,0.0,0.0,0.0,0.0,0.0,0.0,0.0,0.0,0.0,0.0,0.0,0.0,0.0,0.0,0.0,0.0,0.0,0.0,0.0,0.0,0.0,0.0,0.0,0.0,0.0,0.0,0.0,0.0,0.0,0.0,0.0,0.0,0.0,0.0,0.0,0.0,0.0,0.0,0.0,0.0,0.0,0.0,0.0,0.0,0.0,0.0,0.0,0.0,0.0,0.0,0.0,0.0,0.0,0.0,0.0,0.0,0.0,0.0,0.0,0.0,0.0,0.0,0.0,0.0,0.0,0.0,0.0,0.0,0.0,0.0,0.0,0.0,0.0,0.0,0.0,0.0,0.0,0.0,0.0,0.0,0.0,0.0,0.0,0.0,0.0,0.0,0.0,0.0,0.0,0.0,0.0,0.0,0.0,0.0,0.0,0.0,0.0,0.0,0.0,0.0,0.0,0.0,0.0,0.0,0.0,0.0,0.0,0.0,0.0,0.0,0.0,0.0,0.0,0.0,0.0,0.0,0.0,0.0,0.0,0.0,0.0,0.0,0.0,0.0,0.0,0.0,0.0,0.0,0.0,0.0,0.0,0.0,0.0,0.0,0.0,0.0,0.0,0.0,0.0,0.0,0.0,0.0,0.0,0.0,0.0,0.0,0.0,0.0,0.0,0.0,0.0,0.0,0.0,0.0,0.0,0.0,0.0,0.0,0.0,0.0,0.0,0.0,0.0,0.0,0.0,0.0,0.0,0.0,0.0,0.0,0.0,0.0,0.0,0.0,0.0,0.0,0.0,0.0,0.0,0.0,0.0,0.0,0.0,0.0,0.0,0.0,0.0,0.0,0.0,0.0,0.0,0.0,0.0,0.0,0.0,0.0,0.0,0.0,0.0,0.0,0.0,0.0,0.0,0.0,0.0,0.0,0.0,0.0,0.0,0.0,0.0,0.0,0.0,0.0,0.0,0.0,0.0,0.0,0.0,0.0,0.0,0.0,0.0,0.0,0.0,0.0,0.0,0.0,0.0,0.0,0.0,0.0,0.0,0.0,0.0,0.0,0.0,0.0,0.0,0.0,0.0,0.0,0.0,0.0,0.0,0.0,0.0,0.0,0.0,0.0,0.0,0.0,0.0,0.0,0.0,0.0,0.0,0.0,0.0,0.0,0.0,0.0,0.0,0.0,0.0,0.0,0.0,0.0,0.0,0.0,0.0,0.0,0.0,0.0,0.0,0.0,0.0,0.0,0.0,0.0,0.0,0.0,0.0,0.0,0.0,0.0,0.0,0.0,0.0,0.0,0.0,0.0,0.0,0.0,0.0,0.0,0.0,0.0,0.0,0.0,0.0,0.0,0.0,0.0,0.0,0.0,0.0,0.0,0.0,0.0,0.0,0.0,0.0,0.0,0.0,0.0,0.0,0.0,0.0,0.0,0.0,0.0,0.0,0.0,0.0,0.0,0.0,0.0,0.0,0.0,0.0,0.0,0.0,0.0,0.0,0.0,0.0,0.0,0.0,0.0,0.0,0.0,0.0,0.0,0.0,0.0,0.0,0.0,0.0,0.0,0.0,0.0,0.0,0.0,0.0,0.0,0.0,0.0,0.0,0.0,0.0,0.0,0.0,0.0,0.0,0.0,0.0,0.0,0.0,0.0,0.0,0.0,0.0,0.0,0.0,0.0,0.0,0.0,0.0,0.0,0.0,0.0,0.0,0.0,0.0,0.0,0.0,0.0,0.0,0.0,0.0,0.0,0.0,0.0,0.0,0.0,0.0,0.0,0.0,0.0,0.0,0.0,0.0,0.0,0.0,0.0,0.0,0.0,0.0,0.0,0.0,0.0,0.0,0.0,0.0,0.0,0.0,0.0,0.0,0.0,0.0,0.0,0.0,0.0,0.0,0.0,0.0,0.0,0.0,0.0,0.0,0.0,0.0,0.0,0.0,0.0,0.0,0.0,0.0,0.0,0.0,0.0,0.0,0.0,0.0,0.0,0.0,0.0,0.0,0.0,0.0,0.0,0.0,0.0,0.0,0.0,0.0,0.0,0.0,0.0,0.0,0.0,0.0,0.0,0.0,0.0,0.0,0.0,0.0,0.0,0.0,0.0,0.0,0.0,0.0,0.0,0.0,0.0,0.0,0.0,0.0,0.0,0.0,0.0,0.0,0.0,0.0,0.0,0.0,0.0,0.0,0.0,0.0,0.0,0.0,0.0,0.0,0.0,0.0,0.0,0.0,0.0,0.0,0.0,0.0,0.0,0.0,0.0,0.0,0.0,0.0,0.0,0.0,0.0,0.0,0.0,0.0,0.0,0.0,0.0,0.0,0.0,0.0,0.0,0.0,0.0,0.0,0.0,0.0,0.0,0.0,0.0,0.0,0.0,0.0,0.0,0.0,0.0,0.0,0.0,0.0,0.0,0.0,0.0,0.0,0.0,0.0,0.0,0.0,0.0,0.0,0.0,0.0,0.0,0.0,0.0,0.0,0.0,0.0,0.0,0.0,0.0,0.0,0.0,0.0,0.0,0.0,0.0,0.0,0.0,0.0,0.0,0.0,0.0,0.0,0.0,0.0,0.0,0.0,0.0,0.0,0.0,0.0,0.0,0.0,0.0,0.0,0.0,0.0,0.0,0.0,0.0,0.0,0.0,0.0,0.0,0.0,0.0,0.0,0.0,0.0,0.0,0.0,0.0,0.0,0.0,0.0,0.0,0.0,0.0,0.0,0.0,0.0,0.0,0.0,0.0,0.0,0.0,0.0,0.0,0.0,0.0,0.0,0.0,0.0,0.0,0.0,0.0,0.0,0.0,0.0,0.0,0.0,0.0,0.0,0.0,0.0,0.0,0.0,0.0,0.0,0.0,0.0,0.0,0.0,0.0,0.0,0.0,0.0,0.0,0.0,0.0,0.0,0.0,0.0,0.0,0.0,0.0,0.0,0.0,0.0,0.0,0.0,0.0,0.0,0.0,0.0,0.0,0.0,0.0,0.0,0.0,0.0,0.0,0.0,0.0,0.0,0.0,0.0,0.0,0.0,0.0,0.0,0.0,0.0,0.0,0.0,0.0,0.0,0.0,0.0,0.0,0.0,0.0,0.0,0.0,0.0,0.0,0.0,0.0,0.0,0.0,0.0,0.0,0.0,0.0,0.0,0.0,0.0,0.0,0.0,0.0,0.0,0.0,0.0,0.0,0.0,0.0,0.0,0.0,0.0,0.0,0.0,0.0,0.0,0.0,0.0,0.0,0.0,0.0,0.0,0.0,0.0,0.0,0.0,0.0,0.0,0.0,0.0,0.0,0.0,0.0,0.0,0.0,0.0,0.0,0.0,0.0,0.0,0.0,0.0,0.0,0.0,0.0,0.0,0.0,0.0,0.0,0.0,0.0,0.0,0.0,0.0,0.0,0.0,0.0,0.0,0.0,0.0,0.0,0.0,0.0,0.0,0.0,0.0,0.0,0.0,0.0,0.0,0.0,0.0,0.0,0.0,0.0,0.0,0.0,0.0,0.0,0.0,0.0,0.0,0.0,0.0,0.0,0.0,0.0,0.0,0.0,0.0,0.0,0.0,0.0,0.0,0.0,0.0,0.0,0.0,0.0,0.0,0.0,0.0,0.0,0.0,0.0,0.0,0.0,0.0,0.0,0.0,0.0,0.0,0.0,0.0,0.0,0.0,0.0,0.0,0.0,0.0,0.0,0.0,0.0,0.0,0.0,0.0,0.0,0.0,0.0,0.0,0.0,0.0,0.0,0.0,0.0,0.0,0.0,0.0,0.0,0.0,0.0,0.0,0.0,0.0,0.0,0.0,0.0,0.0,0.0,0.0,0.0,0.0,0.0,0.0,0.0,0.0,0.0,0.0,0.0,0.0,0.0,0.0,0.0,0.0,0.0,0.0,0.0,0.0,0.0,0.0,0.0,0.0,0.0,0.0,0.0,0.0,0.0,0.0,0.0,0.0,0.0,0.0,0.0,0.0,0.0,0.0,0.0,0.0,0.0,0.0,0.0,0.0,0.0,0.0,0.0,0.0,0.0,0.0,0.0,0.0,0.0,0.0,0.0,0.0,0.0,0.0,0.0,0.0,0.0,0.0,0.0,0.0,0.0,0.0,0.0,0.0,0.0,0.0,0.0,0.0,0.0,0.0,0.0,0.0,0.0,0.0,0.0,0.0,0.0,0.0,0.0,0.0,0.0,0.0,0.0,0.0,0.0,0.0,0.0,0.0,0.0,0.0,0.0,0.0,0.0,0.0,0.0,0.0,0.0,0.0,0.0,0.0,0.0,0.0,0.0,0.0,0.0,0.0,0.0,0.0,0.0,0.0,0.0,0.0,0.0,0.0,0.0,0.0,0.0,0.0,0.0,0.0,0.0,0.0,0.0,0.0,0.0,0.0,0.0,0.0,0.0,0.0,0.0,0.0,0.0,0.0,0.0,0.0,0.0,0.0,0.0,0.0,0.0,0.0,0.0,0.0,0.0,0.0,0.0,0.0,0.0,0.0,3.5097,3.0532,0.0,0.0,0.0,0.0,0.0,0.0,0.0,0.0,0.0,0.0,0.0,0.0,0.0,0.0,0.0,0.0,0.0,0.0,0.0,0.0,0.0,0.0,0.0,0.0,0.0,0.0,0.0,0.0,0.0,0.0,0.0,0.0,0.0,0.0,0.0,0.0,0.0,1.5268,1.6821,1.826,1.9556,2.0084,1.8984,1.6576,0.0,0.0,0.0,0.0,0.0,0.0,0.0,0.0,0.0,0.0,0.0,0.0,0.0,0.0,0.0,0.0,0.0,0.0,0.0,0.0,0.0,0.0,0.0,0.0,0.0,0.0,0.0,0.0,0.0,0.0,0.0,0.0,0.0,0.0,0.0,0.0,0.0,0.0,0.0,0.0,0.0,0.0,0.0,0.0,0.0,0.0,0.0,0.0,0.0,0.0,0.0,0.0,0.0,0.0,0.0,0.0,0.0,0.0,0.0,0.0,0.0,0.0,0.0,0.0,0.0,0.0,0.0,0.0,0.0,0.0,3.6575,3.4723,0.0,0.0,0.0,0.0,0.0,0.0,0.0,0.0,0.0,0.0,0.0,0.0,0.0,0.0,0.0,0.0,0.0,0.0,0.0,0.0,0.0,0.0,0.0,1.464,1.5078,1.5214,1.557,1.5864,0.0,0.0,0.0,0.0,0.0,0.0,1.4413,1.5015,1.5632,1.6272,1.9654,2.2467,2.4631,2.5351,2.3055,1.8423,1.8898,0.0,0.0,0.0,0.0,0.0,0.0,0.0,0.0,0.0,0.0,0.0,0.0,0.0,0.0,0.0,0.0,0.0,0.0,0.0,0.0,0.0,0.0,0.0,0.0,0.0,0.0,0.0,0.0,0.0,0.0,0.0,0.0,0.0,0.0,0.0,0.0,0.0,0.0,0.0,0.0,0.0,0.0,0.0,0.0,0.0,0.0,0.0,0.0,0.0,0.0,0.0,0.0,0.0,0.0,0.0,0.0,0.0,0.0,0.0,0.0,0.0,0.0,0.0,3.7767,3.8364,3.8981,3.8981,3.8314,3.7186,3.8928,3.9905,4.007,3.712,0.0,0.0,0.0,0.0,0.0,0.0,0.0,0.0,0.0,0.0,0.0,0.0,0.0,0.0,0.0,0.0,0.0,0.0,0.0,0.0,0.0,1.4996,1.5321,1.5977,1.4968,1.4571,1.5192,0.0,0.0,0.0,0.0,0.0,1.5971,1.6073,1.7476,2.0143,2.3985,2.6147,2.671,2.7282,2.7091,2.6275,2.5517,2.3936,2.1936,0.0,0.0,0.0,0.0,0.0,0.0,0.0,0.0,0.0,0.0,0.0,0.0,0.0,0.0,0.0,0.0,0.0,0.0,0.0,0.0,0.0,0.0,0.0,0.0,0.0,0.0,0.0,0.0,0.0,0.0,0.0,0.0,0.0,0.0,0.0,0.0,0.0,0.0,0.0,0.0,0.0,3.098,3.3767,0.0,0.0,0.0,0.0,0.0,0.0,0.0,0.0,0.0,0.0,0.0,0.0,0.0,3.6376,3.6909,4.013,4.2085,4.2868,4.5607,4.6941,4.6999,4.6999,4.6858,4.653,4.3559,0.0,3.9522,4.034,0.0,0.0,0.0,0.0,0.0,0.0,0.0,0.0,0.0,0.0,0.0,0.0,0.0,0.0,0.0,0.0,0.0,0.0,0.0,0.0,0.0,1.5767,1.6816,1.7142,1.7924,1.8141,1.7399,1.6688,0.0,0.0,1.4809,1.4724,1.5071,1.588,1.8949,2.433,2.7957,3.0676,3.2484,3.2876,3.3039,3.3022,3.258,2.9672,2.5131,2.5146,0.0,0.0,0.0,0.0,0.0,0.0,0.0,0.0,0.0,0.0,0.0,0.0,0.0,0.0,0.0,0.0,0.0,0.0,0.0,0.0,0.0,0.0,0.0,0.0,0.0,0.0,0.0,0.0,0.0,0.0,0.0,0.0,0.0,0.0,0.0,0.0,0.0,0.0,0.0,3.1232,3.3618,3.5857,3.6458,3.5552,0.0,0.0,0.0,0.0,0.0,0.0,0.0,0.0,0.0,3.78,3.9901,4.1116,4.1413,4.4928,4.7059,4.7866,4.9223,4.989,4.9855,4.9855,4.9855,4.975,4.8064,4.6765,4.5642,4.3243,4.2517,4.2658,0.0,0.0,0.0,0.0,3.562,3.7216,0.0,0.0,0.0,0.0,0.0,0.0,0.0,0.0,0.0,0.0,0.0,0.0,1.5048,1.7353,1.8904,1.8906,2.0934,2.1316,1.9229,1.8663,1.7517,1.5561,1.4842,1.4554,1.4702,1.7693,2.2285,2.8467,3.2159,3.5149,3.7478,3.7809,3.806,3.8229,3.8229,3.4597,2.8455,2.849,2.6657,2.3739,0.0,0.0,0.0,0.0,0.0,0.0,0.0,0.0,0.0,0.0,0.0,0.0,0.0,0.0,0.0,0.0,0.0,0.0,0.0,0.0,0.0,0.0,0.0,0.0,0.0,0.0,0.0,0.0,0.0,0.0,0.0,0.0,0.0,0.0,0.0,0.0,0.0,3.3977,3.5834,3.8378,3.9247,3.8766,0.0,0.0,0.0,0.0,0.0,0.0,3.9287,4.007,4.0842,4.159,4.4307,4.5937,4.6251,4.9091,5.1056,5.2067,5.2067,5.2067,5.2067,5.2067,5.2067,5.2067,5.2067,5.2067,5.1681,4.6871,4.5185,4.5607,4.501,4.3395,4.1242,4.0281,4.0924,4.2037,0.0,0.0,0.0,0.0,0.0,0.0,0.0,0.0,0.0,0.0,0.0,1.7744,1.7723,2.0102,2.169,2.1714,2.2467,2.1835,1.9281,1.9115,1.8296,1.6341,1.5591,1.5596,1.636,2.3549,2.9004,3.2517,3.6815,3.914,3.9549,4.0068,4.071,4.1364,4.1364,3.792,3.2143,3.2065,3.0558,2.7955,2.5547,0.0,0.0,0.0,0.0,0.0,0.0,0.0,0.0,0.0,0.0,0.0,0.0,0.0,0.0,0.0,0.0,0.0,0.0,0.0,0.0,0.0,0.0,0.0,0.0,0.0,0.0,0.0,0.0,0.0,0.0,0.0,0.0,0.0,0.0,0.0,0.0,0.0,0.0,4.2103,4.4519,0.0,0.0,0.0,0.0,3.9423,4.0035,4.182,4.4752,4.5611,4.7224,4.992,5.0165,5.0969,5.2437,5.2647,5.3594,5.5247,5.5247,5.5247,5.5247,5.5247,5.5247,5.5247,5.5247,5.5247,5.5001,5.1821,5.05,5.0325,4.8099,4.7129,4.6532,4.2936,4.3909,4.6848,0.0,0.0,0.0,0.0,0.0,0.0,0.0,0.0,1.4058,1.4309,1.6685,1.8261,1.7992,2.2296,2.5272,2.5489,2.7552,2.8117,2.643,2.3757,2.1347,1.9341,1.7249,1.7854,2.1517,2.7649,3.2108,3.4733,3.8441,4.0757,4.1707,4.2021,4.231,4.2587,4.2587,4.1138,3.869,3.7564,3.5119,3.1974,3.1012,2.8428,0.0,0.0,0.0,0.0,0.0,0.0,0.0,0.0,0.0,0.0,0.0,0.0,0.0,0.0,0.0,0.0,0.0,0.0,0.0,0.0,0.0,0.0,0.0,0.0,0.0,0.0,0.0,0.0,0.0,0.0,0.0,0.0,0.0,0.0,0.0,0.0,0.0,4.296,4.4354,0.0,4.507,4.5176,4.5035,4.4648,4.6146,4.7965,5.0069,5.0367,5.1417,5.3492,5.3494,5.3923,5.4933,5.4968,5.5582,5.6779,5.6706,5.6706,5.6764,5.6706,5.6722,5.6779,5.6779,5.6875,5.6897,5.5788,5.4662,5.3579,5.2739,5.2424,5.2264,5.1021,5.1448,5.2558,0.0,0.0,0.0,0.0,0.0,0.0,0.0,0.0,1.4389,1.5493,1.8013,2.0108,2.1146,2.5603,2.8737,2.9164,3.1429,3.1606,2.869,2.6037,2.3047,1.9602,1.8829,2.1435,2.7683,3.1578,3.5048,3.8153,4.0651,4.2451,4.3594,4.3694,4.3895,4.4138,4.4138,4.3825,4.3189,4.2005,3.9536,3.6359,3.548,3.2037,2.7407,0.0,0.0,0.0,0.0,0.0,0.0,0.0,0.0,0.0,0.0,0.0,0.0,0.0,0.0,0.0,0.0,0.0,0.0,0.0,0.0,0.0,0.0,0.0,0.0,0.0,0.0,0.0,0.0,0.0,0.0,0.0,0.0,0.0,0.0,3.7503,4.0553,4.4284,4.548,4.6571,4.8004,4.8415,4.8846,4.9511,5.1137,5.2637,5.3907,5.3908,5.447,5.5769,5.5711,5.6031,5.6779,5.6814,5.7257,5.8215,5.8138,5.8103,5.8215,5.8138,5.7653,5.6997,5.7837,5.7791,5.7233,5.8001,5.7669,5.6629,5.6228,5.6064,5.6079,5.6235,5.6265,5.6265,0.0,0.0,0.0,0.0,0.0,0.0,1.2915,1.3546,1.5157,1.8327,2.0611,2.3355,2.7052,2.9965,3.1897,3.2495,3.3632,3.1729,2.5609,2.5658,2.3198,1.7124,2.0417,2.6264,3.4527,3.5572,3.8284,4.2845,4.3594,4.4343,4.5138,4.5138,4.5512,4.6202,4.6202,4.5793,4.515,4.515,4.366,4.1095,3.8551,3.5236,3.157,0.0,0.0,0.0,0.0,0.0,0.0,0.0,0.0,0.0,0.0,0.0,0.0,0.0,0.0,0.0,0.0,0.0,0.0,0.0,0.0,0.0,0.0,0.0,0.0,0.0,0.0,0.0,0.0,0.0,0.0,0.0,0.0,0.0,3.5464,3.9838,4.3896,4.6399,4.8412,5.0208,5.1766,5.2474,5.3117,5.3833,5.4598,5.5398,5.6128,5.6109,5.6324,5.696,5.6944,5.7325,5.8104,5.8175,5.8709,5.9639,5.9622,5.9622,5.9674,5.9657,5.8351,5.6205,5.8622,5.8312,5.6248,5.8481,5.9489,5.9533,5.8335,5.7844,5.7844,5.786,5.786,5.786,0.0,0.0,0.0,0.0,0.0,0.0,1.3587,1.3905,1.4399,1.5295,1.9673,2.3087,2.4073,2.9188,3.2853,3.3588,3.4589,3.3769,3.0453,2.7922,2.5279,2.2377,2.5467,3.0345,3.6866,3.9553,4.1959,4.4195,4.4467,4.4956,4.5613,4.5613,4.5768,4.603,4.603,4.5987,4.5898,4.5898,4.5156,4.3924,4.2614,4.011,3.7026,0.0,0.0,0.0,0.0,0.0,0.0,0.0,0.0,0.0,0.0,0.0,0.0,0.0,0.0,0.0,0.0,0.0,0.0,0.0,0.0,0.0,0.0,0.0,0.0,0.0,0.0,0.0,0.0,0.0,0.0,0.0,3.9969,4.2898,4.3088,4.3816,4.6,5.0473,5.1472,5.259,5.4572,5.5019,5.5436,5.6091,5.6317,5.6803,5.7566,5.5833,5.5191,5.6038,5.5919,5.5949,5.616,5.7911,5.9235,6.0167,6.0082,6.0393,6.1034,6.0912,6.0548,6.0052,6.0755,6.0752,6.0303,6.0925,6.1223,6.11,5.9668,5.9171,5.9265,5.9392,5.9475,5.9116,0.0,0.0,0.0,0.0,0.0,0.0,1.3997,1.4089,1.4616,1.6022,2.0143,2.3647,2.5496,3.0381,3.3897,3.4976,3.5706,3.4236,2.9816,2.6602,2.6297,2.9491,3.1367,3.4936,4.0537,4.2544,4.4044,4.5164,4.5239,4.5448,4.5812,4.6126,4.6338,4.6415,4.6729,4.6771,4.6618,4.6555,4.615,4.5524,4.4973,4.2601,3.9241,3.8785,3.6679,3.3914,3.3241,3.2599,3.1857,3.0381,0.0,0.0,0.0,0.0,0.0,0.0,0.0,0.0,0.0,0.0,0.0,0.0,0.0,0.0,0.0,0.0,0.0,0.0,0.0,0.0,0.0,0.0,0.0,0.0,4.3521,4.7834,4.9916,4.9023,4.9672,5.3654,5.4081,5.4665,5.62,5.6651,5.6999,5.7333,5.7662,5.8059,5.8509,5.7102,5.6059,5.5594,5.6775,5.6908,5.5871,5.8586,6.0237,6.0774,6.0721,6.0962,6.1465,6.1342,6.0791,6.0,6.1034,6.0964,6.0219,6.1224,6.171,6.1658,0.0,0.0,0.0,0.0,5.9975,5.9708,0.0,0.0,0.0,0.0,0.0,0.0,1.4173,1.4136,1.53,1.8636,2.1325,2.4648,2.9078,3.2418,3.4871,3.6257,3.6355,3.3432,2.6524,2.3844,2.6808,3.6486,3.6905,3.9309,4.4363,4.4584,4.5016,4.5761,4.5844,4.5926,4.59,4.6713,4.7095,4.7108,4.7803,4.7779,4.7269,4.7187,4.6872,4.6422,4.624,4.371,4.0084,3.9979,3.8269,3.5789,3.5157,3.4483,3.3852,3.3685,0.0,0.0,0.0,0.0,0.0,0.0,0.0,0.0,0.0,0.0,0.0,0.0,0.0,0.0,0.0,0.0,0.0,0.0,0.0,0.0,0.0,0.0,0.0,0.0,4.6636,5.0906,5.5469,5.4476,5.4046,5.6097,5.6229,5.6411,5.7156,5.7716,5.8012,5.8012,5.872,5.9133,5.9133,5.8943,0.0,0.0,0.0,5.891,5.677,5.9866,6.1447,6.1551,6.1605,6.1692,6.1796,6.1708,6.051,5.8609,6.0652,6.0373,5.8628,6.0807,6.1779,6.1866,6.1135,6.0856,6.0767,5.9846,5.9755,6.0054,0.0,0.0,0.0,0.0,0.0,0.0,1.4089,1.4099,1.5293,1.8603,2.1462,2.479,2.8919,3.247,3.498,3.6049,3.3899,3.1111,2.7942,2.5637,2.8136,3.6545,3.8149,4.0576,4.4258,4.5129,4.5511,4.5476,4.623,4.6563,4.6456,4.7216,4.7616,4.7725,4.7864,4.7945,4.7926,4.79,4.7901,4.7849,4.7216,4.6125,4.481,4.4191,4.3605,4.2997,4.2228,4.1592,4.078,3.8743,3.8129,3.8082,3.7568,3.6506,0.0,0.0,0.0,0.0,0.0,0.0,0.0,0.0,0.0,0.0,0.0,0.0,0.0,0.0,0.0,0.0,0.0,0.0,0.0,4.8776,5.2088,5.5189,5.7233,5.7147,5.7126,5.7707,5.7644,5.7821,5.8529,5.8719,5.8788,5.8788,5.953,5.9978,5.9978,5.8695,5.8003,5.8053,5.8154,5.8214,5.8281,6.0826,6.2415,6.3097,6.3611,0.0,6.476,6.4212,6.3709,6.325,6.3184,6.3221,6.3318,6.3762,6.3962,6.3799,6.2374,6.1945,6.1707,5.8855,5.9541,6.1509,0.0,0.0,0.0,0.0,0.0,0.0,1.4065,1.3788,1.4134,1.5828,1.8395,2.1837,2.6536,2.8258,3.0244,3.3109,3.0084,2.8728,3.0476,3.0066,3.2987,4.0299,4.1589,4.308,4.5,4.5531,4.5662,4.5397,4.627,4.665,4.6617,4.772,4.83,4.837,4.8764,4.8799,4.8542,4.8604,4.8497,4.8264,4.7915,4.7363,4.6718,4.5946,4.5665,4.5558,4.4846,4.4227,4.3495,4.227,4.1719,4.1544,4.146,4.1039,3.9829,0.0,0.0,0.0,0.0,0.0,0.0,0.0,0.0,0.0,0.0,0.0,0.0,0.0,0.0,4.292,4.2929,0.0,4.8552,5.083,5.3046,5.5379,5.8063,5.8806,5.8943,5.8648,5.8511,5.8754,5.953,5.9599,5.9771,6.0099,6.053,6.0912,6.1222,6.0452,5.9582,5.8737,6.0259,6.0513,5.9273,6.2386,6.413,6.4555,6.4876,6.5249,6.5609,6.566,6.5688,6.5672,6.5352,6.5386,6.5688,6.5247,6.5155,6.5113,6.4328,6.3593,6.2813,6.1152,6.1667,6.2954,0.0,0.0,0.0,0.0,0.0,0.0,0.0,1.3346,1.3055,1.3905,1.5648,1.8782,2.3946,2.3982,2.4884,2.8085,2.6071,2.6708,3.1573,3.3685,3.7574,4.3951,4.4718,4.5213,4.5705,4.5756,4.5675,4.5397,4.6341,4.6824,4.6858,4.8341,4.9031,4.9065,4.972,4.9689,4.92,4.9263,4.9062,4.8679,4.8364,4.8015,4.7503,4.6565,4.6214,4.6152,4.5666,4.5122,4.469,4.4741,4.4402,4.4053,4.4579,4.506,4.4353,3.8575,3.8748,0.0,0.0,0.0,0.0,0.0,0.0,0.0,0.0,4.2047,4.3322,4.2859,4.505,4.6793,4.5902,4.7607,4.9968,5.2493,5.3597,5.5362,5.877,5.9806,6.0013,5.953,5.9461,5.9702,6.0358,6.0532,6.0861,6.1449,6.1762,6.2142,6.2709,6.2882,6.2124,6.0325,6.33,6.3786,6.1386,6.466,6.626,6.6276,6.6402,6.6464,6.65,6.702,6.7243,6.7243,6.7243,6.7243,6.7207,6.6689,6.6577,6.6721,6.6721,6.5989,6.4859,6.4416,6.4316,6.4448,0.0,0.0,0.0,0.0,0.0,0.0,0.0,0.0,1.3247,1.6904,1.7046,1.8539,2.3066,2.3632,2.2756,2.0493,2.31,2.5709,2.7717,3.2468,3.7827,4.3699,4.4823,4.5372,4.5428,4.5688,4.5675,4.5397,4.6858,4.7582,4.7617,4.9134,4.9873,4.9873,4.9976,4.9942,4.9887,4.9887,5.0004,5.0063,4.8657,4.8225,4.8227,4.674,4.6214,4.6202,4.6105,4.6057,4.5987,4.5983,4.5935,4.59,4.597,4.6043,4.5428,4.211,4.1346,4.0301,3.4579,3.1672,3.1255,3.5568,3.8428,4.0565,0.0,4.7298,5.1118,4.8489,5.163,5.4765,5.4513,5.5693,5.6794,5.7146,5.782,5.8752,5.9892,6.0151,6.0427,6.0978,6.1047,6.1082,6.1185,6.1708,6.2095,6.22,6.339,6.4148,6.4227,6.4852,6.5417,6.5793,6.6278,6.6693,6.7002,6.8123,6.8702,6.8717,6.9304,6.9598,6.9569,6.9067,6.8847,6.8847,6.8847,6.8847,6.8856,6.9369,6.9598,6.9612,6.9612,6.9586,6.927,6.6827,6.5925,6.597,0.0,0.0,0.0,0.0,0.0,0.0,0.0,0.0,0.0,1.4232,1.3456,1.4629,1.961,2.0596,1.9264,1.5207,1.8837,2.2778,2.6105,3.1856,3.7768,4.3641,4.4777,4.5396,4.5649,4.5752,4.5675,4.5397,4.6514,4.7065,4.7065,4.8252,4.9034,4.9463,4.9548,4.9819,5.02,4.9749,4.9702,4.979,4.866,4.8081,4.7783,4.7139,4.6612,4.5923,4.387,4.3112,0.0,4.3112,4.3112,4.3467,4.555,4.4789,4.2968,4.2236,4.0535,3.8456,3.66,3.7124,3.8813,4.1162,4.4846,4.8116,4.9193,5.2343,5.4673,5.3342,5.5347,5.7254,5.7109,5.633,5.6356,5.8235,5.7601,5.7626,5.9858,6.0978,6.1812,6.2492,6.0558,5.8957,5.847,6.1562,6.2612,6.0342,6.3253,6.5544,6.6433,6.6772,6.7291,6.8069,6.85,6.8681,6.8591,6.9311,6.9682,6.9682,6.9961,7.011,7.011,7.0295,7.0362,7.0362,7.0362,7.0106,6.9697,6.9975,7.011,7.011,7.011,7.0115,7.0055,6.8972,6.8666,6.882,0.0,0.0,0.0,0.0,0.0,0.0,0.0,0.0,0.0,0.0,1.0707,1.1407,1.5691,1.6662,1.5666,1.2235,1.6225,2.0767,2.5114,3.1217,3.7228,4.302,4.4319,4.508,4.5468,4.5715,4.5714,4.5397,4.6203,4.6583,4.6631,4.7451,4.8162,4.8709,4.8806,4.916,4.9611,4.909,4.8943,4.8996,4.8233,4.7709,4.7324,4.7139,4.6089,4.4412,4.182,4.0892,4.0734,3.9782,4.0101,4.1182,4.2766,4.2193,4.0897,4.0763,3.8487,3.6403,3.8251,4.0601,4.3216,4.5916,4.966,5.3098,5.453,5.6024,5.6955,5.6735,5.7633,5.8421,5.8253,5.6744,5.6361,5.8908,5.7964,5.7821,6.0462,6.2109,6.2769,6.197,5.9662,5.6978,5.4027,5.9467,6.2599,6.1286,6.4492,6.7084,6.8451,6.8502,6.8771,6.9368,7.0082,7.0206,6.9695,7.0411,7.077,7.077,7.077,7.077,7.077,7.138,7.1637,7.1637,7.1637,7.1321,7.077,7.077,7.077,7.077,7.0812,7.0812,7.0784,7.0901,7.0756,7.0547,0.0,0.0,0.0,0.0,0.0,0.0,0.0,0.0,0.0,0.0,0.0,0.0,0.0,1.2219,1.2226,1.2035,1.6411,2.0739,2.4408,3.0409,3.6176,4.1429,4.3239,4.4284,4.463,4.5511,4.5803,4.5397,4.6203,4.6583,4.6617,4.7341,4.772,4.7734,4.7734,4.7769,4.7769,4.7769,4.7831,4.7891,4.7269,4.71,4.7162,4.6493,4.407,4.106,4.0928,4.0892,4.0356,3.6913,3.8061,4.0321,3.6977,3.8223,4.0376,3.7738,3.5615,3.499,3.919,3.9032,3.9551,4.7086,5.024,5.2298,5.5594,5.7541,5.8548,5.8223,5.873,5.9217,5.8995,5.8909,5.9133,6.0013,6.0661,6.1332,6.2311,6.3593,6.2773,5.8292,5.8821,5.6273,4.7902,5.478,6.1955,6.7221,6.8339,6.9151,6.9972,7.0008,7.0045,7.0045,7.0866,7.1256,7.1242,7.2041,7.2422,7.2422,7.2422,7.2422,7.2422,7.2459,7.2459,7.2459,7.2459,7.2459,7.2422,7.2422,7.2422,7.2437,7.2579,7.2537,7.2437,7.2579,7.1558,7.0151,0.0,0.0,0.0,0.0,0.0,0.0,0.0,0.0,0.0,0.0,0.0,0.0,0.0,0.0,0.0,0.0,1.4812,1.7783,2.1989,2.7172,3.2512,3.7969,4.1378,4.3289,4.3642,4.4565,4.4896,4.4665,4.541,4.5864,4.5956,4.6198,4.6645,4.7237,4.733,4.7648,4.8052,4.7578,4.7448,4.7508,4.6676,4.6412,4.6295,4.4257,4.2392,4.0343,0.0,3.4288,3.366,3.2507,3.2836,3.3924,3.4537,3.4321,3.3391,3.1131,3.4134,3.8214,3.8376,4.2114,4.6737,4.9839,5.346,5.6526,5.7658,5.8537,5.9071,5.8954,5.7324,5.6058,5.6547,5.4851,5.4492,5.7924,5.6447,5.6986,6.2991,5.9269,5.787,6.3008,5.8983,5.7254,6.1092,6.1276,6.0811,6.0136,6.6061,7.0036,7.083,7.0903,7.1138,7.1688,7.1982,7.2078,7.2078,7.2349,7.2496,7.2496,7.2496,7.2496,7.2496,7.2496,7.2496,7.2496,7.2496,7.2496,7.2496,7.2496,7.2496,7.2496,7.2539,7.2539,7.2496,7.2539,7.2265,7.1829,0.0,0.0,0.0,0.0,0.0,0.0,0.0,0.0,0.0,0.0,0.0,0.0,0.0,0.0,0.0,0.0,0.0,1.6189,2.0073,2.4005,2.8393,3.3336,3.6578,3.8424,3.8681,4.0799,4.1859,4.1766,4.3799,4.4965,4.5319,4.5281,4.5723,4.6504,4.6646,4.6977,4.7396,4.6907,4.6749,4.6663,4.4857,4.4179,4.3908,4.0917,3.8653,0.0,3.2437,2.9846,2.836,2.836,2.9201,3.0308,3.0772,3.0104,2.9524,3.139,3.5385,3.9615,4.1496,4.6348,5.1399,5.3496,5.6571,5.9066,5.8937,5.9172,5.9369,5.9234,5.7628,5.6029,5.5124,5.3433,5.3352,5.6967,5.5636,5.6646,6.3883,6.053,5.9167,6.3995,5.9904,5.8831,6.4217,6.3554,6.1721,5.9224,6.434,6.8075,6.9164,6.8943,6.9945,7.2422,7.2496,7.2496,7.2496,7.2496,7.2496,7.2496,7.2496,7.2496,7.2496,7.2496,7.1423,6.9678,7.1643,7.1386,6.9715,7.168,7.2496,7.2496,7.2553,7.2567,7.2582,7.2638,7.2723,7.2793,0.0,0.0,0.0,0.0,0.0,0.0,0.0,0.0,0.0,0.0,0.0,0.0,0.0,0.0,0.0,0.0,0.0,0.0,1.8644,2.1082,2.4111,2.7905,2.9575,3.0456,3.0514,3.4674,3.6828,3.6807,4.0999,4.3429,4.4128,4.4148,4.4443,4.5025,4.5199,4.5249,4.5249,4.5297,4.5262,4.4916,4.1671,4.036,3.9984,3.6608,3.3177,3.0184,3.0022,2.7793,2.4895,2.4971,2.7334,2.9697,2.6535,2.6637,2.9513,3.7676,3.9039,3.9655,4.7851,5.1183,5.3394,5.7693,5.9273,5.9716,5.9386,5.9453,5.9433,5.8804,5.9092,5.8233,5.4358,5.4015,5.4939,5.698,5.7665,5.9677,6.4665,6.63,6.544,6.1332,6.152,6.0921,5.8291,6.2077,6.4635,6.4377,6.3861,6.4254,6.5778,6.5139,6.7124,7.2349,7.2496,7.2496,7.2496,7.2496,7.2496,7.2496,7.2496,7.2496,7.2496,7.2496,6.9642,6.5016,7.0253,6.9545,6.5126,7.0363,7.2496,7.251,7.2675,7.2732,7.2783,7.3024,7.3079,7.3065,0.0,0.0,0.0,0.0,0.0,0.0,0.0,0.0,0.0,0.0,0.0,0.0,0.0,0.0,0.0,0.0,0.0,0.0,1.6543,1.9827,2.2611,2.4725,2.787,2.9576,2.9483,3.1215,3.1837,3.1182,3.3447,3.4677,3.4995,3.6139,3.6796,3.7055,3.7762,3.8058,3.8067,3.815,3.7846,3.7211,3.6312,3.5932,3.5622,3.2682,3.0999,2.9928,2.7867,2.6165,2.5005,2.5599,2.8152,3.1495,3.3806,3.5219,3.6175,3.6946,4.1785,4.6921,4.699,5.1988,5.7568,5.902,5.9496,5.9586,5.9352,5.9617,5.888,5.5209,5.3029,5.0633,4.6706,4.4646,4.5963,5.3377,5.2294,5.3199,6.081,5.9166,5.8316,6.1263,6.2315,6.4082,6.7416,6.9348,6.8947,6.5446,6.8225,7.0275,7.0693,7.051,7.1033,7.2459,7.2496,7.2496,7.2496,7.2496,7.2496,7.2496,7.2496,7.2496,7.2496,7.2496,7.1739,7.0496,7.1886,7.1717,7.0533,7.1923,7.2496,7.2569,7.32,7.3435,7.3508,7.4176,7.4484,7.4548,0.0,0.0,0.0,0.0,0.0,0.0,0.0,0.0,0.0,0.0,0.0,0.0,0.0,0.0,0.0,0.0,0.0,0.0,0.0,1.7658,1.9402,2.0241,2.272,2.4028,2.3977,2.6077,2.7127,2.7055,2.9471,3.1217,3.2361,3.2811,3.3593,3.4639,3.4795,3.5103,3.5431,3.5531,3.5294,0.0,0.0,3.2776,3.2727,2.9646,2.8427,2.8217,2.665,2.6027,2.6393,2.9253,3.0982,3.2949,3.8816,4.031,4.0522,4.3704,4.7642,5.1056,5.1405,5.525,5.9178,5.9399,5.9453,5.8965,5.696,5.6488,5.5109,5.0171,4.7927,4.5527,4.1258,4.02,4.258,5.0648,5.0749,5.2353,5.9632,5.8386,5.8124,6.1969,6.283,6.5407,7.1248,7.2239,7.14,6.8777,6.8763,6.9044,6.9412,6.9081,7.0009,7.2422,7.2496,7.2496,7.2496,7.2496,7.2496,7.2496,7.2496,7.2496,7.2496,7.2496,7.118,6.9044,7.1827,7.1657,6.9655,7.24,7.356,7.3597,7.4037,7.4265,7.436,7.4838,7.5073,7.5254,0.0,0.0,0.0,0.0,0.0,0.0,0.0,0.0,0.0,0.0,0.0,0.0,0.0,0.0,0.0,0.0,0.0,0.0,0.0,0.0,1.5876,1.5993,1.6888,1.7376,1.7384,2.0696,2.2786,2.3471,2.6653,2.9325,3.1349,3.0862,3.162,3.3412,3.3073,3.3313,3.3938,3.4047,3.4011,3.3662,3.0628,2.9901,3.0294,0.0,2.6116,2.6261,2.6155,2.6556,2.7987,3.3623,3.4666,3.4965,4.2745,4.4112,4.4437,5.2555,5.3985,5.3632,5.7024,5.8644,5.9352,5.9368,5.9401,5.8456,5.4797,5.307,5.0728,4.5561,4.3858,4.2066,3.8021,3.8995,4.253,4.9019,5.1389,5.3913,5.8212,6.0001,6.1183,6.2043,6.2719,6.5578,7.1886,7.1835,7.1702,7.2459,6.8078,6.5703,6.6379,6.5777,6.7576,7.2349,7.2496,7.2496,7.2496,7.2496,7.2496,7.2496,7.2496,7.2496,7.2496,7.2606,7.0046,6.585,7.1428,7.1148,6.7174,7.2649,7.4903,7.4903,7.5014,7.5154,7.5301,7.5374,7.5535,7.5729,0.0,0.0,0.0,0.0,0.0,0.0,0.0,0.0,0.0,0.0,1.0447,0.9686,0.0,0.0,0.0,0.0,0.0,0.0,0.0,0.0,0.0,1.5956,1.6836,1.7337,1.7384,1.8725,1.9154,1.8598,1.9932,2.0794,2.1184,2.3131,2.3872,2.3638,2.5555,2.6166,2.5693,2.6358,2.6304,2.5676,2.5088,2.5344,2.5985,2.5347,2.5952,0.0,2.6333,2.6193,2.7265,3.3483,3.7104,4.0239,4.7462,5.0783,5.2012,5.2081,5.4691,5.7024,5.4779,5.6788,5.9602,5.9811,6.0005,6.0012,5.9615,5.6304,5.1762,4.6276,4.1897,3.9028,3.8841,3.9705,4.2724,4.9824,5.1778,5.1602,4.9345,5.634,6.0591,5.7597,6.0653,6.5527,7.1872,6.8328,6.7534,7.2165,7.1606,7.1143,7.129,7.1143,7.1496,7.2459,7.2496,7.2496,7.2496,7.2496,7.2496,7.2496,7.2496,7.2496,7.2532,7.3193,7.2965,7.2186,7.3942,7.4147,7.3369,7.4441,7.4903,7.4977,7.5616,7.6014,7.6273,7.6921,7.7282,7.7377,0.0,0.0,0.0,0.0,0.0,0.0,0.0,1.1447,1.0975,1.1856,1.1296,1.0726,1.0365,0.9961,1.0048,0.0,0.0,0.0,0.0,0.0,0.0,1.5213,1.6108,1.6865,1.7328,1.7792,1.8194,1.8604,0.0,1.9079,1.9804,2.068,2.1585,2.2489,2.3212,2.3819,2.43,2.4708,2.4643,2.4327,2.4344,2.484,2.5628,2.6057,2.6926,0.0,2.6537,2.6356,2.7341,3.1397,3.4608,3.8539,4.7932,5.2678,5.432,5.2063,5.5085,5.8282,5.428,5.6263,5.9536,5.9908,6.0065,5.8951,5.4456,5.1278,4.7001,3.8846,3.4606,3.251,3.2878,3.3626,3.7335,4.702,5.0,5.1611,5.3055,5.7854,6.0826,5.98,6.1662,6.4585,6.8415,6.6397,6.5919,6.8599,6.882,6.9894,7.2386,7.2496,7.2496,7.2496,7.2496,7.2496,7.2496,7.2496,7.2496,7.2496,7.2496,7.2716,7.312,7.3523,7.3927,7.4368,7.5175,7.3868,7.1451,7.4912,7.4588,7.2327,7.5669,7.7054,7.7201,7.7555,7.7747,7.782,0.0,0.0,0.0,0.0,0.0,0.0,0.0,1.2138,1.1886,1.2364,1.2137,1.1747,1.1398,1.0506,1.0116,0.0,0.0,0.0,0.0,0.0,0.0,0.0,0.0,0.0,1.698,0.0,0.0,1.9407,1.9038,0.0,0.0,0.0,0.0,0.0,2.2734,2.3301,2.4389,2.4726,2.4884,0.0,0.0,2.5456,2.629,0.0,0.0,0.0,0.0,2.6642,2.7353,2.9422,3.1513,3.5015,4.4978,5.0141,5.2367,5.1576,5.4478,5.7482,5.5123,5.683,5.9351,5.9876,6.0097,5.806,4.9892,4.6593,4.2576,3.3127,2.9073,2.7623,2.8966,2.9626,3.3612,4.4893,4.7529,5.0435,5.6973,5.8722,6.0296,6.2793,6.3112,6.4094,6.6654,6.5858,6.5638,6.6838,6.6912,6.8562,7.2312,7.2496,7.2496,7.2496,7.2496,7.2496,7.2496,7.2496,7.2496,7.2496,7.2679,7.3083,7.3722,7.4052,7.4551,7.5197,7.6019,7.32,6.8543,7.4977,7.4327,6.9877,7.5553,7.7835,7.7827,7.7827,7.7856,7.7937,0.0,0.0,0.0,0.0,0.0,0.0,0.0,1.2373,1.2243,1.37,1.2684,1.2092,1.2835,1.1589,1.0447,0.0,0.0,0.0,0.0,0.0,0.0,0.0,0.0,0.0,0.0,0.0,0.0,1.8437,1.9082,0.0,0.0,0.0,0.0,0.0,0.0,2.3174,2.2721,2.4182,0.0,0.0,0.0,0.0,0.0,0.0,0.0,0.0,0.0,2.684,2.6615,2.9291,3.085,3.2485,3.7443,4.1195,4.4728,4.9674,5.1871,5.3581,5.7642,5.8888,5.92,5.986,6.0421,5.9445,5.4158,4.8829,4.3335,3.7301,3.133,2.8966,3.4776,3.5293,3.7833,4.6991,4.5106,4.4931,5.2047,5.4378,5.7265,6.2473,6.3064,6.5343,7.1262,6.729,6.6421,7.1482,7.1849,7.2018,7.2496,7.2496,7.2496,7.2496,7.2496,7.2496,7.2496,7.2496,7.2496,7.2496,7.323,7.3634,7.3758,7.5212,7.5909,7.6019,7.6848,7.4045,6.9328,7.5198,7.4327,6.9877,7.5553,7.7871,7.8,7.8,7.8085,7.8248,0.0,0.0,0.0,0.0,0.0,0.0,1.3294,1.3091,1.3211,1.4056,1.3574,1.3135,1.3094,1.2492,1.178,1.1078,0.0,0.0,0.0,0.0,0.0,0.0,0.0,0.0,0.0,0.0,1.7383,1.8246,1.865,0.0,0.0,0.0,0.0,0.0,0.0,2.2828,2.3021,2.4354,0.0,0.0,0.0,0.0,0.0,0.0,0.0,0.0,0.0,0.0,2.6174,2.6758,2.7499,2.8458,3.015,3.1906,3.4474,4.0365,4.6397,5.1276,5.1538,5.5507,5.9841,6.0876,6.1329,5.9226,5.0415,4.6634,4.2452,3.3549,2.9298,2.8285,3.1847,3.1784,3.3804,4.1683,4.1831,4.4416,5.4488,5.6847,5.9978,6.6557,6.729,6.7534,6.8158,6.6213,6.5845,6.8061,6.7791,6.899,7.2312,7.2496,7.2496,7.2496,7.2496,7.2496,7.2496,7.2582,7.2582,7.2496,7.339,7.4015,7.4478,7.5579,7.635,7.6864,7.7286,7.2336,6.4733,7.4002,7.2536,6.5357,7.4536,7.8136,7.8193,7.8193,7.8235,7.829,0.0,0.0,0.0,0.0,0.0,1.3147,1.3282,1.3538,1.377,1.4015,1.4037,1.3837,1.3417,1.3281,1.3051,1.2567,1.263,0.0,0.0,0.0,0.0,0.0,0.0,0.0,0.0,0.0,1.6934,1.8374,1.8463,1.9015,0.0,0.0,2.0155,2.0909,0.0,0.0,0.0,0.0,0.0,0.0,0.0,0.0,0.0,0.0,0.0,0.0,0.0,0.0,0.0,0.0,0.0,2.5592,2.534,2.5662,2.7352,3.3763,4.1541,4.8051,4.769,5.3335,5.9549,6.0633,6.0002,5.6503,4.6636,4.3234,3.9553,3.0328,2.774,2.7711,2.9406,2.8983,3.0777,3.8024,3.9672,4.3799,5.4595,5.6814,5.9992,6.7193,6.8025,6.7878,6.7523,6.7487,6.7487,6.7487,6.6998,6.8432,7.2333,7.261,7.2596,7.2496,7.2539,7.2539,7.2496,7.2638,7.2638,7.2496,7.3662,7.3566,7.2524,7.5212,7.5873,7.4948,7.6788,7.2139,6.402,7.3909,7.2338,6.4668,7.4487,7.829,7.829,7.829,7.829,7.829,0.0,0.0,0.0,0.0,0.0,0.0,1.3094,1.3435,1.3705,1.3709,1.388,1.3987,1.3998,1.3998,1.4009,1.3998,1.2699,0.0,0.0,0.0,0.0,0.0,0.0,0.0,0.0,0.0,1.7391,1.8802,1.8793,1.9682,2.1351,2.0616,2.0401,2.0607,0.0,0.0,0.0,0.0,0.0,0.0,0.0,0.0,0.0,0.0,0.0,0.0,0.0,0.0,0.0,0.0,0.0,0.0,0.0,2.3542,2.4987,3.2368,3.8123,4.3266,4.8698,5.3865,5.7842,5.8401,5.5492,5.0808,4.4375,3.9131,3.4231,2.9415,2.774,2.7711,2.9406,2.8983,3.0777,3.8024,3.9225,4.2032,5.0157,5.1963,5.5114,6.2326,6.3161,6.5628,7.1812,7.2422,7.2422,7.2422,7.2551,7.2635,7.2709,7.2899,7.2844,7.2496,7.2624,7.2638,7.2496,7.2638,7.2638,7.2532,7.4111,7.2025,6.6938,7.4067,7.4287,6.9402,7.5124,7.4401,6.9669,7.5574,7.4674,7.0202,7.601,7.829,7.829,7.829,7.829,7.829,0.0,0.0,0.0,0.0,0.0,0.0,0.0,1.3193,1.337,1.3531,1.3617,1.369,1.3713,1.382,1.3872,1.3866,1.3526,0.0,0.0,0.0,0.0,0.0,0.0,0.0,0.0,0.0,1.7307,1.8798,1.8802,1.9607,2.1207,2.0976,2.0648,2.0366,2.0935,2.1306,0.0,0.0,0.0,0.0,0.0,0.0,2.603,0.0,0.0,0.0,0.0,0.0,0.0,0.0,0.0,0.0,0.0,0.0,0.0,2.5651,3.0472,3.5836,3.8595,4.3324,4.7657,4.8296,4.7465,4.4854,3.8479,3.5821,3.3337,2.8563,2.7373,2.7711,2.9406,2.9476,3.1466,3.8105,3.9188,4.3138,5.4384,5.6198,5.9241,6.6985,6.887,7.0312,7.2312,6.905,6.8442,7.2344,6.9141,6.8702,7.2488,7.2751,7.2737,7.2638,7.2681,7.2638,7.2496,7.2638,7.2896,7.334,7.447,7.2344,6.7623,7.4287,7.425,6.9328,7.5088,7.4437,6.9743,7.5574,7.4711,7.0276,7.6047,7.829,7.829,7.829,7.829,7.829,0.0,0.0,0.0,0.0,0.0,0.0,0.0,1.3105,1.3222,1.3361,1.3469,1.3584,1.3655,1.3736,1.3815,1.3895,1.3973,0.0,0.0,0.0,0.0,0.0,0.0,0.0,0.0,1.7267,1.7784,1.9581,1.9291,2.0109,2.1921,2.1652,2.1156,2.0543,2.0792,2.1002,0.0,0.0,0.0,0.0,0.0,0.0,2.4939,0.0,0.0,0.0,0.0,0.0,0.0,0.0,0.0,0.0,0.0,0.0,0.0,0.0,2.4512,2.8732,3.2352,3.7345,4.1704,4.2644,4.1547,3.9095,3.4791,3.2672,3.0781,2.7798,2.9144,3.0629,2.9847,3.1479,3.3708,3.6111,3.9551,4.4475,5.1849,5.4482,5.7928,6.407,6.7219,6.9871,7.2275,6.938,6.8796,7.2367,6.9473,6.902,7.2525,7.2821,7.2863,7.2807,7.2737,7.2667,7.2582,7.2723,7.3128,7.3794,7.4705,7.2548,6.8028,7.4397,7.425,6.9328,7.5088,7.5624,0.0,7.6414,7.5903,7.3207,7.6782,7.8235,7.829,7.829,7.829,7.8304,0.0,0.0,0.0,0.0,0.0,0.0,0.0,1.3121,1.3273,1.3197,1.3412,1.3605,1.3744,1.3751,1.3844,1.4044,0.0,0.0,0.0,0.0,0.0,0.0,0.0,0.0,1.8612,1.7999,1.8718,2.0897,2.0136,2.0978,2.3271,2.2569,2.1855,2.108,2.0476,2.055,0.0,0.0,0.0,0.0,2.3095,2.3215,0.0,0.0,0.0,0.0,0.0,0.0,0.0,0.0,0.0,0.0,0.0,0.0,0.0,0.0,0.0,0.0,0.0,3.4589,3.8494,3.9888,3.6882,3.342,3.2595,2.9675,0.0,2.769,3.2644,3.5535,3.1094,3.4939,3.7455,3.3269,4.0456,4.6083,4.4718,4.8907,5.3096,5.5673,6.0529,6.5884,7.1445,7.2312,7.2496,7.251,7.2624,7.2709,7.2709,7.3009,7.3105,7.2968,7.2765,7.2709,7.2723,7.2899,7.3084,7.3312,7.4601,7.2401,6.7453,7.4214,7.425,6.9328,7.5073,7.7605,7.762,7.7732,7.7856,7.8,7.8014,7.8099,7.8276,7.829,7.829,7.8304,0.0,0.0,0.0,0.0,0.0,0.0,0.0,0.0,0.0,0.0,1.3152,1.3226,1.3256,1.3354,1.3513,0.0,0.0,0.0,0.0,0.0,0.0,0.0,0.0,0.0,1.8612,1.8457,1.9205,2.0897,2.0715,2.1508,2.3139,2.2969,2.2229,2.1026,2.1386,2.1613,0.0,0.0,0.0,0.0,2.385,2.4034,0.0,0.0,0.0,0.0,2.4646,2.4597,0.0,0.0,0.0,0.0,0.0,0.0,0.0,0.0,1.9997,2.0758,2.3712,0.0,2.7451,2.8404,2.7787,2.6883,0.0,2.6443,2.7672,3.2525,3.5346,3.6727,3.6143,4.0761,4.308,3.8293,4.3609,4.8344,4.8464,5.4706,5.8463,5.6209,6.4426,6.9431,6.7266,7.0372,7.2539,7.2653,7.2681,7.2709,7.2709,7.2779,7.2751,7.261,7.2567,7.2653,7.2927,7.2807,7.101,6.7598,7.2588,7.022,6.1823,7.2443,7.425,6.9328,7.4919,7.7463,7.762,7.7614,7.7732,7.7842,7.7971,7.8043,7.8085,7.8248,7.829,7.829,0.0,0.0,0.0,0.0,0.0,0.0,0.0,0.0,0.0,0.0,0.0,0.0,0.0,0.0,0.0,0.0,0.0,0.0,0.0,0.0,0.0,0.0,0.0,1.8598,1.8655,1.8662,1.9411,2.094,2.0913,2.1707,2.3175,2.3175,2.2582,2.156,2.1866,2.1843,0.0,0.0,0.0,0.0,2.3252,0.0,0.0,0.0,0.0,0.0,2.4108,2.3909,0.0,2.3025,2.2741,2.2467,0.0,0.0,0.0,0.0,1.9518,2.0051,2.1372,2.2352,2.3825,2.7591,2.6588,2.5355,2.7928,2.7496,2.8258,3.4256,3.6553,3.7617,3.7949,4.0875,4.2365,3.9723,4.2478,4.6306,5.0036,5.4872,5.7385,5.5642,6.1022,6.4917,6.5029,6.967,7.27,7.277,7.2784,7.2751,7.261,7.2667,7.2667,7.2596,7.2667,7.2788,7.2849,7.2751,7.0334,6.5681,7.1982,7.0873,6.3628,7.3016,7.5667,7.281,7.3288,7.4992,7.7242,7.4727,7.5256,7.7718,7.7806,7.7885,7.8028,7.8113,7.8235,7.8304,0.0,0.0,0.0,0.0,0.0,0.0,0.0,0.0,0.0,0.0,0.0,0.0,0.0,0.0,0.0,0.0,0.0,0.0,0.0,0.0,0.0,0.0,1.7887,1.8645,1.8711,1.8564,1.9277,2.0811,2.0758,2.1559,2.3118,2.323,2.2959,2.2333,2.2118,2.1696,0.0,0.0,0.0,2.1375,2.232,0.0,0.0,0.0,0.0,0.0,0.0,0.0,0.0,2.2124,2.193,2.1825,2.0882,0.0,0.0,0.0,0.0,0.0,2.0818,2.1761,2.4169,3.124,2.8834,2.6189,3.1911,3.0076,2.9069,3.5622,3.8287,3.9421,3.9307,4.1272,4.2179,3.9804,4.0812,4.4251,5.0982,5.372,5.5082,5.5149,5.7143,6.0174,6.4407,6.9736,7.2936,7.2976,7.2936,7.2798,7.2582,7.2638,7.2681,7.2681,7.2863,7.2863,7.2681,7.2695,7.026,6.5496,7.1964,7.2446,6.7844,7.4346,7.7289,7.7032,7.231,7.292,7.6922,7.22,7.3153,7.7575,7.7605,7.7747,7.7943,7.8,7.8099,7.8304,0.0,0.0,0.0,0.0,0.0,0.0,0.0,0.0,0.0,0.0,0.0,0.0,0.0,0.0,0.0,0.0,0.0,0.0,0.0,0.0,0.0,1.7303,1.8152,1.8655,1.8783,1.807,1.8447,1.9977,1.9972,2.0742,2.2224,2.2905,2.3164,2.3029,2.2312,2.1937,2.1843,0.0,2.2168,2.2157,2.2603,0.0,0.0,0.0,0.0,0.0,0.0,0.0,0.0,2.1148,2.1323,2.148,1.945,0.0,0.0,0.0,0.0,0.0,2.0678,2.2178,2.4852,3.1395,2.8834,2.6339,3.2655,3.0525,3.0328,4.1445,4.4477,4.5133,4.5109,5.3,5.5111,4.1586,4.4722,5.0019,5.3322,5.8037,5.9973,5.6809,6.4647,6.9083,6.6094,7.0084,7.298,7.322,7.3007,7.2894,7.2839,7.2653,7.2524,7.2524,7.277,7.277,7.2524,7.2638,6.9965,6.466,7.1631,7.2075,6.7022,7.4089,7.7289,7.7252,7.6387,7.6533,7.7252,7.6387,7.6549,7.7372,7.7524,7.765,7.7688,7.7914,7.8028,7.8113,0.0,0.0,0.0,0.0,0.0,0.0,0.0,0.0,0.0,0.0,0.0,0.0,0.0,0.0,0.0,0.0,0.0,0.0,0.0,0.0,1.725,1.8127,1.8482,1.8683,1.8729,1.8773,1.9333,2.0447,2.0447,2.1187,2.2664,2.3034,2.2994,2.2606,2.2195,2.1779,2.1427,2.1814,2.1856,2.1748,0.0,0.0,0.0,0.0,0.0,0.0,0.0,0.0,0.0,0.0,2.0516,2.0772,1.8974,0.0,0.0,0.0,0.0,0.0,2.0042,2.1614,2.5086,3.4482,3.1416,2.9059,4.0652,3.5274,3.2008,4.6664,4.3482,3.989,4.5972,4.9331,4.9872,4.6015,5.3392,5.9084,5.7687,6.0865,6.2541,6.0292,6.5531,6.8307,6.5904,7.0362,7.345,7.354,7.3476,7.327,7.3031,7.2894,7.2742,7.261,7.2867,7.2839,7.2496,7.2686,6.9932,6.4353,7.1061,7.1547,6.6838,7.3589,7.6885,7.7142,7.4118,7.4507,7.7069,7.4081,7.4581,7.7326,7.7402,7.7493,7.7614,7.79,7.8127,7.8308,0.0,0.0,0.0,0.0,0.0,0.0,0.0,0.0,0.0,0.0,0.0,0.0,0.0,0.0,0.0,0.0,0.0,0.0,0.0,0.0,1.7776,1.8591,1.8678,1.8711,1.8715,1.9296,1.9901,2.0422,2.0634,2.1492,2.2929,2.2934,2.2647,2.2074,2.1825,2.1415,2.0915,2.1491,2.1631,2.1565,0.0,0.0,0.0,0.0,0.0,0.0,0.0,0.0,0.0,0.0,0.0,0.0,0.0,0.0,0.0,1.7402,1.769,1.8677,1.9529,2.115,2.5111,3.5773,3.2624,3.1192,4.7481,3.9368,3.3258,5.0306,4.3556,3.7611,4.7603,4.5649,4.4756,5.1614,5.9916,6.4817,6.2926,6.4547,6.5772,6.5301,6.6862,6.7841,6.7449,7.1282,7.3827,7.3888,7.3839,7.3628,7.3283,7.3138,7.299,7.2839,7.3057,7.3017,7.2672,7.2894,7.0689,6.62,7.1276,7.179,6.8429,7.3699,7.649,7.6896,7.2743,7.3405,7.7065,7.2743,7.3457,7.7289,7.7289,7.7433,7.7614,7.79,7.8211,7.8536,0.0,0.0,0.0,0.0,0.0,0.0,0.0,0.0,0.0,0.0,0.0,0.0,0.0,0.0,0.0,0.0,0.0,0.0,0.0,0.0,1.7463,1.8398,1.8598,1.872,1.8788,1.8803,1.8792,1.8754,1.9522,2.0659,2.2192,2.2118,2.2101,2.2053,2.1251,2.0877,2.0807,2.0915,2.1569,2.2516,2.271,0.0,0.0,0.0,0.0,0.0,0.0,0.0,0.0,0.0,0.0,0.0,0.0,0.0,1.7997,1.6464,1.7134,1.8612,1.9454,2.1529,2.5039,3.1825,2.9767,3.0637,4.8043,3.9776,3.3429,5.1167,4.9775,4.7252,5.3423,5.0594,4.995,5.8012,5.9574,6.2083,6.8758,7.0632,7.1556,7.2121,7.2826,7.3291,7.3372,7.3626,7.3912,7.4151,7.3949,7.379,7.3765,7.3217,7.3007,7.3246,7.3272,7.3272,7.3246,7.3259,7.2809,7.1908,7.3134,7.3538,7.3244,7.5212,7.6294,7.6647,7.6706,7.7104,7.7725,7.7022,7.6922,7.7289,7.7289,7.7433,7.7614,7.79,7.8211,7.8549,0.0,0.0,0.0,0.0,0.0,0.0,0.0,0.0,0.0,0.0,0.0,0.0,0.0,0.0,0.0,0.0,0.0,0.0,0.0,1.7497,1.7873,1.7909,1.8357,1.842,1.8004,1.937,2.0057,2.0042,2.0298,2.0978,2.2035,2.2025,2.2019,2.2036,2.1702,2.1304,2.0886,2.1517,2.2023,2.2448,2.2713,2.2868,0.0,0.0,0.0,0.0,0.0,0.0,0.0,0.0,1.8657,1.8362,1.6749,1.6818,1.7414,1.6805,1.7513,1.8628,1.9482,2.1546,2.5764,3.52,3.2482,3.1944,4.8966,4.333,3.9364,5.6535,5.086,4.3833,4.7215,5.174,5.6143,5.9834,6.327,6.6657,7.0052,7.1363,7.2213,7.2921,7.3625,7.4068,7.4115,7.408,7.4092,7.4186,7.4104,7.4021,7.3937,7.3715,7.354,7.3501,7.3628,7.3603,7.3311,7.3553,7.3452,7.3017,7.2975,7.323,7.3722,7.4484,7.549,7.663,7.6969,7.7361,7.7806,7.7651,7.7472,7.7289,7.7289,7.7457,7.7747,7.7928,7.8267,7.8655,0.0,0.0,0.0,0.0,0.0,0.0,0.0,0.0,0.0,0.0,0.0,0.0,0.0,0.0,0.0,0.0,0.0,0.0,1.7085,1.7878,1.8063,1.7417,1.815,1.836,1.7844,1.9583,2.0398,2.0178,2.0634,2.1121,2.1678,2.1908,2.2007,2.1978,2.1806,2.1598,2.1394,2.2101,2.2427,2.2504,2.278,2.2602,0.0,0.0,0.0,0.0,0.0,0.0,0.0,0.0,1.804,1.7641,1.6531,1.6596,1.7111,1.7414,1.8127,1.9027,1.9839,2.1761,2.5918,3.5951,3.3388,3.2845,4.9908,4.5716,4.2476,5.7476,5.4016,4.8354,4.8776,5.4555,5.9666,6.0986,6.4275,6.7686,7.0631,7.1599,7.2343,7.3319,7.3905,7.4186,7.4186,7.4186,7.4186,7.4186,7.4186,7.4151,7.4068,7.3997,7.39,7.3802,7.39,7.3838,7.3666,7.3801,7.3752,7.349,7.3003,7.2995,7.3462,7.3904,7.4797,7.5995,7.6338,7.6866,7.753,7.7341,7.7281,7.7289,7.7396,7.7614,7.7813,7.8113,7.8417,7.8721,0.0,0.0,0.0,0.0,0.0,0.0,0.0,0.0,0.0,0.0,0.0,0.0,0.0,0.0,0.0,0.0,0.0,0.0,1.7275,1.7904,1.7879,1.6952,1.7974,1.8595,1.8577,1.9326,1.9361,1.8643,2.0148,2.0897,2.0932,2.1662,2.199,2.1972,2.1404,2.1616,2.2336,2.2545,2.2737,2.2882,2.2887,2.2036,2.079,0.0,0.0,0.0,0.0,0.0,0.0,0.0,1.7681,1.7014,1.7014,1.6998,1.7179,1.8138,1.8953,1.9812,2.0745,2.2214,2.5251,3.2601,3.1408,3.3098,5.074,4.6193,4.1467,5.2633,6.0167,6.3891,6.114,5.9844,5.989,6.1958,6.1614,6.3622,7.0983,7.1991,7.2547,7.4033,7.4186,7.4186,7.4186,7.4186,7.4186,7.4186,7.4186,7.4186,7.4186,7.3949,7.3924,7.4186,7.3949,7.3997,7.438,7.4009,7.3838,7.3896,7.3503,7.3154,7.2908,7.3744,7.4279,7.4635,7.5102,7.5944,7.6945,7.6346,7.657,7.732,7.7651,7.7783,7.7856,7.8495,7.8695,7.8747,0.0,0.0,0.0,0.0,0.0,0.0,0.0,0.0,0.0,0.0,0.0,0.0,0.0,0.0,0.0,0.0,0.0,0.0,1.749,1.7204,1.7028,1.7043,1.7358,1.7617,1.7748,1.9029,2.01,2.0975,2.036,2.0877,2.2447,2.213,2.2105,2.2408,2.5287,2.512,2.2751,2.5473,2.5174,2.2822,2.1808,2.114,0.0,0.0,0.0,0.0,0.0,0.0,0.0,0.0,0.0,0.0,1.7004,1.7426,1.8851,2.3603,2.2893,2.1723,2.7046,2.6445,2.6093,3.3472,3.4769,3.5938,4.2529,4.405,4.6573,5.5221,5.8689,5.9224,5.6195,6.1216,6.5039,6.2662,6.5091,6.8385,7.156,7.1991,7.2547,7.4033,7.4186,7.4186,7.4186,7.4186,7.4186,7.4186,7.4186,7.4186,7.4186,7.4115,7.4115,7.4186,7.4115,7.4139,7.4243,7.4232,7.4197,7.4101,7.3862,7.3541,7.318,7.366,7.4248,7.4909,7.5234,7.5654,7.6155,7.614,7.6706,7.7651,7.774,7.8043,7.8468,7.8629,7.8825,7.9004,0.0,0.0,0.0,0.0,0.0,0.0,0.0,0.0,0.0,0.0,0.0,0.0,0.0,0.0,0.0,0.0,0.0,0.0,0.0,1.6877,1.6693,1.6646,1.7278,1.7708,1.7847,1.9044,2.0155,2.1077,2.0482,2.091,2.2212,2.2084,2.2138,2.2538,2.553,2.5345,2.2916,2.5298,2.4666,2.1996,2.1142,2.0574,2.0211,0.0,0.0,0.0,0.0,0.0,0.0,0.0,0.0,0.0,1.7504,1.9604,2.2459,2.4427,2.4875,2.5786,3.0511,3.0228,3.0872,4.0177,3.9906,3.8226,4.1635,4.517,5.0351,5.9637,6.1855,6.1657,6.0282,6.4895,6.8158,6.5706,6.7902,7.0289,7.1433,7.1824,7.2445,7.3613,7.4033,7.4186,7.4186,7.4186,7.4186,7.4186,7.4186,7.4186,7.4186,7.4186,7.4186,7.4186,7.4186,7.422,7.4266,7.4301,7.4301,7.4266,7.4101,7.3886,7.3666,7.3753,7.4064,7.4537,7.5021,7.5483,7.5891,7.6374,7.7151,7.8118,7.8211,7.8444,7.8787,7.8851,7.8966,7.9116,0.0,0.0,0.0,0.0,0.0,0.0,0.0,0.0,0.0,0.0,1.4737,0.0,0.0,0.0,0.0,0.0,0.0,0.0,0.0,0.0,1.671,1.6137,1.7659,1.8552,1.8618,1.932,1.9737,1.9807,2.0576,2.0981,2.0997,2.1707,2.2177,2.2575,2.3705,2.3712,2.296,2.3407,2.2492,2.0807,2.0621,2.012,1.9494,1.9487,0.0,0.0,0.0,0.0,0.0,0.0,0.0,0.0,1.8304,2.2398,2.6444,2.267,2.5842,3.09,3.2486,3.3745,3.7291,4.857,4.4848,4.0228,4.7019,4.9483,5.354,6.4775,6.7259,6.7889,6.9607,6.9709,6.9602,6.9863,6.9901,7.0166,7.0919,7.1563,7.2289,7.2998,7.374,7.4186,7.4186,7.4186,7.4186,7.4186,7.4186,7.4186,7.4186,7.4186,7.4186,7.4186,7.4186,7.4243,7.4369,7.4255,7.4255,7.4369,7.4243,7.4186,7.4186,7.3949,7.3839,7.3877,7.4599,7.532,7.6089,7.6781,7.7694,7.8648,7.8839,7.8928,7.8966,7.9079,7.9129,7.9116,0.0,0.0,0.0,0.0,0.0,0.0,0.0,0.0,0.0,0.0,0.0,0.0,0.0,0.0,0.0,0.0,0.0,0.0,0.0,0.0,1.6512,1.7656,1.8278,1.8858,1.942,1.9597,1.9989,2.0555,2.0753,2.1145,2.1761,2.1937,2.253,2.3598,2.6091,2.5686,2.3242,2.4924,2.3764,2.0693,1.9355,1.8717,1.8555,1.8502,1.8397,0.0,0.0,0.0,0.0,0.0,0.0,0.0,1.906,2.0682,2.3124,2.7195,2.9927,3.2972,3.8934,3.7685,3.5598,3.9508,3.9946,4.315,5.7415,5.9,5.9314,6.5785,6.4624,6.3954,6.8982,6.9863,6.9844,6.9891,6.9901,7.0166,7.0919,7.1563,7.2289,7.2998,7.374,7.4186,7.4186,7.4186,7.4186,7.4186,7.4186,7.4186,7.4186,7.4186,7.4186,7.4186,7.4186,7.4209,7.4232,7.4209,7.4209,7.4232,7.4209,7.4186,7.4186,7.4139,7.4104,7.4104,7.4062,7.491,7.6294,7.6277,7.7339,7.8991,7.9016,7.9129,7.9227,7.9251,7.9202,7.9116,0.0,0.0,0.0,0.0,0.0,0.0,0.0,0.0,0.0,0.0,0.0,0.0,0.0,0.0,0.0,0.0,0.0,0.0,0.0,0.0,1.6949,1.8303,1.8833,1.9135,1.917,1.99,2.0091,1.9739,2.0493,2.1075,2.1497,2.1974,2.2583,2.3334,2.4927,2.4522,2.2675,2.3403,2.2345,2.0128,1.8855,1.8545,1.8842,1.8431,1.8246,1.8272,1.8719,0.0,0.0,0.0,0.0,0.0,0.0,0.0,2.5644,2.6739,2.9675,3.3408,3.7268,3.8876,4.0513,4.4968,4.8858,5.3186,5.9087,6.1594,6.3574,6.6636,6.6116,6.6097,6.9304,6.9901,6.9901,6.9901,6.9901,7.0034,7.0421,7.1078,7.1796,7.2472,7.3229,7.3804,7.416,7.4186,7.4186,7.4186,7.4186,7.4186,7.4186,7.4186,7.4186,7.4186,7.4186,7.4186,7.4186,7.4186,7.4186,7.4186,7.4186,7.4186,7.4186,7.4186,7.4186,7.4186,7.4056,7.4755,7.6025,7.6328,7.74,7.8818,7.9206,7.943,7.9488,7.943,7.9323,7.9214,0.0,0.0,0.0,0.0,0.0,0.0,0.0,0.0,0.0,0.0,0.0,0.0,0.0,0.0,0.0,0.0,0.0,0.0,0.0,0.0,0.0,1.8683,1.9225,1.9351,1.8989,2.0001,2.0022,1.8987,2.0336,2.1369,2.2083,2.2932,2.353,2.3889,2.3785,2.3083,2.194,2.1056,2.0266,1.9494,1.8692,1.8747,1.9243,0.0,0.0,1.8242,1.8438,1.8488,1.8508,1.8594,0.0,0.0,0.0,0.0,2.8506,2.4489,2.8035,3.3222,3.331,3.8881,4.6413,5.3976,5.8852,6.1082,5.8227,6.1413,6.5396,6.7012,6.8508,6.9587,6.9844,6.9901,6.9901,6.9901,6.9901,6.9901,6.9901,7.0515,7.1209,7.1759,7.2574,7.3357,7.3931,7.4134,7.4186,7.4186,7.4186,7.4186,7.4186,7.4186,7.4186,7.4186,7.4186,7.4186,7.4186,7.4186,7.4186,7.4186,7.4186,7.4186,7.4186,7.4186,7.4186,7.4186,7.4186,7.4717,7.5645,7.6425,7.7406,7.8462,7.9191,7.9569,7.9672,7.9569,7.9453,7.9335,0.0,0.0,0.0,0.0,0.0,0.0,0.0,0.0,0.0,0.0,1.6579,0.0,0.0,0.0,0.0,0.0,0.0,0.0,1.6894,0.0,0.0,1.9526,1.9044,1.9316,2.0579,1.9547,1.9517,2.059,2.1019,2.3133,2.6802,2.6943,2.7605,2.8635,2.7235,2.4913,2.1884,2.0424,1.967,1.9425,1.8636,1.838,0.0,0.0,0.0,1.8316,1.9067,1.9319,1.9364,2.0196,2.0533,0.0,0.0,0.0,2.424,2.3656,2.8086,3.3248,3.3491,3.9005,4.6519,5.4072,5.3338,5.2996,6.1594,6.2088,6.1949,6.6333,6.8007,6.8906,6.9768,6.9901,6.9901,6.9901,6.9901,6.9901,6.9901,7.0515,7.105,7.1106,7.2278,7.3127,7.3217,7.3804,7.4186,7.4186,7.4186,7.4186,7.4186,7.4186,7.4186,7.4186,7.4186,7.4186,7.4186,7.4186,7.4186,7.4186,7.4186,7.4186,7.4186,7.4186,7.4186,7.4186,7.4186,7.4717,7.5607,7.5732,7.681,7.8397,7.8548,7.904,7.9683,7.9672,7.9581,7.9465,0.0,0.0,0.0,0.0,0.0,0.0,0.0,0.0,0.0,0.0,0.0,1.6668,0.0,0.0,0.0,1.6553,1.6675,1.704,1.7746,1.8693,1.9165,1.9105,1.9603,1.982,1.9689,1.9886,2.0159,2.0513,2.1437,2.5087,3.1182,3.161,3.0998,2.9647,3.0664,2.7985,2.2733,2.3589,2.2494,2.0159,1.9774,0.0,0.0,0.0,0.0,0.0,0.0,0.0,2.0908,2.1296,2.1537,2.1763,2.257,0.0,0.0,0.0,2.6246,3.0211,3.7759,3.9597,4.2805,5.7129,5.433,5.0967,6.2141,6.1532,6.0271,6.6103,6.7628,6.8272,6.955,6.9863,6.9901,6.9901,6.9901,6.9901,6.9901,7.0194,7.0552,7.0947,7.1536,7.2213,7.3025,7.3383,7.3778,7.416,7.4186,7.4186,7.4186,7.4186,7.4186,7.4186,7.4186,7.4186,7.4186,7.4186,7.4186,7.4186,7.4186,7.4186,7.4186,7.4186,7.4186,7.4186,7.4186,7.442,7.4853,7.5385,7.6414,7.7666,7.8175,7.8971,7.9821,7.9821,7.9717,7.9592,0.0,0.0,0.0,0.0,0.0,0.0,0.0,0.0,0.0,0.0,0.0,0.0,0.0,0.0,0.0,0.0,1.7322,1.766,1.8723,1.9371,1.9563,1.9205,1.9936,2.0023,1.9282,2.0271,2.0763,2.0768,2.1947,2.6081,3.285,3.4361,3.364,3.1153,3.3019,3.1028,2.6282,2.7061,2.5465,2.2407,2.2592,0.0,0.0,0.0,0.0,0.0,0.0,0.0,0.0,0.0,2.2446,2.2744,2.3457,2.375,0.0,0.0,0.0,2.7467,3.9038,3.91,3.9695,5.5786,5.2843,4.8564,5.8142,5.7955,5.7489,6.3596,6.6367,6.8044,6.9199,6.9673,6.9901,6.9901,6.9901,6.9901,6.9901,6.9901,7.009,7.0646,7.0881,7.1405,7.2445,7.2703,7.3127,7.3868,7.3931,7.3995,7.4197,7.4186,7.4186,7.4186,7.4186,7.4186,7.4186,7.4186,7.4186,7.4186,7.4186,7.4186,7.4186,7.4186,7.4186,7.4186,7.4186,7.4186,7.4235,7.494,7.5807,7.6723,7.7666,7.8657,7.9562,7.9811,7.9843,7.9766,0.0,0.0,0.0,0.0,0.0,0.0,0.0,0.0,0.0,0.0,0.0,0.0,1.6603,1.7053,1.7255,1.6891,1.7563,1.8475,1.9583,1.9673,2.0021,2.0756,1.9522,0.0,2.0852,2.0474,2.0925,2.2303,2.2743,2.5319,2.9915,3.3621,3.5274,3.504,3.3605,3.3581,3.4241,2.9455,2.7218,2.7019,2.7773,0.0,0.0,0.0,0.0,0.0,0.0,0.0,0.0,0.0,0.0,2.3577,2.4313,2.4566,2.4666,0.0,0.0,0.0,3.344,3.642,3.9126,4.5548,4.4451,4.2962,4.7392,4.9591,5.2056,5.693,6.3591,6.8537,6.8546,6.9294,6.9901,6.9901,6.9901,6.9901,6.9901,6.9901,6.9901,6.9967,7.0552,7.105,7.1116,7.1694,7.2343,7.3089,7.3164,7.3447,7.416,7.4186,7.4186,7.4186,7.4186,7.4186,7.4186,7.4186,7.4186,7.4186,7.4186,7.4186,7.4186,7.4186,7.4186,7.4186,7.4186,7.4186,7.4186,7.4235,7.4816,7.5769,7.6723,7.7666,7.8608,7.9562,7.9898,7.9876,0.0,0.0,0.0,0.0,0.0,0.0,0.0,0.0,0.0,0.0,0.0,0.0,0.0,1.8152,1.8416,1.8407,1.8901,1.9355,1.9668,1.9729,1.9694,1.9491,1.9921,2.021,2.0291,2.1151,2.1938,2.258,2.2887,2.5068,2.9043,2.9916,3.1578,3.4054,3.9671,3.8318,3.1982,3.5791,3.2152,2.4456,3.1463,0.0,0.0,0.0,0.0,0.0,0.0,0.0,0.0,0.0,0.0,0.0,0.0,2.468,2.4704,2.4704,2.4908,2.6575,3.3037,3.2749,3.3258,4.4248,4.0687,3.6944,4.6205,4.8935,4.993,5.1585,5.9958,6.6186,6.3512,6.6802,6.9901,6.9901,6.9901,6.9901,6.9901,6.9901,6.9901,6.9901,7.0128,7.0486,7.0947,7.1209,7.1666,7.2353,6.9336,6.9004,7.2617,6.9649,6.9568,7.3361,7.3485,7.3703,7.4186,7.4186,7.4186,7.4186,7.4186,7.4186,7.4186,7.4186,7.4186,7.4186,7.4186,7.4186,7.4186,7.4186,7.4767,7.5645,7.5992,7.7021,7.8435,7.8782,7.9296,7.975,0.0,0.0,0.0,0.0,0.0,0.0,0.0,0.0,0.0,0.0,0.0,0.0,0.0,0.0,1.9572,1.9469,1.9903,2.0057,1.9765,2.0037,1.9972,1.949,2.0443,2.0893,2.062,2.1601,2.2287,2.2679,2.2661,2.3952,2.6464,2.7157,2.8883,3.1805,3.9767,3.9812,3.4255,4.04,3.7584,2.9492,3.5553,0.0,2.8316,0.0,0.0,0.0,0.0,0.0,0.0,0.0,0.0,0.0,0.0,2.6363,2.4822,2.4816,2.5025,2.6232,3.0807,2.9842,2.9862,3.9396,3.6576,3.3497,4.1302,4.6162,4.8884,4.855,5.7879,6.5285,6.2538,6.6108,6.956,6.9863,6.9901,6.9901,6.9901,6.9901,6.9901,6.9901,6.9901,7.01,7.059,7.0618,7.0919,7.1601,6.847,6.8138,7.1792,6.8758,6.8648,7.2562,7.2905,7.3263,7.3747,7.4035,7.4186,7.4186,7.4186,7.4186,7.4186,7.4186,7.4186,7.4186,7.4186,7.4186,7.4186,7.4186,7.4582,7.5162,7.5472,7.6376,7.753,7.8141,7.8719,7.9248,0.0,0.0,0.0,0.0,0.0,0.0,0.0,0.0,0.0,2.0031,0.0,0.0,0.0,0.0,0.0,2.0007,2.0566,2.0666,1.9936,2.0624,2.1029,2.0999,2.1034,2.1331,2.1982,2.1702,2.187,2.2582,2.2155,2.1977,2.2044,2.5554,2.7622,2.8557,3.3041,3.7465,4.1623,4.2617,4.2793,4.2211,4.0123,3.8446,3.6978,0.0,0.0,0.0,4.0172,3.9314,0.0,4.062,0.0,0.0,0.0,2.9631,2.5171,2.5108,2.5232,2.5541,0.0,0.0,0.0,3.0404,3.1833,3.2823,3.2042,4.0633,4.8508,4.7571,5.7233,6.5836,6.5836,6.7314,6.8792,6.9673,6.9863,6.9901,6.9863,6.9901,6.9901,6.9901,6.9901,6.9901,6.9901,6.9901,7.0194,7.0909,7.0823,7.1086,7.1889,7.1954,7.1939,7.1885,7.2526,7.2845,7.2845,7.3747,7.4148,7.4148,7.4186,7.4186,7.4186,7.4186,7.4186,7.4186,7.4186,7.4186,7.4186,7.4186,7.4186,7.4284,7.52,7.5596,7.5807,7.7579,7.8229,7.8417,0.0,0.0,0.0,0.0,0.0,0.0,1.9177,1.9659,2.0148,0.0,0.0,0.0,2.0825,2.1344,2.2077,2.2987,2.2746,2.2488,2.2288,2.197,2.162,2.1238,2.1744,2.1908,2.1632,2.2259,2.2364,2.1939,2.1396,2.1105,2.1093,2.2078,2.2666,2.3139,2.8749,3.1915,3.3554,4.0795,3.761,2.8942,4.2796,4.0623,0.0,0.0,0.0,0.0,0.0,4.2319,4.077,0.0,3.9539,3.4766,0.0,0.0,0.0,0.0,0.0,0.0,2.7411,0.0,0.0,0.0,0.0,0.0,3.3263,3.8377,4.2704,4.2389,5.1675,5.9876,5.986,6.3672,6.7087,6.7958,6.9105,6.9673,6.9058,6.9512,6.9901,6.9901,6.9901,6.9901,6.9901,6.9901,6.9996,7.0194,6.6739,6.6333,7.0259,7.0904,7.1103,7.1109,7.1706,7.2008,7.2008,7.2845,7.3258,7.3258,7.3897,7.4186,7.4186,7.4186,7.4186,7.4186,7.4186,7.4186,7.4186,7.4186,7.4186,7.4235,7.4495,7.4989,7.5645,7.6169,7.7122,7.8177,0.0,0.0,0.0,0.0,0.0,1.9349,1.9888,2.0358,2.0806,0.0,0.0,0.0,2.2242,2.2723,2.3222,2.3784,2.3164,2.2594,2.2306,2.2135,2.197,2.176,2.2133,2.2206,2.1974,2.1935,2.1681,2.1216,2.0562,2.0396,2.0689,2.0658,2.1029,2.1799,2.5345,2.6924,2.7493,3.5374,3.595,3.2585,4.3166,0.0,0.0,4.6824,4.67,0.0,0.0,0.0,4.6583,4.9096,4.5442,0.0,0.0,0.0,0.0,0.0,0.0,0.0,0.0,0.0,2.9788,3.1831,0.0,0.0,3.3412,3.9296,4.4238,4.3456,5.2444,5.9726,5.737,5.9956,6.2547,6.2741,6.4191,6.5918,6.7816,6.9133,6.9787,6.9408,6.9673,6.9901,6.9901,6.9901,6.9901,6.9901,6.7107,6.6719,6.974,7.0191,7.0335,7.0294,7.0906,7.1238,7.1193,7.2019,7.2583,7.2921,7.3409,7.3859,7.4186,7.4186,7.4186,7.4186,7.4186,7.4186,7.4186,7.4186,7.4186,7.4186,7.4186,7.4544,7.5064,7.5403,7.6117,7.7057,0.0,0.0,1.779,1.9232,1.9595,1.9942,2.0796,2.11,2.1505,0.0,2.2248,2.2794,2.4158,2.4267,0.0,0.0,2.2752,2.2089,2.1361,2.1843,2.224,2.2298,2.2189,2.2221,2.2376,2.1106,2.0453,2.0535,1.9936,2.0022,2.0831,2.0853,2.1691,2.3116,2.313,2.3276,2.3743,2.8375,3.5578,4.3734,4.2278,4.6539,0.0,0.0,5.1408,5.1037,5.678,5.5891,5.268,5.7172,5.2998,0.0,0.0,0.0,0.0,0.0,3.248,0.0,0.0,0.0,0.0,0.0,3.3184,0.0,3.3399,4.1229,4.826,4.7436,5.5375,6.1068,5.6421,5.6186,5.6474,5.5707,5.6853,5.9822,6.5635,6.8347,6.9219,6.7825,6.8877,6.9749,6.9749,6.9749,6.9787,6.9901,6.9901,6.9901,6.9901,6.9767,6.9659,6.9607,7.0152,7.0449,7.0389,7.1156,7.1933,7.262,7.2808,7.3296,7.4073,7.4148,7.4186,7.4186,7.4186,7.4186,7.4186,7.4186,7.4186,7.4186,7.4186,7.4186,7.431,7.4986,7.5324,7.5587,0.0,0.0,2.0169,2.0528,2.0596,2.0864,2.1666,2.2353,2.3046,2.3759,2.3915,2.4052,2.4363,2.3792,0.0,0.0,2.4236,2.3819,2.3192,2.33,2.287,2.1789,2.1743,2.1506,2.1094,2.079,2.0654,2.0646,2.0539,2.0856,2.1594,2.2238,2.3056,2.3974,2.4012,2.4427,2.5102,2.5745,2.9476,3.5637,4.3148,4.5777,4.6036,5.3729,5.2402,4.7628,5.6479,5.7084,5.3913,5.5223,5.3557,4.9803,0.0,0.0,0.0,0.0,0.0,0.0,0.0,0.0,0.0,0.0,0.0,0.0,3.5687,3.7318,3.9838,4.4867,4.7683,4.9839,5.1791,5.232,5.2116,5.1285,5.1416,5.3713,5.9656,6.532,6.7085,6.2238,6.5927,6.883,6.883,6.883,6.9133,6.9863,6.9901,6.9901,6.9901,6.9767,6.9699,6.9679,6.9639,6.9637,6.9616,7.0347,7.0818,7.0968,7.2282,7.2996,7.3183,7.3897,7.4186,7.4186,7.4186,7.4186,7.4186,7.4186,7.4186,7.4186,7.4186,7.4186,7.4235,7.4385,7.4836,7.5448,0.0,2.0495,2.0975,2.1392,2.1824,2.2335,2.3022,2.3533,2.4056,2.4772,2.4975,2.4894,2.4542,2.426,0.0,0.0,0.0,0.0,0.0,0.0,2.2184,2.163,2.1192,2.0881,2.0718,2.0662,2.0646,2.0635,2.1046,2.1643,2.2426,2.3267,2.3865,2.4302,2.5185,2.5403,2.5057,2.529,2.8575,3.426,4.1683,4.5284,4.712,5.5727,5.6398,5.3441,5.8788,5.9545,5.7639,5.546,5.4481,0.0,0.0,4.4584,4.044,0.0,3.5332,3.3651,0.0,0.0,0.0,3.4198,0.0,0.0,0.0,3.7954,4.0616,4.3977,4.6582,4.7961,4.7004,4.6398,4.5906,4.5483,4.5173,4.6309,5.0126,5.8205,6.3554,6.3108,6.5976,6.7996,6.7996,6.7996,6.8337,6.9171,6.9636,6.9901,6.9901,6.9853,6.9758,6.9709,6.96,6.9519,6.9505,6.9804,7.0154,7.0567,7.1339,7.2132,7.2921,7.3334,7.3784,7.4186,7.4186,7.4186,7.4186,7.4186,7.4186,7.4186,7.4186,7.4186,7.4186,7.4186,7.446,7.4873,2.1082,0.0,2.1679,2.213,2.2905,2.3605,2.4005,2.4254,2.4632,2.5367,2.5657,2.5828,2.5941,0.0,0.0,0.0,0.0,0.0,0.0,0.0,0.0,2.121,2.0658,2.0433,2.066,2.0776,2.0976,2.1303,2.1789,2.2625,2.3741,2.428,2.4695,2.5074,2.6228,2.6711,2.6742,2.7265,3.0811,3.6583,4.173,4.5857,4.9718,5.7231,5.9753,5.9497,6.1372,6.2063,6.1347,5.6517,5.5291,5.5557,5.4188,4.8598,0.0,0.0,0.0,0.0,0.0,0.0,0.0,0.0,0.0,3.4553,0.0,0.0,0.0,4.3036,4.6219,4.7384,4.2339,4.0719,3.996,3.9305,3.8937,3.9499,4.1662,4.9694,5.6914,6.1064,6.3048,6.4084,6.42,6.5232,6.6727,6.8716,6.937,6.9711,6.9901,6.9901,6.9863,6.9738,6.9719,6.9659,6.9617,6.9515,6.9744,7.039,7.0503,7.1313,7.2695,7.2868,7.3394,7.4186,7.4186,7.4186,7.4186,7.4186,7.4186,7.4186,7.4186,7.4186,7.4186,7.4186,7.4186,7.431,2.213,2.298,0.0,2.3096,2.3647,2.397,2.3341,2.3852,2.4625,2.5545,2.5881,2.7277,0.0,0.0,0.0,0.0,0.0,0.0,2.2297,0.0,0.0,1.9878,2.0224,2.0547,2.0523,2.1266,2.2368,2.3795,2.3162,2.4053,2.6361,2.5684,2.6185,2.7608,2.6585,2.9153,3.4174,3.319,3.6073,4.1873,4.8153,4.8912,4.7321,5.6566,5.8483,5.6897,6.2174,6.3641,6.2316,0.0,5.5594,5.4378,0.0,4.6023,4.1916,0.0,0.0,0.0,0.0,0.0,0.0,0.0,3.515,0.0,0.0,0.0,3.873,4.0296,0.0,4.0695,3.8234,0.0,0.0,3.3599,3.3643,3.5496,3.9541,4.1728,4.3496,4.5074,4.9194,5.2127,5.2711,5.7489,6.3125,6.9285,6.9133,6.9096,6.9863,6.9901,6.9891,6.9882,6.9758,6.9699,6.9689,6.9617,6.9563,6.9535,7.0361,7.1127,7.1858,7.2684,7.35,7.4186,7.4186,7.4186,7.4186,7.4186,7.4186,7.4186,7.4186,7.4186,7.4186,7.4186,7.4186,7.4197,2.2786,2.3172,0.0,2.316,2.3775,2.4174,2.3845,2.4539,2.4968,2.4593,2.5124,2.6953,0.0,0.0,0.0,0.0,0.0,3.2944,0.0,0.0,0.0,0.0,0.0,0.0,2.1942,2.2313,2.3084,2.4252,2.4404,2.5268,2.6844,2.7028,2.7266,2.7536,2.7524,3.0296,3.4933,3.4523,3.7936,4.3831,4.6536,4.7525,4.8459,5.8099,6.1403,6.0814,6.0458,6.1924,6.2851,0.0,5.6118,0.0,0.0,0.0,0.0,0.0,0.0,0.0,0.0,0.0,0.0,0.0,0.0,0.0,4.1402,0.0,3.7976,0.0,0.0,0.0,0.0,0.0,0.0,0.0,3.3698,3.4169,3.6454,3.6276,3.8569,4.5804,4.8507,5.1056,5.4284,5.4585,5.6809,6.2184,6.314,6.3641,6.402,6.7305,6.9361,6.9901,6.9853,6.9834,6.9834,6.9689,6.9627,6.9526,6.9906,7.0437,7.1105,7.1976,7.2841,7.3575,7.3995,7.4186,7.4186,7.4186,7.4186,7.4186,7.4186,7.4186,7.4186,7.4186,7.4186,7.4186,2.3227,0.0,0.0,2.3125,2.3813,2.4305,2.4149,2.5774,2.6693,2.5709,2.6633,0.0,3.2496,3.1258,0.0,0.0,3.7908,3.7512,0.0,0.0,3.1329,0.0,0.0,0.0,0.0,0.0,2.381,2.4667,2.5255,2.6047,2.6963,2.7667,2.7675,2.7187,2.8147,3.1098,3.5405,3.6954,4.1367,4.7455,4.8789,5.0755,5.3528,5.9279,6.2777,6.418,6.0703,6.1666,6.3329,5.4966,5.6762,0.0,5.4258,0.0,0.0,0.0,0.0,0.0,4.4707,0.0,0.0,0.0,0.0,0.0,0.0,0.0,0.0,0.0,0.0,0.0,0.0,0.0,3.5552,3.4737,0.0,3.3703,3.3875,3.3293,3.5996,4.4526,4.6763,4.9157,5.3067,5.1722,5.1949,5.5314,5.7986,5.9462,5.94,6.527,6.884,6.9436,6.973,6.9844,6.9815,6.9699,6.9647,6.9546,6.9577,6.992,7.06,7.1234,7.2089,7.3082,7.3593,7.3983,7.4243,7.4209,7.4209,7.4243,7.4209,7.4186,7.4186,7.4186,7.4186,7.4186,2.3514,2.3871,0.0,2.323,2.3883,2.4284,2.3723,2.7489,3.0413,3.0384,0.0,0.0,0.0,0.0,0.0,0.0,0.0,4.0406,4.0111,0.0,3.7862,0.0,0.0,2.5233,0.0,0.0,0.0,2.5674,2.5689,2.6153,2.709,2.7114,2.7145,2.7227,2.8167,3.1785,3.7446,4.2314,4.8208,5.4705,5.9391,6.2391,6.3614,0.0,6.0543,6.4687,6.4664,0.0,0.0,5.9003,5.7498,0.0,0.0,0.0,0.0,0.0,0.0,0.0,0.0,0.0,0.0,4.3559,0.0,0.0,0.0,0.0,3.7122,0.0,0.0,0.0,0.0,0.0,0.0,0.0,0.0,0.0,0.0,3.3331,3.4482,3.5092,3.9429,4.2697,4.3651,4.7372,5.016,5.1139,5.5813,5.8567,5.8438,6.4893,6.8518,6.8351,6.9244,6.9659,6.9597,6.9597,6.9536,6.9395,6.9536,6.9926,7.0491,7.06,7.1454,7.2932,7.2921,7.3477,7.4369,7.4243,7.4266,7.4369,7.4243,7.4186,7.4186,7.4186,7.4186,7.4186,0.0,0.0,0.0,2.3538,2.3767,2.3939,2.3863,2.5631,2.8066,3.1188,3.2894,0.0,0.0,4.3051,4.2911,0.0,0.0,4.973,4.527,4.5331,0.0,0.0,0.0,3.4707,0.0,0.0,0.0,0.0,2.7429,2.789,2.8811,2.8234,2.8281,2.8851,2.8696,3.2157,3.8461,4.3335,4.9292,5.5635,5.7817,5.9181,6.0124,0.0,6.3312,6.4844,6.4871,6.4862,0.0,5.9209,5.9678,6.1654,5.8409,5.6671,5.664,6.0896,5.7171,0.0,0.0,0.0,5.4985,5.3188,0.0,0.0,0.0,0.0,0.0,0.0,0.0,0.0,0.0,0.0,0.0,0.0,0.0,0.0,0.0,3.402,3.4433,3.4534,3.5961,3.8403,4.2151,4.029,4.0139,4.3272,4.5115,4.6323,4.6869,5.6414,6.2318,6.3369,6.7475,6.9627,6.9587,6.9587,6.9536,6.9384,6.9536,6.9666,6.9772,7.0331,7.0896,7.1416,7.2466,7.3094,7.344,7.3983,7.422,7.4255,7.4209,7.4186,7.4186,7.4186,7.4186,7.4186,2.4554,2.3816,2.3785,2.3726,2.3965,2.4701,2.617,2.7574,3.0539,3.6371,3.7424,0.0,4.7695,0.0,4.8588,0.0,5.1939,5.3105,5.2352,4.7912,0.0,5.2285,4.3967,0.0,0.0,0.0,0.0,0.0,0.0,2.935,3.1311,2.9631,2.8983,2.9255,2.9759,3.2408,3.6958,4.3912,4.9546,5.4034,5.6283,5.8383,6.0277,0.0,6.3326,6.4888,0.0,6.4888,6.4404,6.1243,6.2239,6.4211,6.1077,6.0419,6.1326,6.3877,6.0904,5.7337,5.9871,6.0554,0.0,5.8252,5.5007,0.0,5.1282,0.0,0.0,0.0,0.0,0.0,0.0,0.0,0.0,0.0,0.0,0.0,0.0,3.4416,3.4439,3.4439,3.5978,3.7572,3.8894,3.7454,3.6483,3.6588,3.8768,4.0093,4.0025,5.1428,5.8568,5.9876,6.5896,6.9203,6.9464,6.9464,6.9422,6.9321,6.9432,6.9422,6.9359,6.9874,7.0288,7.0627,7.1602,7.223,7.2613,7.342,7.377,7.3842,7.4096,7.422,7.4255,7.4209,7.4186,7.4186,2.4686,2.4054,2.4038,2.3774,2.4722,2.6722,3.0358,3.3167,3.753,4.5029,4.5134,4.6091,5.0163,4.8373,4.8642,5.2956,4.9458,5.0831,5.9887,4.6884,0.0,0.0,4.4457,4.0407,4.8776,0.0,0.0,0.0,0.0,3.0762,3.4421,3.1209,2.9288,2.8683,3.128,3.253,3.3452,4.4271,4.9473,5.0869,5.5249,5.9969,6.3844,5.9299,6.0659,6.4888,6.4888,6.4888,6.4888,6.4888,6.4888,6.4888,6.4888,6.4826,6.4716,6.4716,6.4652,6.4615,6.4606,6.4606,6.3483,5.8736,0.0,0.0,0.0,0.0,5.0777,0.0,0.0,0.0,0.0,0.0,0.0,0.0,0.0,0.0,0.0,3.4433,3.4456,3.4341,3.8646,3.9507,3.3977,3.8458,3.8702,3.1504,3.6819,3.9799,3.8456,4.9882,5.6953,5.8089,6.4121,6.7919,6.9117,6.8854,6.8892,6.9192,6.9192,6.9192,6.9192,6.9192,6.9643,7.0442,7.048,7.0997,7.1885,7.2553,7.2951,7.3153,7.3856,7.4229,7.4369,7.4243,7.4197,7.4197,2.5821,2.5583,2.5595,2.4346,2.8063,3.1518,3.2495,3.6794,4.0763,4.3136,4.7385,5.0725,5.2108,5.5728,5.5424,4.8868,5.1686,0.0,0.0,0.0,0.0,5.9971,5.6383,5.3343,5.1443,4.8928,0.0,4.3316,0.0,3.5453,3.6926,3.2018,3.0227,3.1171,3.2032,3.2834,3.4281,4.5077,5.1889,5.5325,5.3041,5.5064,5.9299,0.0,6.0659,6.4888,6.4888,6.4888,6.4888,6.4888,6.4888,6.4888,6.4888,6.4871,6.4853,6.4853,6.4835,6.4799,6.4689,6.4679,6.4359,6.3039,5.9944,5.7008,0.0,0.0,0.0,0.0,0.0,0.0,0.0,0.0,0.0,0.0,0.0,0.0,0.0,0.0,3.4489,3.4456,3.5071,3.5132,3.4292,3.4507,3.3896,3.1954,3.2838,3.5173,3.9063,4.3498,4.9649,5.7854,5.6209,5.9402,6.8227,6.4021,6.4312,6.9192,6.9192,6.9192,6.9192,6.9192,6.9305,6.9568,7.0217,7.0652,7.0899,7.1693,7.2369,7.2966,7.3157,7.3657,7.4255,7.4312,7.4335,7.4324,2.6707,2.6638,2.6885,2.5991,3.2598,3.772,3.6744,4.0486,4.4933,4.9227,5.2212,0.0,5.683,6.0466,6.034,5.4432,5.3479,0.0,5.4,0.0,0.0,6.1148,5.9357,5.6351,5.2519,5.2624,0.0,4.7142,0.0,3.863,4.1042,3.4018,3.1429,3.2721,3.3325,3.3887,3.5114,4.5632,5.3169,5.7772,5.4717,5.6421,0.0,5.841,6.0659,6.4888,6.4888,6.4888,6.4888,6.4888,6.4888,6.4888,6.4888,6.4888,6.4888,6.4888,6.4888,6.4871,6.4826,6.477,6.4799,6.4745,6.2618,6.0669,6.1123,5.9097,5.7213,0.0,0.0,0.0,0.0,0.0,0.0,0.0,0.0,0.0,0.0,0.0,0.0,3.4768,3.5993,3.6379,3.4721,3.3056,3.2086,3.21,3.1687,3.27,3.5634,4.1454,4.6336,4.9903,5.2915,5.622,5.9891,5.7338,5.9027,6.4875,6.4875,6.6377,6.9192,6.9192,6.9192,6.923,6.9718,6.9917,6.9992,7.0818,7.1456,7.1918,7.2677,7.3526,7.4289,7.4358,7.4358,7.4289,2.7545,2.7542,2.8261,2.8628,3.6799,4.3131,4.2455,4.5249,5.0107,5.7579,5.753,5.8016,6.1229,6.2672,6.3206,6.2688,0.0,5.3628,6.209,5.0795,4.9388,6.1982,5.8259,5.5239,5.3848,5.4219,0.0,0.0,0.0,4.1333,4.5382,3.6458,3.2758,3.3626,3.4652,3.5832,3.7636,4.5849,5.2978,5.8645,5.7915,6.0143,6.3558,5.9923,6.1213,6.4888,6.4888,6.4888,6.4888,6.4888,6.4888,6.4888,6.4888,6.4888,6.4888,6.4888,6.4888,6.4888,6.4888,6.4888,6.4888,6.4888,6.4888,6.4888,6.4888,6.4888,6.4888,6.4888,6.4826,6.3401,0.0,0.0,0.0,0.0,0.0,0.0,0.0,0.0,0.0,0.0,3.8852,0.0,3.5065,3.3173,3.2263,3.2287,3.2255,3.2217,3.2062,4.1079,4.4578,4.0829,5.1225,5.4934,5.0804,5.133,5.4634,6.0604,5.9703,6.2782,6.9192,6.9192,6.9192,6.9192,6.9192,6.9192,6.9267,7.0029,7.0442,7.0829,7.2432,7.3605,7.4369,7.4369,7.4289,7.4186,2.8688,2.9042,3.0755,3.289,3.6677,4.1918,4.946,5.4582,5.698,5.5217,5.8574,6.0133,5.7586,6.0944,6.1823,5.7856,5.6035,0.0,0.0,0.0,0.0,6.2935,6.2242,6.1297,6.0348,6.0322,5.9884,0.0,0.0,0.0,4.6906,3.7542,3.3705,3.4638,3.4975,3.9775,4.7477,4.5247,4.9531,5.7793,5.7641,5.8113,5.9224,6.2424,6.4148,6.4888,6.4888,6.4888,6.4888,6.4888,6.4888,6.4888,6.4888,6.4888,6.4888,6.4888,6.4888,6.4888,6.4888,6.4888,6.4888,6.4888,6.4888,6.4888,6.4888,6.4888,6.4888,6.4888,6.4871,6.4597,6.3725,0.0,0.0,0.0,0.0,0.0,0.0,0.0,0.0,0.0,0.0,3.9239,3.4929,3.3595,3.3034,3.314,3.3188,3.462,3.7899,3.6761,3.9276,4.6456,4.4991,4.8401,5.7488,5.2494,5.5827,6.739,6.1919,6.2782,6.9192,6.9192,6.9192,6.9192,6.9192,6.9192,6.923,6.938,7.0244,7.1595,7.2568,7.3481,7.422,7.422,7.4209,7.4186,3.354,3.1795,3.1251,3.3322,3.8581,4.4353,4.9836,5.7037,6.1195,5.9283,6.1311,6.2187,6.0252,6.2427,6.3086,6.0737,5.8646,5.8344,6.0528,5.8254,5.8837,6.3325,6.3396,0.0,5.8434,6.102,6.0619,5.6983,0.0,0.0,4.7411,3.7914,3.3984,3.5031,3.7789,4.2054,4.7292,4.9608,5.3563,5.8478,6.1009,6.1774,6.169,6.446,6.5267,6.4888,6.4888,6.4888,6.4888,6.4888,6.4888,6.4888,6.4888,6.4888,6.4888,6.4888,6.4888,6.4888,6.4888,6.4888,6.4888,6.4888,6.4888,6.4888,6.4888,6.4888,6.4888,6.4888,6.4888,6.4066,6.1413,5.6898,0.0,0.0,0.0,0.0,0.0,0.0,0.0,0.0,0.0,0.0,0.0,3.7972,3.6506,3.3634,3.3414,3.3902,3.5033,3.646,3.9014,4.2956,4.4916,4.8363,5.347,5.1668,5.5235,6.4011,6.083,6.2782,6.9192,6.9192,6.9192,6.9192,6.9192,6.9192,6.9192,6.9192,6.9943,7.1156,7.1982,7.2808,7.3596,7.4035,7.4186,7.4186,3.9459,3.6677,3.4928,3.7056,4.2688,4.7991,5.1228,5.7831,6.2684,6.3482,6.3728,6.3839,6.3816,6.4417,6.4433,6.3419,6.1254,6.0478,6.1771,6.0155,6.0076,6.2238,6.3191,6.1489,5.6901,6.0905,6.0626,0.0,0.0,0.0,0.0,3.9298,3.5827,3.6777,4.198,4.5311,4.7527,0.0,5.8843,6.0752,6.4562,6.5713,6.5221,6.5684,6.5448,6.4888,6.4888,6.4888,6.4888,6.4888,6.4888,6.4888,6.4888,6.4888,6.4888,6.4888,6.4888,6.4888,6.4888,6.4888,6.4888,6.4888,6.4888,6.4888,6.4888,6.4888,6.4888,6.4888,6.4888,6.367,5.9551,5.7922,0.0,0.0,0.0,0.0,0.0,0.0,0.0,0.0,0.0,0.0,4.238,4.099,3.8427,3.3746,3.3414,3.3263,3.3033,3.6792,3.8976,3.9083,4.5284,4.8822,4.9272,0.0,5.4738,6.1393,5.9966,6.2782,6.9192,6.9192,6.9192,6.9192,6.9192,6.9192,6.9192,6.9192,6.9718,7.0555,7.1193,7.2057,7.2996,7.3672,7.4047,7.4186,4.4956,4.5527,4.7318,5.1187,5.0193,5.1649,5.9955,6.01,6.0253,6.3057,6.4153,6.4659,6.453,6.521,6.3938,5.9531,6.2709,6.1496,5.3358,6.0366,6.2829,5.8344,6.2213,6.3889,6.2627,6.2983,6.2946,0.0,0.0,5.2744,0.0,0.0,4.1546,4.2173,4.7313,0.0,0.0,5.8029,6.1321,6.5475,6.5912,6.6054,6.5912,6.5267,6.4955,6.4888,6.4888,6.4888,6.4888,6.4888,6.4888,6.4888,6.4888,6.4888,6.4888,6.4888,6.4888,6.4888,6.4888,6.4888,6.4888,6.4888,6.4888,6.4888,6.4888,6.4888,6.4888,6.4888,6.4888,6.4701,6.412,6.0269,5.5549,0.0,0.0,0.0,0.0,0.0,0.0,0.0,0.0,0.0,4.2042,3.7913,3.4765,3.3489,3.3414,3.5291,3.9652,3.5446,3.5591,4.1479,4.1711,4.5254,5.266,5.0737,5.5977,6.8216,6.2181,6.2782,6.9192,6.9192,6.9192,6.9192,6.9192,6.9192,6.9192,6.9192,6.9718,7.0517,7.0592,7.1531,7.2921,7.2996,7.3521,7.4186,5.1212,4.939,4.8627,5.1248,5.266,5.4984,5.9575,6.1942,6.3613,6.487,6.535,6.5512,6.5333,6.6062,6.5754,6.3756,6.5681,6.5177,6.0958,6.4192,6.5127,6.2519,6.4296,6.4987,6.4264,6.425,6.4036,0.0,0.0,0.0,0.0,0.0,0.0,0.0,0.0,5.648,5.8585,6.236,6.4789,6.6139,6.667,6.6291,6.5419,6.5571,6.5334,6.4888,6.4888,6.4888,6.4888,6.4888,6.4888,6.4888,6.4888,6.4888,6.4888,6.4888,6.4888,6.4888,6.4888,6.4888,6.4888,6.4888,6.4888,6.4888,6.4888,6.4888,6.4888,6.4888,6.4844,6.4761,6.4716,6.3063,6.0016,0.0,0.0,0.0,0.0,0.0,0.0,0.0,0.0,0.0,0.0,4.3738,3.8895,3.8588,3.5816,3.4545,3.5522,3.6686,3.9915,4.5547,4.5923,5.0954,6.1262,5.7901,6.0557,6.9192,6.6527,6.6639,6.9192,6.9192,6.9192,6.9192,6.9192,6.9192,6.9192,6.9192,6.9418,6.9755,7.0292,7.0893,7.1531,7.2019,7.2384,7.2759,5.725,5.4818,5.3008,5.4157,5.69,5.8848,5.8587,6.312,6.6021,6.4445,6.5777,6.6721,6.6234,6.6951,6.6827,6.5323,6.6849,6.6478,6.3122,6.5458,6.6047,6.3945,6.5311,0.0,6.513,6.5265,6.4968,6.4176,5.7286,0.0,0.0,0.0,0.0,0.0,5.8516,6.1101,6.1587,6.5653,6.7049,6.6518,6.6859,6.6329,6.5296,6.56,6.5381,6.4888,6.4888,6.4888,6.4888,6.4888,6.4888,6.4888,6.4888,6.4888,6.4888,6.4888,6.4888,6.4888,6.4888,6.4888,6.4888,6.4888,6.4888,6.4888,6.4888,6.4888,6.4888,6.4888,6.4835,6.4743,6.4716,6.4716,6.2998,5.7841,0.0,0.0,0.0,0.0,0.0,0.0,5.0316,4.9257,5.4221,4.7004,4.2004,4.2004,3.8745,3.6273,3.5065,0.0,0.0,0.0,0.0,0.0,6.2304,5.9027,6.1308,6.9192,6.9192,6.9192,6.9192,6.9192,6.9192,6.9192,6.9192,6.9192,6.9192,6.9192,6.9192,6.9267,6.9868,7.0255,7.0555,7.1156,7.1482,7.1783,6.2745,6.3412,6.3923,6.3923,6.4645,6.3559,5.8671,6.3522,6.5875,6.0571,6.5058,6.8334,6.7222,6.7815,6.6358,6.1582,6.53,6.3934,5.4564,6.2596,6.5295,0.0,0.0,6.6544,6.5803,6.6049,6.5877,6.5261,0.0,0.0,5.6103,0.0,5.7056,5.8927,6.382,6.648,6.7323,6.7352,6.739,6.7314,6.648,6.6092,6.5988,6.5221,6.4926,6.4888,6.4888,6.4888,6.4888,6.4888,6.4888,6.4888,6.4888,6.4888,6.4888,6.4888,6.4888,6.4888,6.4888,6.4888,6.4888,6.4888,6.4888,6.4888,6.4888,6.4888,6.4888,6.4888,6.4888,6.4853,6.4734,6.4716,6.2998,5.7841,0.0,0.0,0.0,0.0,0.0,0.0,4.5165,4.4069,4.9114,4.4977,4.2004,4.2004,4.1929,4.1892,0.0,0.0,0.0,4.1854,3.4947,0.0,5.1922,5.0383,5.6165,6.9192,6.9192,6.9192,6.9192,6.9192,6.9192,6.9192,6.9192,6.9192,6.9192,6.9192,6.9192,6.9192,6.923,6.9755,7.048,7.0517,7.1006,7.1708,5.5734,5.998,6.3433,6.1035,6.3767,6.5901,6.4816,6.6978,6.8152,6.6411,6.7888,6.8948,6.8563,6.8464,6.7777,0.0,6.4322,6.3326,0.0,6.3088,6.3567,6.5189,6.3675,6.2541,6.1975,6.2273,6.2135,6.1497,0.0,0.0,0.0,5.8672,6.0828,6.4769,6.684,6.7655,6.7428,6.7996,6.7579,6.648,6.6206,6.5751,6.5259,6.5002,6.4888,6.4888,6.4888,6.4888,6.4888,6.4888,6.4888,6.4888,6.4888,6.4888,6.4888,6.4888,6.4888,6.4888,6.4888,6.4888,6.4888,6.4888,6.4888,6.4888,6.4888,6.4888,6.4888,6.4888,6.4888,6.488,6.4844,6.4844,6.3151,5.8026,6.001,0.0,0.0,0.0,0.0,0.0,5.019,4.9123,5.4079,5.0078,4.716,4.7124,4.3919,4.2004,0.0,0.0,0.0,0.0,5.0383,0.0,6.1966,5.8727,6.1121,6.9192,6.9192,6.9192,6.9192,6.9192,6.9192,6.9192,6.9192,6.9192,6.9192,6.9192,6.9192,6.9192,6.9192,6.938,6.9605,6.9605,6.9793,7.0093,5.7333,6.1149,6.4321,6.2426,6.5023,6.6899,6.5484,6.7632,6.8696,6.6733,6.8155,6.9273,6.9225,6.8937,0.0,6.8505,6.5714,6.5176,6.7949,6.525,6.4917,6.7997,6.5382,6.3561,6.2977,6.3636,0.0,6.2435,6.2578,6.2647,6.2647,6.2647,6.4369,6.7428,6.7921,6.7883,6.739,6.7579,6.7049,6.6063,6.5751,6.5343,6.4888,6.4888,6.4888,6.4888,6.4888,6.4888,6.4888,6.4888,6.4888,6.4888,6.4888,6.4888,6.4888,6.4888,6.4888,6.4888,6.4888,6.4888,6.4888,6.4888,6.4888,6.4888,6.4888,6.4888,6.4888,6.4888,6.4888,6.5002,6.5296,6.5116,6.3953,6.1044,6.282,6.3474,6.0216,0.0,0.0,0.0,0.0,0.0,0.0,5.422,5.2368,5.2341,4.7665,4.5615,0.0,0.0,4.8514,5.347,5.4108,5.7338,6.3468,6.1243,6.3185,6.9192,6.9192,6.9192,6.9192,6.9192,6.9192,6.9192,6.9192,6.9192,6.9192,6.9192,6.9192,6.9192,6.9192,6.9192,6.9192,6.9192,6.9192,6.9267,6.4858,6.5568,6.6255,6.6758,6.777,6.6957,6.2406,6.6248,6.7996,6.3173,6.6614,6.945,6.9289,6.9268,6.9133,6.8851,0.0,0.0,6.8529,6.8207,6.817,6.8505,6.8327,6.7884,6.7214,6.8248,6.8203,6.7021,6.7297,6.739,6.739,6.739,6.739,6.739,6.739,6.7352,6.7276,6.6442,6.6063,6.595,6.5183,6.4888,6.4888,6.4888,6.4888,6.4888,6.4888,6.4888,6.4888,6.4888,6.4888,6.4888,6.4888,6.4888,6.4888,6.4888,6.4888,6.4888,6.4888,6.4888,6.4888,6.4888,6.4888,6.4888,6.4888,6.4888,6.4888,6.4888,6.4888,6.5145,6.5874,6.5448,6.5194,6.5822,6.5228,6.4492,6.3973,0.0,0.0,0.0,0.0,0.0,5.6811,5.7498,5.7485,0.0,5.2755,5.2089,0.0,0.0,4.4233,4.9235,4.946,5.2494,5.8718,5.9591,6.3073,6.9192,6.9192,6.9192,6.9192,6.9192,6.9192,6.9192,6.9192,6.9192,6.9192,6.9192,6.9192,6.9192,6.9192,6.9192,6.9192,6.9192,6.9192,6.9192,5.78,6.2048,6.5517,6.3632,6.6248,6.8357,6.7761,6.8906,6.9389,6.8177,6.9058,6.9805,6.9756,6.9719,6.963,6.9367,6.5742,6.4972,6.849,6.5199,6.4744,6.8487,6.5102,6.3125,6.3191,6.2984,6.436,6.7316,6.7372,6.739,6.739,6.739,6.739,6.739,6.739,6.7011,6.6404,6.6177,6.576,6.5183,6.5002,6.4888,6.4888,6.4888,6.4888,6.4888,6.4888,6.4888,6.4888,6.4888,6.4888,6.4888,6.4888,6.4888,6.4888,6.4888,6.4888,6.4888,6.4888,6.4888,6.4888,6.4888,6.4888,6.4888,6.4888,6.4888,6.4888,6.4888,6.4888,6.4964,6.5154,6.5524,6.5675,6.5232,6.5351,6.3955,5.9531,5.7754,0.0,0.0,5.3736,5.6123,5.7951,6.1602,6.2246,0.0,0.0,5.6411,5.6896,5.4484,5.5648,6.1243,6.2041,6.3468,6.5636,6.6452,6.7653,6.9192,6.9192,6.9192,6.9192,6.9192,6.9192,6.9192,6.9192,6.9192,6.9192,6.9192,6.9192,6.9192,6.9192,6.9192,6.9192,6.9192,6.9192,6.9192,6.0719,6.4089,6.6889,6.5776,6.7572,6.9342,6.9749,6.9863,6.9901,6.9901,6.9901,6.9901,6.9901,6.9901,6.9853,6.9699,6.7057,6.6384,6.8814,6.6459,6.6197,6.8904,6.6475,6.4998,6.4887,6.4549,6.5359,6.739,6.739,6.739,6.739,6.739,6.72,6.6821,6.6821,6.6329,6.5571,6.5571,6.5305,6.4888,6.4888,6.4888,6.4888,6.4888,6.4888,6.4888,6.4888,6.4888,6.4888,6.4888,6.4888,6.4888,6.4888,6.4888,6.4888,6.4888,6.4888,6.4888,6.4888,6.4888,6.4888,6.4888,6.4888,6.4888,6.4888,6.4888,6.4888,6.4888,6.4888,6.4993,6.5381,6.5486,6.5637,6.5988,6.3677,6.0878,5.814,5.5685,5.4008,5.3652,5.6428,5.9471,6.2266,6.4557,6.4747,6.1938,5.921,0.0,6.0201,5.8135,5.9553,6.5325,6.636,6.7186,6.8002,6.8817,6.9192,6.9192,6.9192,6.9192,6.9192,6.9192,6.9192,6.9192,6.9192,6.9192,6.9192,6.9192,6.9192,6.9192,6.9192,6.9192,6.9192,6.9192,6.9192,6.9192,6.7241,6.8054,6.884,6.9596,6.9806,6.9901,6.9901,6.9901,6.9901,6.9901,6.9901,6.9901,6.9901,6.9901,6.9901,6.9901,6.9707,6.9505,6.9278,6.9214,6.9246,6.9384,6.9384,6.9186,6.8678,6.847,6.795,6.72,6.7087,6.7011,6.7011,6.7011,6.6632,6.5912,6.5912,6.5524,6.4888,6.4888,6.4888,6.4888,6.4888,6.4888,6.4888,6.4888,6.4888,6.4888,6.4888,6.4888,6.4888,6.4888,6.4888,6.4888,6.4888,6.4888,6.4888,6.4888,6.4888,6.4888,6.4888,6.4888,6.4888,6.4888,6.4888,6.4888,6.4888,6.4888,6.4888,6.4888,6.4888,6.5116,6.5798,6.5448,6.5267,6.5789,6.1085,5.731,5.7129,0.0,5.3426,5.7704,5.9593,6.2272,6.6756,6.6333,6.5804,6.5784,6.1074,6.0022,6.4069,6.0313,6.0379,6.5523,6.6397,6.7224,6.8189,6.8854,6.9192,6.9192,6.9192,6.9192,6.9192,6.9192,6.9192,6.9192,6.9192,6.9192,6.9192,6.9192,6.9192,6.9192,6.9192,6.9192,6.9192,6.9192,6.9192,6.9192,6.8091,6.8518,6.8868,6.9721,6.9891,6.9901,6.9901,6.9901,6.9901,6.9901,6.9901,6.9901,6.9901,6.9901,6.9901,6.9901,6.9707,6.9577,6.9536,6.9348,6.9246,6.9384,6.9384,6.945,6.951,6.8234,6.7144,6.6282,6.56,6.5305,6.5305,6.5305,6.5229,6.5069,6.5069,6.504,6.4888,6.4888,6.4888,6.4888,6.4888,6.4888,6.4888,6.4888,6.4888,6.4888,6.4888,6.4888,6.4888,6.4888,6.4888,6.4888,6.4888,6.4888,6.4888,6.4888,6.4888,6.4888,6.4888,6.4888,6.4888,6.4888,6.4888,6.4888,6.4888,6.4888,6.4888,6.4888,6.4888,6.4926,6.5078,6.5524,6.4378,5.9639,5.8518,5.6563,5.1782,0.0,5.6413,5.734,6.1251,6.4482,6.6078,6.5955,6.5775,6.5724,6.4857,6.4309,6.4304,6.3581,6.4219,6.651,6.6735,6.7513,6.9005,6.9155,6.9192,6.9192,6.9192,6.9192,6.9192,6.9192,6.9192,6.9192,6.9192,6.9192,6.9192,6.9192,6.9192,6.9192,6.9192,6.9192,6.9192,6.9192,6.9192,6.9192,6.8375,6.8982,6.9446,6.9825,6.9901,6.9901,6.9901,6.9901,6.9901,6.9901,6.9901,6.9882,6.9787,6.9777,6.9795,6.9737,6.9647,6.9587,6.9587,6.9432,6.939,6.9505,6.9529,6.9403,6.9105,6.7978,6.6973,6.6092,6.5296,6.4888,6.4888,6.4888,6.4888,6.4888,6.4888,6.4888,6.4888,6.4888,6.4888,6.4888,6.4888,6.4888,6.4888,6.4888,6.4888,6.4888,6.4888,6.4888,6.4888,6.4888,6.4888,6.4888,6.4888,6.4888,6.4888,6.4888,6.4888,6.4888,6.4888,6.4888,6.4888,6.4888,6.4888,6.4888,6.4888,6.4888,6.4888,6.4888,6.4888,6.4888,6.4888,6.5183,6.469,6.2391,5.9673,0.0,5.4844,5.646,5.7872,5.7905,6.2687,6.6144,6.656,6.6086,6.5744,6.5695,6.5221,6.4758,6.4332,6.4294,6.5083,6.6735,6.7626,6.8441,6.9192,6.9192,6.9192,6.9192,6.9192,6.9192,6.9192,6.9192,6.9192,6.9192,6.9192,6.9192,6.9192,6.9192,6.9192,6.9192,6.9192,6.9192,6.9192,6.9192,6.9192,6.9192,6.8451,6.9285,6.9901,6.9901,6.9901,6.9901,6.9901,6.9901,6.9901,6.9901,6.9901,6.9863,6.9719,6.9709,6.9679,6.9637,6.9607,6.9597,6.9627,6.9546,6.9536,6.9627,6.9689,6.9474,6.8906,6.7921,6.7087,6.6404,6.5381,6.4888,6.4888,6.4888,6.4888,6.4888,6.4888,6.4888,6.4888,6.4888,6.4888,6.4888,6.4888,6.4888,6.4888,6.4888,6.4888,6.4888,6.4888,6.4888,6.4888,6.4888,6.4888,6.4888,6.4888,6.4888,6.4888,6.4888,6.4888,6.4888,6.4888,6.4888,6.4888,6.4888,6.4888,6.4888,6.4888,6.4888,6.4888,6.4888,6.4888,6.4888,6.4888,6.4888,6.4728,6.4151,0.0,5.754,5.8184,5.8281,5.8656,5.9731,6.384,6.6531,6.6463,6.5819,6.5374,6.5392,6.474,6.4314,6.4294,6.4294,6.5083,6.6735,6.8377,6.9192,6.9192,6.9192,6.9192,6.9192,6.9192,6.9192,6.9192,6.9192,6.9192,6.9192,6.9192,6.9192,6.9192,6.9192,6.9192,6.9192,6.9192,6.9192,6.9192,6.9192,6.9192,6.9192,6.8451,6.9285,6.9901,6.9901,6.9901,6.9901,6.9901,6.9901,6.9901,6.9901,6.9901,6.9863,6.9719,6.9709,6.9699,6.9699,6.9647,6.9627,6.9689,6.9689,6.9689,6.9689,6.9834,6.9854,6.9825,6.8224,6.7352,6.7314,6.5684,6.4888,6.4888,6.4888,6.4888,6.4888,6.4888,6.4888,6.4888,6.4888,6.4888,6.4888,6.4888,6.4888,6.4888,6.4888,6.4888,6.4888,6.4888,6.4888,6.4888,6.4888,6.4888,6.4888,6.4888,6.4888,6.4888,6.4888,6.4888,6.4888,6.4888,6.4888,6.4888,6.4888,6.4888,6.4888,6.4888,6.4888,6.4888,6.4888,6.4888,6.4888,6.4888,6.4888,6.3355,5.8722,0.0,0.0,5.7389,5.7346,5.9043,6.3677,6.4464,6.4603,6.4593,6.4556,6.4469,6.4427,6.4412,6.4384,6.4304,6.4294,6.5083,6.6735,6.8377,6.9192,6.9192,6.9192,6.9192,6.9192,6.9192,6.9192,6.9192,6.9192,6.9192,6.9192,6.9192,6.9192,6.9192,6.9192,6.9192,6.9192,6.9192,6.9192,6.9192,6.9192,6.9192,6.9192,6.8451,6.9285,6.9901,6.9901,6.9901,6.9901,6.9901,6.9901,6.9901,6.9901,6.9901,6.9834,6.9667,6.9669,6.9649,6.9519,6.959,6.9659,6.9699,6.9767,6.9806,6.9806,6.9882,6.9901,6.9901,6.8262,6.739,6.739,6.5722,6.4888,6.4888,6.4888,6.4888,6.4888,6.4888,6.4888,6.4888,6.4888,6.4888,6.4888,6.4888,6.4888,6.4888,6.4888,6.4888,6.4888,6.4888,6.4888,6.4888,6.4888,6.4888,6.4888,6.4888,6.4888,6.4888,6.4888,6.4888,6.4888,6.4888,6.4888,6.4888,6.4888,6.4888,6.4888,6.4888,6.4888,6.4888,6.4888,6.4888,6.4888,6.4888,6.4888,6.4273,6.2323,0.0,6.2012,6.2012,6.1986,6.2645,6.4444,6.4587,6.4491,6.4354,6.4344,6.4334,6.4294,6.4324,6.4334,6.4294,6.4772,6.5336,6.5974,6.7589,6.8704,6.9192,6.9192,6.9192,6.9192,6.9192,6.9192,6.9192,6.9192,6.9192,6.9192,6.9192,6.9192,6.9192,6.9192,6.9192,6.9192,6.9192,6.9192,6.9192,6.9192,6.9192,6.9192,6.8404,6.9256,6.9815,6.9844,6.9853,6.9863,6.9891,6.9901,6.9882,6.9853,6.9853,6.9776,6.9556,6.9637,6.96,6.9457,6.96,6.9719,6.9748,6.9863,6.9901,6.9901,6.9901,6.9901,6.9901,6.8262,6.739,6.739,6.5722,6.4888,6.4888,6.4888,6.4888,6.4888,6.4888,6.4888,6.4888,6.4888,6.4888,6.4888,6.4888,6.4888,6.4888,6.4888,6.4888,6.4888,6.4888,6.4888,6.4888,6.4888,6.4888,6.4888,6.4888,6.4888,6.4888,6.4888,6.4888,6.4888,6.4888,6.4888,6.4888,6.4888,6.4888,6.4888,6.4888,6.4888,6.4888,6.4888,6.4888,6.4888,6.4888,6.4888,6.4888,6.4888,6.4888,6.4888,6.4888,6.4835,6.4745,6.4615,6.4549,6.4452,6.4304,6.4324,6.4324,6.4294,6.4324,6.4324,6.4294,6.481,6.5223,6.5476,6.6612,6.7739,6.8817,6.908,6.9192,6.9192,6.9192,6.9192,6.9192,6.9192,6.9192,6.9192,6.9192,6.9192,6.9192,6.9192,6.9192,6.9192,6.9192,6.9192,6.9192,6.9192,6.9192,6.9192,6.83,6.9091,6.9617,6.9689,6.9709,6.9738,6.9882,6.9891,6.9863,6.9719,6.9709,6.962,6.9405,6.9526,6.9587,6.9587,6.9649,6.9748,6.9891,6.9901,6.9901,6.9901,6.9901,6.9901,6.9901,6.8262,6.739,6.739,6.5722,6.4888,6.4888,6.4888,6.4888,6.4888,6.4888,6.4888,6.4888,6.4888,6.4888,6.4888,6.4888,6.4888,6.4888,6.4888,6.4888,6.4888,6.4888,6.4888,6.4888,6.4888,6.4888,6.4888,6.4888,6.4888,6.4888,6.4888,6.4888,6.4888,6.4888,6.4888,6.4888,6.4888,6.4888,6.4888,6.4888,6.4888,6.4888,6.4888,6.4888,6.4888,6.4888,6.4888,6.4888,6.4888,6.4888,6.4888,6.4888,6.4726,6.4606,6.4606,6.4423,6.4294,6.4294,6.4346,6.4356,6.4304,6.4346,6.4356,6.4304,6.4294,6.467,6.5486,6.5523,6.6312,6.7964,6.8779,6.9192,6.9192,6.9192,6.9192,6.9192,6.9192,6.9192,6.9192,6.9192,6.9192,6.9192,6.9192,6.9192,6.9192,6.9192,6.9192,6.9192,6.9192,6.9192,6.9192,6.7439,6.828,6.9007,6.9524,6.9637,6.9647,6.9677,6.9687,6.9667,6.9637,6.9637,6.9607,6.9546,6.9637,6.9659,6.9659,6.9758,6.9863,6.9891,6.9901,6.9901,6.9901,6.9787,6.9521,6.8982,6.7855,6.7013,6.648,6.541,6.4888,6.4888,6.4888,6.4888,6.4888,6.4888,6.4888,6.4888,6.4888,6.4888,6.4888,6.4888,6.4888,6.4888,6.4888,6.4888,6.4888,6.4888,6.4888,6.4888,6.4888,6.4888,6.4888,6.4888,6.4888,6.4888,6.4888,6.4888,6.4888,6.4888,6.4888,6.4888,6.4888,6.4888,6.4888,6.4888,6.4888,6.4888,6.4888,6.4888,6.4888,6.4888,6.4888,6.4888,6.4888,6.4888,6.4888,6.4888,6.4835,6.4781,6.4679,6.4615,6.4549,6.452,6.453,6.4501,6.4366,6.4354,6.4324,6.4294,6.4294,6.4407,6.466,6.5223,6.5749,6.6237,6.7664,6.8629,6.9192,6.9192,6.9192,6.9192,6.9192,6.9192,6.9192,6.9192,6.9192,6.9192,6.9192,6.9192,6.9192,6.9192,6.9192,6.9192,6.9192,6.9192,6.9192,6.6645,6.7589,6.8512,6.8983,6.932,6.9536,6.9587,6.9587,6.9577,6.9526,6.9567,6.9577,6.9526,6.962,6.9709,6.9709,6.9806,6.9882,6.9806,6.9834,6.9815,6.9776,6.9377,6.8952,6.8603,6.7401,6.6568,6.6092,6.5296,6.4888,6.4888,6.4888,6.4888,6.4888,6.4888,6.4888,6.4888,6.4888,6.4888,6.4888,6.4888,6.4888,6.4888,6.4888,6.4888,6.4888,6.4888,6.5116,6.5372,6.5372,6.5609,6.5874,6.5874,6.5874,6.5874,6.5874,6.5874,6.5874,6.5874,6.5874,6.5798,6.5448,6.5154,6.4888,6.4888,6.4888,6.4888,6.4888,6.4888,6.4888,6.4888,6.4888,6.4888,6.4888,6.4888,6.4871,6.4835,6.4835,6.4743,6.4605,6.4633,6.4615,6.4539,6.4577,6.4549,6.4405,6.4346,6.4334,6.4294,6.4294,6.4294,6.4294,6.4772,6.5185,6.5523,6.65,6.7589,6.8742,6.8742,6.8892,6.9192,6.9192,6.9192,6.9192,6.9192,6.9192,6.9192,6.9192,6.9192,6.9192,6.9192,6.9192,6.9155,6.8854,6.8742,6.8667,6.5983,6.7049,6.7994,6.8226,6.8844,6.934,6.9546,6.9556,6.9526,6.9395,6.9515,6.9546,6.9426,6.959,6.9709,6.9719,6.9834,6.9844,6.9709,6.9699,6.9612,6.9494,6.8691,6.8251,6.8375,6.6888,6.6045,6.5988,6.5267,6.4888,6.4888,6.4888,6.4888,6.4888,6.4888,6.4888,6.4888,6.4888,6.4888,6.4888,6.4888,6.4888,6.4926,6.5002,6.4993,6.504,6.5116,6.5609,6.6206,6.6206,6.6746,6.739,6.739,6.739,6.739,6.739,6.739,6.739,6.739,6.739,6.72,6.6404,6.5684,6.5078,6.4917,6.4888,6.4888,6.4888,6.4888,6.4888,6.4888,6.4888,6.4888,6.4888,6.4888,6.4853,6.4743,6.4725,6.4652,6.4463,6.4568,6.4587,6.4444,6.4521,6.4568,6.4434,6.4405,6.4356,6.4314,6.4304,6.4294,6.4294,6.4294,6.466,6.5411,6.5411,6.6237,6.7889,6.7889,6.8264,6.9005,6.908,6.908,6.9117,6.9192,6.9192,6.9192,6.9117,6.908,6.908,6.9005,6.9005,6.8892,6.8152,6.7889,6.7776,6.5889,6.6248,6.6823,6.7967,6.8292,6.86,6.9203,6.9305,6.93,6.9374,6.9443,6.9478,6.962,6.9679,6.9738,6.9853,6.9777,6.9728,6.9709,6.963,6.9345,6.8762,6.7883,6.7184,6.6661,6.6247,6.5755,6.5145,6.5002,6.4888,6.4888,6.4888,6.4888,6.4888,6.4888,6.4888,6.4888,6.4888,6.4888,6.4888,6.4888,6.4888,6.4955,6.5609,6.5836,6.5941,6.6594,6.6973,6.7125,6.7125,6.7238,6.739,6.739,6.739,6.739,6.739,6.739,6.739,6.739,6.739,6.7352,6.7162,6.6973,6.6518,6.5192,6.4888,6.4888,6.4888,6.4888,6.4888,6.4888,6.4888,6.4888,6.4888,6.4888,6.488,6.4862,6.4853,6.4844,6.4799,6.4808,6.4817,6.479,6.4707,6.467,6.4652,6.4492,6.4385,6.4366,6.4334,6.4294,6.4294,6.4294,6.4369,6.4557,6.4557,6.5383,6.7073,6.7073,6.7148,6.7336,6.7964,6.8264,6.8302,6.893,6.9192,6.9155,6.8517,6.8264,6.8189,6.7551,6.7336,6.7299,6.7111,6.7073,6.7036,6.5385,6.5756,6.622,6.6973,6.7404,6.7881,6.8648,6.8751,6.8932,6.9419,6.9508,6.9579,6.9689,6.9709,6.9709,6.9756,6.9707,6.9647,6.9559,6.9172,6.8794,6.8342,6.7599,6.7033,6.6634,6.6663,6.6085,6.4888,6.4888,6.4888,6.4888,6.4888,6.4888,6.4888,6.4888,6.4888,6.4888,6.4888,6.5107,6.5457,6.5457,6.5722,6.6139,6.6556,6.6708,6.6783,6.7238,6.7655,6.8034,6.8451,6.8603,6.8603,6.8603,6.8603,6.8603,6.8603,6.8603,6.8603,6.8603,6.8603,6.8489,6.8072,6.7958,6.7542,6.5836,6.5457,6.5372,6.5002,6.4888,6.4888,6.4888,6.4888,6.4888,6.4888,6.4888,6.4871,6.4826,6.4862,6.4853,6.4763,6.4835,6.4871,6.4826,6.4743,6.467,6.4577,6.4511,6.4434,6.4374,6.4324,6.4294,6.4294,6.4294,6.4294,6.4294,6.4294,6.4745,6.5609,6.6022,6.6397,6.681,6.7224,6.7449,6.7449,6.7851,6.8077,6.8039,6.7589,6.7449,6.7411,6.6961,6.681,6.6735,6.6322,6.5947,6.5609,6.4888,6.5385,6.5851,6.5993,6.6522,6.7181,6.7954,6.8105,6.8407,6.9285,6.9431,6.9528,6.9679,6.9679,6.964,6.9597,6.9577,6.9526,6.9395,6.8827,6.8384,6.8125,6.7664,6.7279,6.7033,6.7117,6.6583,6.5376,6.5323,6.5256,6.5195,6.5294,6.5267,6.5116,6.5116,6.5116,6.5116,6.4964,6.5296,6.5903,6.5903,6.6329,6.6973,6.7125,6.7162,6.72,6.7352,6.7845,6.8489,6.9219,6.9484,6.9484,6.9484,6.9484,6.9484,6.9484,6.9484,6.9484,6.9636,6.9673,6.955,6.8982,6.8783,6.8385,6.687,6.6311,6.5912,6.5221,6.5002,6.4888,6.4888,6.4871,6.4862,6.488,6.4871,6.4844,6.4743,6.4835,6.4826,6.4671,6.4781,6.4826,6.4698,6.4689,6.4615,6.4434,6.453,6.4501,6.4324,6.4304,6.4294,6.4294,6.4294,6.4294,6.4294,6.4294,6.4294,6.4294,6.4998,6.5674,6.636,6.651,6.6585,6.6585,6.6735,6.681,6.6773,6.6623,6.6585,6.6548,6.6435,6.636,6.6285,6.5561,6.4885,6.4294,6.4888,6.4984,6.5252,6.5889,6.6087,6.639,6.7134,6.7275,6.7539,6.8369,6.8492,6.8767,6.9532,6.9607,6.9607,6.9587,6.9505,6.9405,6.9384,6.9319,6.8947,6.8312,6.8317,6.7657,6.6264,6.6282,6.6643,6.7338,6.7137,6.6804,6.6287,6.6833,6.667,6.5941,6.5941,6.5941,6.5903,6.5192,6.4955,6.5078,6.5078,6.5145,6.5305,6.6025,6.6291,6.6367,6.7125,6.7466,6.7579,6.7693,6.7731,6.7731,6.7731,6.7731,6.7731,6.7731,6.7731,6.7883,6.8603,6.8792,6.8944,6.956,6.9645,6.9312,6.8395,6.7098,6.6063,6.5941,6.5381,6.4888,6.4888,6.4826,6.4761,6.4871,6.4779,6.4752,6.4862,6.488,6.4871,6.4853,6.4761,6.4689,6.4634,6.4615,6.4606,6.4577,6.4463,6.4405,6.4376,6.4334,6.4294,6.4294,6.4294,6.4294,6.4294,6.4294,6.4294,6.4294,6.4407,6.452,6.467,6.5373,6.5674,6.5711,6.6472,6.681,6.6735,6.5974,6.5674,6.5598,6.4933,6.4632,6.4632,6.452,6.4407,6.4294,6.4888,6.4888,6.4984,6.5318,6.5385,6.5641,6.6427,6.6532,6.6834,6.7676,6.7789,6.8111,6.8884,6.9302,6.9464,6.9401,6.93,6.931,6.9422,6.9022,6.8651,6.8421,6.8064,6.7533,6.6859,6.6821,6.7116,6.7692,6.6546,6.5869,6.561,6.5898,6.5798,6.5419,6.5419,6.5419,6.541,6.5031,6.5154,6.5562,6.5562,6.5874,6.6329,6.6708,6.6821,6.6897,6.7276,6.739,6.739,6.739,6.739,6.739,6.739,6.739,6.739,6.739,6.739,6.7466,6.7845,6.7921,6.811,6.8982,6.9143,6.9095,6.9151,6.8262,6.7155,6.6247,6.5412,6.4871,6.4779,6.4743,6.4725,6.477,6.4743,6.4743,6.4871,6.4844,6.4752,6.4736,6.4605,6.4521,6.4473,6.4501,6.4481,6.4433,6.4395,6.4376,6.4354,6.4314,6.4294,6.4294,6.4294,6.4294,6.4294,6.4294,6.4294,6.4294,6.4294,6.4294,6.4294,6.467,6.481,6.4847,6.5233,6.5383,6.5383,6.5008,6.481,6.4772,6.4444,6.4294,6.4294,6.4294,6.4294,6.4294]}]]